GFSCGP_sfc_wetblb_054.txt.gz
Wetbulb
48.74 44.77 41.83 44.46 45.91 46.24 45.20 43.91 43.33 44.97 46.91 45.89 46.37 47.33 49.62 51.86 54.19 55.38 56.85 57.98 58.05 58.12 59.81 59.90 59.63 58.03 58.72 59.41 58.85 58.51 57.74 58.29 58.78 57.95 58.36 58.19 57.17 57.30 58.38 58.69 61.00 62.48 60.66 60.92
45.69 42.00 46.80 47.90 47.07 44.82 44.13 42.41 42.88 45.04 46.37 45.77 45.71 46.22 49.87 51.37 53.49 56.01 56.69 57.59 58.46 58.58 58.60 58.83 59.22 59.13 57.35 59.23 58.57 58.47 58.21 58.72 58.31 58.16 58.48 58.33 57.82 57.07 57.90 58.48 60.18 61.88 62.31 61.14
42.82 44.13 47.92 46.24 44.69 43.20 43.63 42.13 42.81 42.87 44.85 46.90 45.81 44.65 47.50 50.97 53.20 55.05 56.79 58.20 59.31 59.20 58.49 58.58 58.52 59.15 59.55 59.35 58.62 58.12 58.34 57.95 58.37 58.24 58.76 58.02 57.81 57.39 56.46 56.99 59.73 61.49 63.03 61.98
42.98 45.61 44.54 44.72 43.30 44.68 40.97 45.64 44.53 43.80 42.44 38.97 46.14 38.77 46.07 48.93 49.74 52.03 54.45 57.46 58.44 59.50 59.77 59.45 58.94 59.16 59.39 60.12 60.67 59.49 58.62 58.15 58.03 58.33 57.66 56.45 54.97 54.81 56.43 56.91 59.68 61.28 62.51 62.11
41.85 41.35 42.94 42.35 43.50 45.69 42.97 46.03 44.86 44.57 42.95 42.21 42.31 40.11 44.06 47.83 47.17 49.24 51.65 55.08 58.28 59.79 60.31 59.60 59.54 60.24 60.45 60.48 60.38 59.46 59.09 58.68 57.93 58.21 57.75 56.20 55.80 55.76 56.52 56.65 57.72 60.21 61.91 62.22
44.67 46.86 45.11 45.08 45.99 46.12 46.44 44.52 44.45 44.37 42.57 36.41 41.05 40.90 41.46 45.17 47.74 49.37 51.26 53.44 56.53 58.74 60.18 60.61 60.98 60.90 60.75 60.89 60.66 59.29 58.23 58.28 58.27 57.69 57.89 56.61 56.59 56.61 56.93 55.69 55.11 56.11 57.69 60.87
42.40 42.35 46.40 46.90 42.96 46.24 45.28 42.09 36.84 35.13 35.38 34.26 42.82 40.86 42.99 48.02 49.90 50.87 51.17 52.60 55.86 58.35 59.47 59.95 60.07 59.90 60.12 60.09 59.66 59.84 58.26 57.10 58.48 57.99 58.34 58.94 58.18 58.81 58.81 57.36 56.58 56.96 56.07 56.74
34.93 33.86 42.06 46.23 44.41 42.40 42.64 42.68 37.62 30.51 32.95 37.13 42.55 38.32 43.80 49.76 51.49 52.64 52.73 53.64 54.81 57.46 59.43 59.69 60.58 60.49 60.38 60.04 59.61 58.61 58.96 59.15 59.11 58.81 58.88 60.62 60.34 60.86 59.73 60.12 59.47 59.11 58.76 59.44
34.91 35.67 44.50 45.87 46.48 45.68 42.93 39.97 44.93 39.44 39.83 38.07 41.15 43.45 47.77 49.70 49.90 51.35 52.27 53.32 54.41 56.61 58.53 59.31 60.37 60.98 61.06 60.46 59.57 57.91 58.58 59.42 60.01 59.97 60.57 60.48 61.02 61.18 61.04 61.18 61.48 60.87 61.05 60.74
41.29 35.57 42.47 44.66 47.15 47.34 45.48 47.20 38.80 40.30 32.01 31.06 38.02 40.15 42.02 45.41 47.63 50.10 50.87 52.33 53.44 55.32 56.52 58.30 59.79 60.73 61.18 61.46 60.51 58.83 59.08 59.17 60.25 60.60 61.00 60.94 61.46 61.67 61.84 61.97 61.37 61.42 61.76 61.77
42.81 40.77 39.61 43.44 42.28 41.96 42.85 41.95 42.53 43.19 41.06 34.76 33.73 39.31 47.65 47.72 48.99 49.72 51.72 52.35 54.13 55.42 56.68 58.29 59.54 60.90 61.24 61.69 61.08 59.95 59.48 59.47 59.58 60.24 60.61 60.70 61.35 61.61 61.68 61.92 61.72 61.53 61.72 61.58
43.04 40.47 37.00 39.27 43.99 46.21 46.04 43.37 43.44 37.83 36.78 39.63 38.98 40.13 49.26 48.55 48.98 50.21 51.31 52.40 54.03 55.38 56.28 57.47 59.92 60.74 60.63 60.90 61.03 60.83 60.19 59.92 59.94 60.33 60.20 60.84 60.79 60.82 60.79 61.23 61.46 62.17 61.63 61.36
44.47 39.62 33.44 36.06 40.31 43.75 42.32 43.12 43.71 42.50 41.76 38.20 35.92 39.98 48.05 48.93 48.64 50.40 51.31 52.83 53.83 54.78 55.56 55.52 58.15 59.73 60.29 60.48 60.55 60.91 60.74 60.38 60.75 60.40 60.07 60.06 60.24 60.69 60.95 60.81 60.46 60.47 60.11 60.24
45.32 40.93 37.21 33.36 36.61 41.51 38.72 40.16 41.19 41.54 37.88 38.42 39.15 40.85 44.62 46.69 47.33 49.21 50.88 52.81 53.68 54.05 54.50 55.46 55.71 58.49 60.02 60.74 60.71 60.88 60.81 61.13 61.04 60.46 59.91 59.56 59.97 60.56 60.63 60.46 60.32 60.53 60.07 59.32
43.20 35.22 38.58 38.77 39.25 39.30 39.18 39.77 40.04 38.66 39.78 36.55 39.88 40.11 43.73 45.69 46.49 49.29 51.16 51.60 52.00 52.63 53.39 54.69 55.30 56.47 58.35 60.05 60.80 61.13 61.21 61.14 60.94 60.09 59.58 59.85 60.74 60.08 59.91 59.62 59.64 59.73 59.81 59.54
42.28 35.91 37.85 34.76 37.96 38.80 36.96 39.30 39.84 40.08 39.92 40.11 41.19 41.46 47.25 47.58 48.45 47.66 48.27 49.45 50.58 52.00 53.17 54.26 55.30 55.68 55.47 57.49 59.71 60.66 60.98 60.85 60.68 59.71 59.55 60.07 59.87 59.74 59.59 59.44 59.65 59.32 59.39 59.33
37.18 38.47 35.32 30.91 36.55 36.30 32.01 37.42 39.36 40.82 42.79 41.62 38.02 42.44 45.15 44.75 45.78 47.16 47.92 49.67 50.78 51.93 52.54 53.38 54.11 55.39 56.18 56.53 57.76 59.02 60.62 61.78 60.66 59.69 59.65 59.70 59.66 58.98 59.20 59.45 59.05 58.90 59.34 59.94
35.90 37.76 37.54 32.80 33.89 24.92 37.32 42.01 41.27 40.11 41.52 42.75 42.26 43.09 45.48 46.85 49.16 50.43 51.91 51.44 51.01 51.64 52.74 54.37 55.40 55.56 56.50 57.45 57.30 58.80 59.87 60.74 60.86 59.81 59.40 59.37 59.17 58.85 59.21 59.00 58.54 58.83 59.36 59.46
39.53 37.57 33.78 30.51 31.05 34.95 36.91 39.15 39.08 38.34 37.82 43.18 43.33 44.80 46.37 47.51 48.80 49.01 52.44 52.06 51.99 52.62 53.43 54.15 55.57 56.56 57.03 56.29 56.76 56.11 58.10 59.69 60.23 59.94 59.69 59.98 59.94 58.87 59.25 58.80 59.21 59.69 58.79 58.21
38.91 39.40 35.47 32.65 26.87 24.40 36.60 41.95 44.98 44.35 34.95 45.18 45.25 45.49 45.89 47.35 42.54 46.21 50.89 52.13 53.01 53.75 53.84 53.11 53.77 54.99 55.33 55.81 56.22 55.76 55.75 56.91 58.16 59.27 59.71 60.53 60.22 59.76 59.51 59.60 59.02 52.89 49.47 42.19
32.06 33.99 31.18 31.16 30.43 33.66 41.12 42.81 44.57 34.53 37.22 45.67 46.11 46.40 46.30 45.28 47.93 50.23 51.47 51.91 53.22 52.56 52.34 52.67 53.21 53.98 55.53 55.94 56.03 55.17 55.92 55.55 57.59 58.34 58.45 59.17 59.93 59.06 56.22 51.38 46.30 41.72 38.28 36.27
30.88 30.96 31.20 32.72 28.71 27.03 43.62 42.45 37.67 44.56 47.04 46.56 47.12 47.35 47.37 49.34 49.58 50.11 50.64 50.82 51.42 50.75 50.64 51.54 51.47 52.32 54.13 55.18 56.06 55.85 55.72 55.33 55.61 54.47 52.13 50.14 48.57 46.28 44.97 42.09 40.09 39.78 36.45 34.36
32.89 36.87 35.14 36.08 35.97 43.20 45.62 45.68 46.98 47.28 46.14 46.95 47.11 48.15 49.44 49.41 49.25 48.49 48.70 49.32 48.71 48.83 48.69 48.16 47.64 47.57 47.06 49.40 53.70 53.60 49.68 49.27 47.64 45.57 43.64 42.04 41.21 40.44 40.28 40.90 38.73 35.46 34.67 32.85
39.13 42.47 38.32 38.42 41.38 43.00 44.55 46.55 46.18 46.22 45.79 46.20 46.47 47.14 48.16 47.70 48.82 47.61 47.80 45.81 44.75 42.02 43.75 41.72 41.06 40.23 39.12 40.24 41.74 45.26 45.05 44.42 41.57 39.31 38.27 37.79 37.25 37.38 37.57 36.60 35.86 34.27 32.79 31.53
39.77 41.30 38.90 38.86 41.60 43.26 44.47 44.98 44.71 44.09 45.11 44.24 44.83 43.94 43.81 42.68 44.47 42.38 43.00 40.40 38.65 34.80 34.97 36.20 35.15 34.67 35.53 37.19 37.47 38.84 39.67 38.92 36.35 35.46 34.58 34.21 32.81 31.37 30.16 30.20 31.38 31.45 32.91 33.16
41.35 39.00 37.35 36.27 41.41 41.40 41.73 44.55 42.54 42.54 41.81 41.95 40.77 40.79 40.72 39.88 38.91 38.85 37.36 36.27 33.33 32.03 31.86 31.63 31.50 31.18 30.97 31.16 33.63 35.88 38.02 37.81 35.06 32.96 32.92 31.73 30.44 29.80 29.18 27.83 27.34 29.95 29.91 29.49

GFSCGP_sfc_wetblb_060.txt.gz
Wetbulb
44.44 38.91 37.00 41.84 44.18 44.26 44.59 44.19 43.98 47.43 50.25 48.56 47.50 47.08 48.37 51.02 51.81 53.22 53.98 55.01 56.38 58.78 60.83 61.06 61.14 61.10 61.08 60.61 60.33 59.57 59.42 59.69 59.07 58.15 57.75 57.89 57.45 58.43 58.44 59.35 59.84 59.92 59.10 59.04
42.40 37.70 41.14 43.47 45.50 44.25 43.79 42.94 43.39 47.09 49.33 47.37 46.63 46.00 48.37 49.73 51.10 52.14 53.07 55.10 56.29 58.35 59.62 60.30 60.48 60.24 60.80 59.90 59.53 59.68 59.15 59.22 58.71 58.39 58.18 58.06 57.93 58.15 58.37 58.76 58.72 58.53 58.29 58.40
39.82 42.20 44.94 43.35 41.88 41.47 42.92 42.76 43.42 43.53 47.27 48.42 45.95 44.12 46.37 48.88 50.77 52.11 53.99 54.88 57.06 57.79 58.79 59.47 59.84 59.57 60.27 59.81 59.22 58.87 59.07 59.03 58.87 58.76 58.65 58.09 57.89 57.70 56.81 56.49 57.78 58.53 58.50 58.45
41.71 45.49 43.53 42.62 41.57 42.96 40.12 46.11 45.47 44.80 43.73 39.41 46.85 37.65 45.38 47.72 48.63 50.46 52.35 54.05 55.26 56.63 59.77 60.03 59.80 59.61 59.21 59.91 59.71 58.73 58.61 58.56 58.96 59.11 57.97 56.61 55.83 54.78 55.16 56.54 57.87 58.39 60.11 58.63
40.21 42.10 41.75 41.52 42.70 45.19 42.62 48.11 46.44 45.71 43.54 42.94 42.69 40.22 43.64 48.05 47.02 48.99 51.71 53.80 54.95 56.47 58.90 59.84 60.04 60.50 60.45 60.55 59.68 58.52 58.30 58.28 58.84 59.23 58.54 57.55 56.16 55.99 55.50 55.93 55.96 57.07 59.16 60.61
42.01 46.66 45.09 44.17 45.66 46.26 46.79 45.80 45.68 44.98 43.53 36.00 41.01 40.75 41.15 44.72 47.35 49.58 51.93 53.55 54.91 55.96 58.02 60.29 61.30 61.37 60.96 60.46 60.36 58.90 58.26 57.99 58.73 58.61 58.73 57.92 56.76 55.81 54.81 55.04 54.21 54.97 56.79 59.62
38.72 40.16 44.09 47.01 43.14 45.11 43.86 41.34 35.20 33.35 34.17 33.80 43.00 40.78 42.91 48.05 50.06 51.01 51.61 52.95 55.53 57.03 58.10 59.58 60.28 60.16 60.80 60.27 60.10 59.21 57.95 57.53 58.62 57.93 57.97 57.99 58.05 57.22 55.86 55.04 54.74 54.25 54.85 57.21
33.85 30.88 39.52 45.38 43.84 40.97 41.30 40.99 35.94 28.93 31.77 35.66 43.38 38.28 43.05 49.94 51.37 52.53 52.95 54.50 55.91 56.59 58.33 58.89 60.47 60.81 60.82 60.58 60.56 59.30 58.29 57.13 57.81 58.44 57.92 58.15 58.19 57.92 56.90 56.15 55.85 55.15 55.07 57.39
33.80 34.87 43.73 45.61 46.37 44.73 40.53 37.04 44.09 39.16 39.95 35.89 40.33 44.53 48.15 50.32 50.05 50.64 51.39 52.80 54.24 54.76 57.11 58.63 60.57 61.34 61.10 61.06 60.48 59.87 58.98 58.71 57.91 57.12 58.56 58.24 58.68 57.72 57.16 57.26 57.04 56.37 56.44 57.54
39.16 32.55 41.43 43.67 46.12 46.15 43.18 44.95 36.75 38.50 29.54 29.13 38.28 41.01 41.46 47.08 48.23 49.92 51.05 51.97 53.94 55.49 56.60 58.38 59.50 61.51 61.85 61.88 61.71 61.15 60.03 59.02 59.28 58.28 58.10 58.05 58.29 58.71 58.43 58.34 57.73 57.43 57.35 56.97
41.69 38.25 37.33 42.04 40.69 40.15 41.09 39.70 41.01 40.63 38.93 33.34 32.53 37.77 47.27 47.54 49.53 50.50 51.86 53.49 54.18 55.14 56.07 57.10 59.15 60.57 62.28 62.44 62.11 61.31 60.77 59.68 59.38 58.90 58.56 57.89 57.74 58.47 59.03 58.34 58.64 58.19 58.26 58.14
43.73 40.05 34.17 37.51 44.34 45.20 43.23 41.54 41.23 35.94 35.22 39.07 38.07 39.14 50.63 50.38 49.74 50.41 51.05 53.05 54.46 55.59 55.94 56.90 57.96 60.28 61.07 61.87 62.20 61.75 61.20 60.58 59.98 60.09 59.37 58.51 58.37 58.30 58.40 58.28 58.95 59.13 58.74 59.19
40.76 38.08 32.20 34.96 40.89 43.94 40.47 41.85 43.12 42.47 41.40 36.19 35.28 37.73 50.77 49.82 49.73 50.33 49.67 51.37 53.04 54.02 54.61 55.44 56.19 58.97 60.19 61.30 61.86 62.26 61.80 61.15 61.19 60.83 60.42 59.56 58.85 58.59 58.52 58.43 59.18 59.51 59.29 59.92
41.92 38.75 36.01 32.15 36.15 39.04 36.39 41.39 42.65 41.97 35.65 36.98 37.83 41.41 44.78 47.40 48.30 49.29 50.14 49.92 49.96 51.20 53.63 54.60 55.13 56.06 56.81 60.78 61.55 61.92 62.35 61.92 61.33 61.05 60.37 59.97 59.76 59.55 59.32 59.98 59.94 60.09 60.68 59.81
40.64 35.61 38.69 39.53 40.95 40.60 40.58 40.37 41.65 40.25 40.22 36.84 40.23 41.44 44.26 46.50 47.73 49.36 49.89 49.34 48.90 49.82 52.13 53.53 54.12 55.05 56.22 56.68 57.40 60.75 62.22 62.99 62.09 60.74 60.54 59.83 60.70 61.10 61.18 60.68 60.59 60.72 60.57 61.08
41.56 34.04 36.52 35.73 40.64 40.65 38.49 41.30 40.87 40.74 42.54 42.19 42.37 40.44 47.82 48.94 49.06 48.19 48.23 48.52 49.17 50.70 51.65 52.84 54.03 54.94 55.00 55.49 55.88 56.81 58.55 62.20 63.23 61.67 60.94 61.27 60.60 60.86 60.84 60.77 60.82 61.10 60.68 60.76
37.38 35.75 34.27 31.32 37.51 37.66 33.77 38.53 40.65 40.80 43.06 42.49 38.56 43.51 46.61 46.09 46.35 46.79 48.19 49.05 50.52 51.05 51.99 52.32 52.88 53.69 54.41 54.81 55.81 55.78 56.95 57.96 60.65 62.09 61.95 61.79 61.46 60.68 60.41 60.75 60.54 60.24 60.06 60.38
36.39 35.41 34.22 30.79 33.97 25.94 38.35 43.74 43.35 41.99 43.16 44.52 44.70 45.25 45.49 46.26 47.90 48.78 51.07 50.13 49.94 50.54 51.44 51.88 51.81 52.34 53.91 55.15 55.35 55.46 56.90 57.76 57.35 59.06 61.51 62.17 61.82 61.41 61.07 60.41 59.86 59.77 59.97 59.47
40.33 36.56 31.93 30.07 30.20 34.44 38.15 40.73 40.02 39.44 39.69 44.49 43.06 44.66 46.38 47.89 47.88 48.60 51.14 51.46 51.06 51.24 51.47 50.93 51.61 51.53 52.07 50.75 49.96 50.23 52.12 54.61 56.20 57.14 57.04 61.23 61.78 61.18 61.04 60.20 59.72 59.85 59.31 59.07
39.82 40.00 34.04 32.57 27.28 25.31 37.56 42.90 45.59 44.06 35.37 45.43 46.24 45.70 45.45 46.27 41.96 44.29 50.57 51.40 51.37 51.77 50.81 49.27 49.42 49.76 48.33 45.99 45.40 45.94 48.13 49.92 52.48 54.21 57.38 58.08 60.10 61.12 60.45 60.10 59.59 59.54 59.30 58.13
33.27 34.06 30.57 30.73 29.22 34.14 41.22 43.79 44.94 33.62 36.26 45.75 46.32 46.03 45.82 43.94 45.95 48.85 51.28 51.22 51.63 50.78 48.90 47.50 46.96 45.85 43.89 41.16 40.63 41.41 42.75 44.08 44.48 48.33 53.40 51.99 52.73 58.65 60.13 59.52 58.87 58.21 49.12 40.09
32.50 30.96 30.45 31.62 28.62 26.76 43.63 43.57 37.68 43.20 45.60 45.60 45.89 46.95 46.57 47.13 47.63 48.28 49.57 49.56 48.30 46.87 45.93 44.36 43.00 42.23 41.08 38.49 37.45 37.00 37.32 39.54 41.95 44.85 48.86 46.50 45.49 47.19 47.65 46.98 43.86 42.63 39.71 35.96
31.40 36.47 33.84 34.78 33.94 44.33 46.48 45.66 47.17 47.37 45.38 44.67 45.51 46.25 46.22 46.06 45.87 47.01 46.09 45.66 44.14 42.39 40.82 40.28 38.82 38.48 36.87 36.01 35.67 33.99 35.24 38.54 38.90 39.15 38.89 38.78 38.80 38.80 40.31 40.48 38.70 36.86 35.60 33.68
37.92 41.83 37.40 37.29 40.97 42.36 45.34 46.90 46.81 46.72 45.60 45.73 45.45 45.30 45.30 43.55 44.56 43.90 43.91 40.23 38.11 36.90 34.27 34.82 33.30 32.54 31.19 32.64 32.53 33.15 34.16 36.24 34.97 33.33 32.67 32.13 30.91 31.35 33.31 35.79 36.60 35.33 33.11 31.20
38.48 38.76 38.75 38.99 41.35 41.65 42.80 44.59 44.63 44.73 44.43 43.23 44.15 43.18 41.96 41.96 41.14 40.54 36.89 35.06 33.55 32.20 31.27 30.93 29.28 29.22 28.74 29.88 29.84 32.14 32.75 33.59 31.90 30.93 30.44 29.83 29.34 28.89 28.32 28.58 29.09 28.87 30.06 30.90
41.05 37.44 36.71 36.47 41.15 41.56 40.24 42.27 43.90 41.92 40.96 40.86 40.15 39.43 39.92 39.13 37.32 36.74 32.40 31.17 29.94 28.36 28.21 27.11 26.58 26.59 27.19 28.31 29.14 30.69 31.71 32.04 30.51 28.86 28.57 28.23 27.63 27.44 27.45 26.96 26.95 30.21 30.03 30.09

GFSCGP_sfc_wetblb_063.txt.gz
Wetbulb
43.37 35.41 31.24 36.06 40.88 41.97 41.51 40.35 39.09 41.09 46.61 46.83 45.14 44.02 45.32 46.90 46.15 48.61 48.50 48.98 51.68 55.07 56.88 56.94 57.58 59.04 58.11 57.51 58.66 58.76 59.05 59.13 58.96 58.45 58.27 58.53 58.07 58.13 58.64 58.92 59.04 59.79 59.21 59.25
40.49 34.89 39.86 41.58 41.13 41.94 41.35 39.02 38.50 42.82 46.79 45.85 44.54 43.22 43.87 45.38 44.90 46.82 49.47 48.94 49.50 54.91 55.91 56.08 57.57 58.12 57.65 57.11 57.69 58.62 58.48 58.33 58.43 58.32 58.48 58.44 58.22 58.12 58.14 58.43 58.89 59.41 58.34 58.32
38.30 39.94 43.85 41.97 39.46 37.97 39.95 38.40 39.42 40.43 44.47 45.54 44.11 39.20 41.82 46.41 47.31 47.37 48.48 51.51 52.23 55.11 55.05 55.55 56.08 56.73 57.02 56.60 57.27 58.24 57.92 58.16 58.19 58.41 58.17 58.14 58.07 57.86 57.06 57.47 57.89 58.32 57.64 57.85
41.05 43.40 41.41 41.45 40.32 41.28 36.00 42.52 42.27 41.66 40.23 35.36 41.85 31.44 40.47 44.69 45.69 47.04 47.08 48.01 52.24 55.21 56.35 56.27 55.67 55.54 56.62 56.68 57.73 58.90 58.11 57.92 58.08 58.27 57.34 56.59 55.76 54.81 55.95 56.65 57.07 56.75 57.11 56.93
38.89 40.81 40.64 38.96 40.77 43.76 40.08 44.39 42.80 42.44 40.80 38.35 39.03 33.58 37.73 43.45 42.89 45.15 45.74 48.27 49.31 55.16 55.76 55.96 55.94 56.02 56.95 57.52 57.10 57.25 57.80 57.97 57.92 57.83 57.40 56.39 55.55 55.62 56.29 56.31 56.23 56.32 56.37 56.69
40.87 45.54 43.63 42.35 44.55 44.84 45.31 42.54 42.07 41.25 39.95 32.70 37.99 35.39 34.25 39.79 44.07 46.34 48.26 49.48 50.04 51.14 55.97 56.74 57.40 56.97 56.61 57.30 56.68 56.52 57.25 57.47 58.06 57.71 57.15 56.05 55.63 54.31 53.78 53.71 54.47 55.50 56.98 57.03
37.41 39.78 43.31 44.68 39.64 43.24 42.72 37.90 30.78 30.63 30.16 28.69 39.97 36.84 38.55 43.94 47.08 47.73 48.19 48.30 50.05 50.90 56.09 56.20 56.23 56.26 55.92 56.21 55.92 55.94 56.49 56.92 57.86 57.73 56.87 56.21 55.75 55.18 53.22 54.22 54.99 55.14 54.46 56.79
31.16 31.08 39.01 42.95 40.14 39.14 40.21 37.90 31.38 26.41 26.56 31.90 40.32 33.79 38.52 46.70 49.06 49.25 49.01 49.07 50.49 51.39 56.43 56.42 56.81 56.96 56.50 56.71 56.35 56.16 56.00 56.85 57.71 57.53 57.09 56.91 56.39 55.58 54.44 54.43 55.22 55.30 55.36 55.97
32.48 33.72 42.57 42.85 43.96 43.40 39.33 35.61 40.99 34.52 35.39 32.16 36.00 40.08 44.62 46.39 46.81 47.35 47.28 49.21 50.39 51.47 54.67 56.66 57.21 57.69 57.22 56.96 56.66 56.47 56.05 56.60 57.63 57.71 57.31 57.27 57.73 56.87 55.52 54.82 54.79 55.21 55.09 55.89
37.21 31.33 40.33 41.84 44.30 44.47 41.80 43.35 34.15 34.79 27.77 26.86 34.21 35.86 37.00 43.35 45.06 47.29 46.49 46.97 48.91 50.19 52.13 56.63 57.49 57.58 58.15 58.11 57.41 57.03 56.54 55.97 56.69 57.66 57.69 57.75 57.70 57.93 57.51 56.15 55.01 54.58 54.42 55.17
40.06 35.28 35.40 40.29 39.01 38.17 39.70 37.86 37.94 38.01 35.67 28.47 28.26 34.15 44.17 43.36 45.95 45.94 47.83 48.72 48.50 49.32 50.48 52.98 57.37 58.41 58.73 58.57 57.98 57.07 56.80 56.35 55.99 56.44 57.17 57.81 57.51 57.74 57.63 56.58 55.94 55.54 55.22 54.97
39.64 37.40 31.21 34.22 41.12 43.50 42.48 39.98 38.69 33.88 32.88 35.64 33.20 35.27 47.76 47.07 46.40 46.76 47.46 48.28 49.49 51.08 51.88 52.73 53.34 55.02 57.19 58.26 58.17 57.66 57.32 57.28 57.06 56.48 56.37 56.67 57.84 57.78 57.90 57.35 57.42 57.38 55.64 55.77
37.87 34.66 29.54 32.54 38.35 42.52 38.89 40.49 40.52 39.94 38.94 34.63 31.88 34.97 48.29 48.27 47.63 47.36 45.59 46.30 48.52 50.69 51.17 51.92 52.72 53.10 54.27 55.49 57.82 58.46 58.21 57.62 57.84 57.60 56.87 56.48 56.63 56.63 57.21 57.86 58.06 57.88 57.64 56.76
40.41 36.28 33.92 29.57 34.03 38.38 35.94 38.93 40.73 38.56 33.74 34.64 36.36 39.35 43.58 45.57 46.02 47.37 45.16 46.38 49.21 49.64 50.70 51.43 51.51 52.01 52.75 53.78 54.41 57.23 58.31 58.77 58.29 58.18 57.29 56.57 56.24 56.19 56.25 57.40 57.87 57.85 57.94 57.09
38.85 32.62 36.28 36.53 37.63 39.43 37.51 37.11 39.33 37.64 38.04 35.77 38.74 39.58 43.13 45.13 45.96 47.65 46.31 48.50 49.03 49.71 50.29 50.66 50.28 50.81 51.84 52.50 53.38 54.14 54.64 56.44 59.13 58.41 57.91 57.38 57.30 57.36 57.02 56.66 57.42 57.98 57.68 57.68
39.23 31.93 34.87 33.04 38.35 38.29 37.23 38.67 40.36 39.92 40.44 40.65 40.88 39.65 46.84 46.94 47.81 47.63 47.46 48.37 48.30 48.69 49.47 49.79 49.75 50.54 51.23 51.19 50.95 51.37 51.91 53.04 55.87 58.83 58.51 58.57 58.87 58.04 57.61 57.49 57.38 57.79 57.66 57.65
36.21 34.00 31.84 29.02 34.09 35.07 30.58 37.00 39.18 39.39 40.77 40.78 36.50 42.36 46.37 45.69 46.03 46.11 45.87 47.21 47.57 47.83 47.81 48.22 48.75 49.21 48.90 46.75 46.72 45.91 47.92 51.13 52.49 54.18 56.86 59.14 58.87 58.46 58.66 58.79 58.35 58.00 58.06 58.58
34.69 32.74 32.55 27.91 30.79 24.83 36.59 41.91 42.90 40.35 41.02 42.95 43.31 43.97 44.92 45.41 46.80 46.74 47.33 46.78 46.80 46.42 46.36 46.50 46.97 46.91 45.25 43.73 43.13 44.07 46.03 47.45 49.32 48.86 49.25 52.38 54.73 56.87 58.76 58.70 58.77 58.96 59.02 58.52
37.09 33.00 26.90 26.71 28.12 32.34 35.67 39.75 38.74 38.91 38.72 43.53 42.71 43.92 44.66 46.51 45.52 45.37 48.94 48.81 46.20 45.00 44.93 45.09 45.30 43.93 41.88 39.36 39.91 41.48 42.79 43.26 43.78 43.30 44.53 47.53 51.69 50.44 50.89 56.54 57.81 58.60 58.46 58.43
36.47 35.05 29.18 27.16 25.22 23.87 34.53 41.37 44.62 43.15 33.58 43.42 43.39 43.24 43.09 43.82 37.79 41.34 47.27 46.69 44.82 43.56 43.22 42.38 42.50 41.08 38.06 37.30 37.93 38.58 38.55 39.45 38.74 40.39 42.08 45.13 47.77 46.16 46.42 47.98 51.59 58.57 58.35 57.77
29.05 29.42 26.82 26.42 25.20 30.98 40.36 42.77 44.72 32.31 34.83 43.40 44.24 43.25 42.42 40.32 42.48 44.91 44.65 42.35 41.51 39.43 38.95 39.62 39.17 36.80 35.05 35.62 36.11 35.29 36.18 35.29 37.63 39.27 41.49 41.55 41.32 41.25 42.30 43.40 43.89 53.94 52.08 41.04
29.62 28.02 26.90 26.56 23.97 23.66 42.81 41.00 36.75 40.29 43.18 43.24 42.86 42.84 42.60 43.12 44.21 42.34 40.26 37.50 35.78 34.05 34.46 34.40 34.39 33.19 32.72 32.72 32.42 32.30 32.30 34.33 37.03 37.56 36.52 35.16 34.81 35.38 36.66 39.66 40.64 41.17 40.33 38.38
29.97 34.19 29.68 30.57 29.21 39.83 44.57 43.38 44.51 44.22 42.57 42.48 42.35 42.93 43.08 41.56 40.40 37.89 35.45 34.79 32.86 31.66 31.55 32.29 31.98 30.71 30.48 30.30 30.24 30.31 31.48 33.83 34.81 33.46 31.87 31.18 31.43 31.08 31.67 31.96 34.55 36.43 37.08 35.21
37.03 39.71 35.14 34.97 38.17 39.63 42.14 43.41 43.89 43.11 41.95 42.11 41.84 41.78 41.88 39.48 37.99 35.11 33.39 32.03 30.80 30.13 29.37 29.45 28.90 27.47 27.17 28.76 29.65 30.58 31.62 32.72 32.10 30.12 29.33 29.34 28.83 28.32 28.88 29.66 30.07 30.10 32.56 32.59
37.38 36.27 35.81 36.03 39.50 39.89 39.84 40.33 40.59 40.30 41.58 40.17 40.06 38.88 38.57 37.25 33.95 32.16 30.38 30.00 28.92 27.74 27.50 26.96 26.34 26.61 27.04 28.27 28.30 30.00 31.24 31.40 29.44 28.37 27.98 27.61 27.74 27.46 26.79 27.51 28.12 28.02 29.25 29.84
38.61 32.31 33.70 33.49 38.22 38.75 38.42 40.40 40.26 38.40 38.21 37.54 36.56 33.36 33.60 34.19 31.76 29.85 28.08 26.93 26.21 25.00 25.43 25.00 25.63 26.09 27.02 27.53 27.68 28.49 30.40 30.23 29.09 27.20 26.37 26.42 26.08 26.32 25.92 25.58 25.53 29.41 29.98 30.41

GFSCGP_sfc_wetblb_066.txt.gz
Wetbulb
41.33 34.46 32.51 32.63 36.67 39.82 39.45 38.31 36.44 40.17 43.26 41.93 41.47 42.54 45.13 47.78 44.44 43.92 45.84 47.69 52.39 53.97 55.06 56.45 58.62 58.51 57.40 57.16 57.46 58.59 59.34 59.64 60.20 59.69 59.51 59.55 59.22 59.36 58.89 59.27 59.89 60.56 59.92 60.42
38.90 33.78 38.68 39.32 39.06 38.37 38.65 37.81 37.04 41.03 44.04 42.52 42.15 41.41 44.51 45.86 45.33 46.00 47.93 46.32 51.87 52.63 52.89 56.02 57.25 57.33 56.99 57.23 56.71 56.97 58.97 59.28 59.44 59.51 59.34 58.97 59.25 59.08 59.61 59.08 59.16 60.26 59.47 59.28
36.73 39.66 44.00 40.60 38.48 36.85 36.67 35.90 37.71 37.92 41.72 43.83 42.00 39.46 41.96 44.62 45.38 45.35 47.91 48.98 50.63 53.29 52.90 54.65 56.29 56.28 56.18 56.78 56.43 56.67 58.07 58.33 58.40 58.55 58.56 57.52 58.19 57.88 57.42 57.78 58.08 59.51 58.78 58.63
39.25 43.28 41.33 39.94 38.00 39.88 35.56 40.09 39.37 39.59 38.33 32.15 42.23 31.18 40.22 42.59 43.57 45.16 45.41 45.99 47.58 53.67 54.61 54.95 56.09 55.93 55.62 56.07 56.89 56.75 57.31 57.65 57.92 58.29 57.76 57.09 55.91 55.28 56.74 57.22 58.05 58.97 58.26 57.63
36.66 39.37 39.79 37.64 38.85 42.26 38.85 44.47 41.42 40.11 35.93 33.91 38.34 33.54 38.55 41.01 41.08 43.65 44.56 44.38 47.97 53.95 54.58 54.19 55.64 56.17 56.29 56.45 56.45 56.59 57.05 57.50 57.76 57.91 57.65 57.02 56.17 56.55 56.80 57.38 57.29 57.82 57.48 56.92
38.67 44.01 42.47 40.67 43.35 43.88 44.55 41.61 40.63 39.27 36.28 28.24 36.50 35.36 34.42 37.15 42.38 44.30 46.39 45.72 48.17 53.48 54.91 54.83 55.73 56.68 56.12 56.35 56.69 56.13 56.21 56.80 57.42 57.50 57.55 56.70 56.00 55.73 55.39 55.75 55.22 55.99 56.13 55.91
33.40 37.19 42.02 44.78 39.87 43.08 41.61 37.25 30.56 29.49 27.69 27.67 39.22 35.84 38.07 42.69 44.68 46.46 46.80 47.26 47.78 54.15 54.44 54.17 53.33 55.02 55.70 55.80 55.88 55.82 55.68 56.04 57.15 57.06 56.99 56.57 55.49 54.95 54.65 54.59 55.33 55.39 55.05 55.15
26.75 26.61 36.44 43.19 40.09 37.91 38.28 37.55 30.80 26.15 26.81 29.89 39.30 32.44 37.04 45.39 47.89 47.78 47.97 46.81 48.59 53.61 54.42 54.32 54.37 54.57 55.74 55.78 55.42 55.74 55.48 55.74 56.53 57.08 56.66 56.46 55.88 54.29 53.96 54.59 55.16 54.84 55.72 55.89
28.65 31.58 39.04 42.07 43.22 41.15 36.66 35.18 39.71 32.82 34.76 30.38 35.02 38.73 44.46 45.45 45.22 46.24 46.06 47.15 49.48 53.05 53.87 54.63 55.23 55.01 55.40 55.54 55.22 55.44 55.54 55.96 56.57 56.84 57.03 55.88 55.36 54.96 54.01 53.51 54.47 54.85 54.34 56.19
34.40 29.20 38.19 40.53 43.37 43.22 40.68 42.48 33.62 35.50 27.61 25.89 33.01 34.69 36.93 41.09 43.10 45.56 44.73 45.15 48.76 53.27 54.12 54.96 55.54 55.58 55.66 56.10 55.97 55.69 55.73 55.65 56.28 56.84 57.24 57.07 56.29 56.01 55.12 53.60 53.49 54.63 54.91 54.14
37.78 33.40 32.90 38.53 37.23 36.23 37.89 36.50 36.88 36.98 35.12 29.10 28.02 34.14 44.39 43.28 43.77 44.68 46.04 47.74 48.36 49.27 51.18 53.66 54.98 56.00 56.20 56.40 56.14 55.64 55.51 55.34 55.94 56.66 56.58 57.04 57.31 57.45 56.89 55.77 54.01 53.93 54.69 53.65
38.43 35.57 30.90 34.05 40.08 42.36 40.92 38.61 38.34 33.04 31.82 34.45 33.07 33.73 46.68 46.53 46.04 45.30 47.12 47.88 48.73 50.16 50.83 51.73 53.34 55.27 56.27 56.37 55.91 55.10 55.00 55.33 55.92 56.52 56.43 56.32 57.12 57.78 57.41 56.90 56.60 55.27 53.93 53.93
35.75 32.50 28.43 30.67 36.08 39.83 37.16 39.58 40.25 39.55 37.42 33.65 31.40 34.41 47.10 47.86 47.20 47.50 46.02 47.79 48.82 49.39 49.83 50.66 51.53 51.83 52.58 53.61 56.92 56.99 56.18 55.86 56.03 55.85 55.83 55.93 56.30 56.51 56.63 57.01 57.33 56.69 55.82 54.87
39.63 34.01 32.12 28.91 33.36 37.01 35.40 38.25 39.30 37.87 33.43 33.13 33.25 37.87 43.08 44.68 44.80 46.30 45.31 47.69 48.76 48.52 48.84 49.23 49.92 50.81 51.14 51.60 51.39 52.76 54.95 56.52 56.92 56.68 55.65 55.18 55.35 56.37 56.37 56.73 56.92 57.38 57.35 56.59
36.47 29.06 34.32 35.50 36.78 36.80 37.07 36.98 37.46 36.59 36.57 33.98 36.78 38.22 43.30 45.59 44.21 46.36 47.55 47.91 47.60 46.86 48.01 48.83 48.46 47.63 47.15 46.65 47.17 47.67 48.67 50.87 52.65 57.08 56.51 56.05 56.24 56.47 56.49 56.35 56.51 57.09 57.04 57.32
37.64 29.30 33.20 31.36 35.85 35.31 34.03 38.18 38.50 37.89 39.27 38.23 39.05 39.24 46.14 47.27 47.49 46.22 47.01 46.93 45.54 45.53 46.64 47.35 46.71 45.05 43.52 43.37 43.52 44.91 46.21 47.44 50.11 49.91 49.41 56.02 57.58 57.44 56.81 56.29 56.17 56.17 56.43 56.75
34.42 32.66 28.87 26.37 33.52 32.69 29.69 35.43 38.01 39.48 41.42 40.73 37.05 41.74 45.83 44.20 44.75 44.78 45.19 44.93 44.30 44.35 45.23 44.91 43.37 41.39 40.07 39.56 40.75 41.60 43.22 45.23 44.74 45.09 45.78 47.44 48.60 52.41 56.79 57.67 56.95 55.98 55.62 56.29
32.44 30.80 29.79 26.39 29.29 21.50 35.20 39.65 40.32 40.33 41.17 42.10 42.16 43.37 45.57 45.08 45.92 47.12 45.57 43.49 42.49 43.11 42.97 41.92 40.24 38.42 37.57 37.71 38.08 39.83 40.42 40.57 40.63 40.85 41.90 43.96 45.43 48.04 48.18 49.19 52.32 56.99 57.04 56.59
36.48 31.39 26.07 23.99 24.88 29.91 33.54 38.99 38.16 38.28 36.64 42.31 40.81 43.94 46.14 46.03 43.52 40.96 43.09 42.37 41.19 40.66 41.02 39.41 37.60 36.17 35.47 35.51 36.61 37.21 36.92 36.84 37.08 38.09 39.09 40.93 42.47 42.83 43.34 44.39 45.71 47.12 47.88 55.78
34.94 32.81 26.80 25.13 23.24 20.62 33.93 40.44 43.25 42.66 33.97 42.67 43.92 43.35 43.88 43.48 35.12 36.49 39.71 38.42 37.26 37.63 37.84 36.75 35.29 33.85 32.92 33.10 34.79 34.97 34.07 34.23 34.51 36.48 37.23 37.68 37.58 37.50 38.48 40.38 41.09 43.44 44.17 45.52
26.98 26.68 25.49 24.18 22.73 27.99 38.54 41.82 43.62 30.32 34.34 42.41 42.56 42.84 42.19 38.77 38.66 37.69 37.10 35.04 35.19 34.46 34.56 35.08 33.03 30.66 30.29 31.07 32.93 32.23 32.72 32.61 35.17 35.85 35.00 33.58 33.44 33.57 35.29 35.21 38.07 40.72 41.18 40.94
27.46 26.07 24.17 26.06 23.64 21.89 40.59 41.27 35.14 39.86 42.99 42.44 41.82 41.91 39.06 37.85 36.99 35.45 34.04 32.60 31.96 31.03 31.16 31.77 30.34 29.11 29.72 30.46 31.35 30.41 30.64 33.21 33.53 32.91 31.84 30.88 30.51 31.06 31.78 32.28 32.87 36.09 36.80 35.76
29.78 33.22 29.36 29.13 27.77 38.33 39.46 39.43 42.16 43.72 41.61 41.52 41.49 41.14 39.21 36.49 34.54 33.73 31.65 30.44 29.75 28.79 28.10 28.94 27.98 27.66 28.10 29.22 30.07 29.27 30.55 31.42 30.79 29.58 28.57 29.13 28.86 28.99 29.87 29.50 29.66 31.04 33.18 32.02
36.95 39.17 34.77 34.68 37.07 37.31 38.09 39.24 39.81 39.98 37.92 38.18 39.70 38.79 37.45 34.83 33.11 31.59 30.41 28.35 26.95 26.23 25.66 27.05 26.75 25.93 26.00 27.82 28.16 29.46 30.17 29.67 28.09 27.19 26.75 27.12 26.75 26.99 27.69 28.62 29.05 28.83 28.99 29.07
36.59 36.48 34.93 36.38 37.37 38.18 38.46 38.52 39.06 37.83 37.66 35.24 34.60 35.09 33.94 31.61 29.71 28.22 26.83 25.80 24.96 24.73 25.05 25.58 25.10 25.09 25.20 26.41 26.79 28.08 29.05 29.53 27.08 26.51 25.85 25.68 25.54 25.54 25.33 26.26 27.46 28.26 29.22 29.33
35.80 31.51 30.53 31.27 37.22 35.04 36.93 38.59 38.88 35.26 32.63 32.92 31.55 29.75 30.43 29.67 27.31 26.23 25.06 24.79 23.50 23.18 23.39 23.02 23.68 24.06 24.23 25.05 25.44 26.00 27.86 26.62 25.09 24.19 23.74 22.81 22.78 22.47 23.13 23.67 23.49 26.44 27.99 29.55

GFSCGP_sfc_wetblb_069.txt.gz
Wetbulb
40.79 34.25 30.85 32.27 34.52 37.07 37.82 35.41 33.65 36.13 43.43 39.23 38.43 38.84 41.50 45.05 43.82 42.98 43.17 41.91 49.91 52.55 54.45 55.36 57.48 57.47 57.31 56.89 56.67 58.97 58.74 60.38 60.66 60.22 59.48 59.14 58.46 58.66 58.74 58.68 60.15 60.46 61.69 60.45
37.82 32.92 37.87 39.00 37.39 35.49 34.85 33.81 34.73 39.37 43.78 40.19 37.77 37.98 42.09 44.40 44.63 44.13 45.09 43.04 46.01 52.01 51.19 56.07 57.05 57.16 57.41 57.23 57.39 57.67 58.04 59.47 60.40 60.39 60.27 59.81 59.85 59.43 59.26 58.69 58.74 60.30 60.22 61.28
34.53 37.88 42.57 39.63 36.83 35.23 34.85 32.65 35.02 35.88 40.02 40.23 38.27 36.66 39.41 44.71 43.99 44.75 44.92 45.67 47.95 51.53 51.35 55.16 56.23 56.42 57.04 56.32 56.69 56.89 57.77 58.34 59.39 59.91 58.65 58.37 58.23 58.36 58.50 58.10 58.53 59.81 59.63 59.97
37.94 41.66 40.46 39.23 37.54 37.69 31.89 38.71 39.48 36.41 34.06 28.47 36.92 27.91 37.11 41.74 42.77 42.93 44.50 44.28 45.77 51.42 53.08 54.81 55.63 55.77 56.09 56.45 55.87 56.17 58.20 57.87 58.41 59.07 58.42 57.56 57.03 56.33 57.49 58.26 58.41 59.33 59.07 59.14
35.03 38.22 38.69 36.68 38.15 41.00 36.31 42.91 40.57 38.96 34.56 32.09 33.83 30.20 35.01 39.23 39.92 41.60 43.37 44.17 44.69 51.41 53.04 53.79 55.34 55.97 56.69 56.98 56.38 57.01 57.04 56.77 57.58 57.83 57.81 57.22 56.22 56.55 57.34 57.32 57.39 58.45 58.41 57.83
37.34 42.19 40.35 39.26 41.69 42.24 42.53 40.82 39.79 39.16 34.45 27.02 32.82 32.34 32.67 38.30 41.37 43.12 45.23 45.87 44.28 49.46 52.91 53.96 55.91 56.25 56.06 56.51 56.49 56.13 56.01 55.23 56.67 57.06 56.67 55.21 55.96 55.67 55.97 56.47 56.25 57.39 58.03 57.05
31.63 34.69 39.94 43.11 38.03 41.75 40.66 36.96 29.29 27.34 25.64 25.38 35.99 33.39 36.24 42.44 44.48 44.65 45.26 46.98 45.14 48.71 52.22 52.76 54.14 54.79 55.02 55.69 55.87 55.69 55.71 55.22 55.77 56.90 56.23 55.39 54.31 55.41 55.79 55.89 56.33 56.31 56.67 56.25
25.35 24.34 35.41 41.68 38.48 36.42 36.89 37.54 30.65 23.96 25.45 27.72 37.05 30.93 36.98 45.37 46.31 47.22 47.41 47.93 47.46 47.02 52.52 52.89 54.45 54.86 55.04 55.62 55.77 55.23 54.92 55.21 55.57 56.28 56.89 56.84 55.34 56.01 55.31 56.16 56.21 56.57 56.69 56.36
26.70 29.17 36.70 41.36 42.05 40.93 37.66 33.90 39.39 33.05 34.31 28.53 32.37 37.65 43.04 44.92 43.53 45.46 44.63 45.15 45.42 48.23 52.64 52.28 54.19 55.02 54.84 55.66 55.45 55.08 55.00 55.53 55.65 55.81 56.45 56.72 55.95 53.65 53.69 54.59 55.06 56.07 57.14 56.49
33.27 27.87 35.76 38.80 41.26 41.44 39.02 41.77 33.33 34.93 27.36 24.73 31.28 35.13 35.71 39.76 40.30 43.90 44.05 44.04 47.32 50.35 51.72 52.44 53.53 54.80 55.44 55.47 55.70 55.40 55.70 55.56 55.52 56.06 55.59 55.65 55.75 55.69 53.28 52.61 52.98 53.23 53.39 54.49
36.34 33.41 31.23 37.26 35.46 35.23 37.52 36.91 36.22 36.71 35.06 28.09 26.86 33.52 42.98 43.17 43.18 42.27 44.54 46.04 46.49 48.59 51.12 52.61 53.45 54.27 54.90 55.34 55.53 55.45 55.67 55.85 55.60 55.75 56.39 55.68 55.59 54.80 54.09 52.98 52.44 53.28 53.46 53.07
38.59 35.95 30.06 33.11 38.30 41.31 40.04 37.77 38.07 32.24 31.29 34.04 33.59 33.70 46.06 45.66 44.47 44.36 45.08 46.50 47.78 49.71 50.97 52.46 53.54 54.54 55.04 55.21 55.14 55.57 55.64 55.08 56.28 56.90 56.62 55.97 55.51 55.77 55.29 54.78 54.36 53.24 53.61 53.62
35.69 32.29 27.49 28.99 33.70 38.75 36.92 39.02 39.12 38.51 37.40 32.54 30.61 32.89 46.60 46.57 45.04 45.19 44.93 45.74 47.01 48.18 49.03 49.41 49.32 49.18 50.91 54.50 56.07 55.71 55.77 55.06 55.73 55.97 56.20 55.91 55.11 55.47 55.55 55.84 56.42 56.06 54.48 53.85
38.99 33.07 30.12 25.30 31.31 36.17 34.08 35.76 39.16 38.22 33.09 32.78 33.02 38.13 42.08 43.34 44.13 44.34 45.93 45.83 46.55 47.20 46.63 45.85 45.34 45.63 46.97 48.19 49.39 50.24 50.42 51.24 52.13 55.63 55.77 55.35 55.59 55.67 55.91 56.07 56.11 55.78 55.79 55.16
34.31 28.26 32.59 33.48 34.18 34.72 35.39 34.82 37.15 36.51 37.03 33.83 34.89 35.97 41.33 43.17 44.65 45.02 47.14 45.89 45.85 45.04 44.30 42.78 41.98 41.88 42.85 43.16 44.50 46.15 46.24 47.21 48.07 51.77 52.08 53.98 55.98 56.49 56.93 56.57 56.16 56.42 55.96 55.75
36.73 28.45 31.11 29.29 34.30 32.91 30.82 34.35 37.45 38.24 37.96 38.25 38.09 37.10 45.95 45.45 46.02 45.64 46.30 44.85 44.08 43.72 42.45 40.86 39.76 39.09 38.52 39.28 40.38 41.74 42.14 43.07 43.45 43.99 44.93 46.98 48.77 53.03 54.86 56.63 56.73 56.63 56.66 56.81
33.91 31.39 28.37 25.32 30.86 29.67 26.79 33.37 35.01 38.59 38.95 38.18 36.15 40.17 45.65 44.87 44.36 45.64 44.12 43.98 42.93 41.89 40.72 38.88 37.75 37.04 36.67 36.67 38.53 37.96 38.70 40.09 40.41 40.48 41.65 42.97 44.28 45.24 46.10 47.33 48.82 54.37 55.83 56.48
32.00 30.06 28.37 24.72 27.34 18.40 31.36 37.54 39.13 37.34 40.31 41.94 41.61 43.17 44.81 44.69 45.39 44.39 44.79 43.23 41.72 40.33 38.03 36.62 36.34 35.56 35.20 35.71 36.90 37.35 36.74 36.75 38.09 37.83 38.63 39.31 39.44 39.79 41.17 42.90 43.89 44.38 46.39 47.43
35.00 30.26 24.96 21.46 22.39 27.26 31.05 37.75 36.89 35.36 35.99 41.58 40.81 43.27 44.79 43.20 39.86 37.33 39.91 39.90 39.09 37.84 36.07 34.60 33.87 33.35 32.94 33.30 35.36 34.82 34.55 35.28 35.64 35.23 35.26 35.06 35.60 35.68 37.30 38.31 38.44 39.82 42.98 43.90
34.15 31.91 26.62 25.22 21.63 17.60 29.31 38.24 42.80 41.32 31.85 41.48 42.35 43.62 41.98 42.34 36.64 34.49 36.96 36.49 35.95 35.66 34.08 32.43 32.03 31.46 31.03 32.05 33.55 32.76 32.60 33.25 32.67 32.80 32.17 32.07 31.75 32.58 33.73 34.20 34.99 36.62 39.00 40.86
27.02 26.84 25.64 24.52 22.05 25.89 34.79 39.50 41.92 29.20 32.88 40.84 42.36 45.38 42.30 39.80 38.64 35.48 35.27 33.95 33.71 33.75 32.64 32.24 30.79 28.97 29.90 32.02 32.32 31.29 31.83 30.88 31.40 31.51 31.03 29.98 29.85 31.29 31.74 31.95 32.78 33.92 35.57 36.85
26.59 24.91 23.54 25.74 23.50 20.22 37.17 39.22 33.17 38.14 41.51 40.70 39.42 37.58 35.47 35.05 34.79 33.73 32.83 31.41 30.58 29.52 29.50 29.81 28.37 28.14 29.57 30.57 31.04 29.85 29.06 30.48 30.34 29.82 28.97 27.90 28.08 29.46 30.08 29.91 30.95 31.88 32.72 31.91
22.21 31.68 28.12 28.31 27.28 36.29 37.36 36.42 39.89 42.22 41.23 40.89 39.66 38.28 37.12 34.91 32.94 32.14 29.85 28.11 26.98 26.59 27.08 27.77 27.07 27.36 27.74 28.47 29.75 28.25 27.97 28.57 28.39 27.67 26.91 26.85 26.63 27.16 28.65 28.16 28.24 28.65 29.62 29.09
36.29 38.70 33.39 34.26 36.07 36.14 36.30 36.91 37.00 36.31 36.12 38.47 39.06 38.00 36.38 32.73 31.48 29.26 27.20 26.29 25.13 25.24 25.38 26.65 26.39 25.63 25.82 27.18 27.86 28.11 28.90 27.78 27.21 25.83 25.51 25.65 25.94 24.98 25.07 26.51 26.87 26.49 27.05 27.09
35.50 35.90 32.17 35.06 36.67 37.56 38.04 37.08 36.05 35.05 33.95 32.64 33.15 32.99 31.80 30.26 27.85 26.93 25.30 24.43 24.14 23.88 24.61 25.21 24.58 24.12 24.53 25.45 25.91 27.34 26.24 26.74 25.01 24.06 24.10 23.44 23.64 24.02 24.04 24.76 25.11 25.05 26.45 26.67
34.27 30.57 29.40 30.34 35.55 35.44 34.70 36.27 36.29 32.84 31.21 31.27 29.40 27.83 28.75 27.90 25.89 25.03 23.21 23.12 22.51 21.58 21.62 21.48 22.11 22.65 23.12 23.97 24.28 25.11 26.94 26.08 24.68 23.50 22.90 22.14 22.25 22.10 21.96 22.22 22.50 25.73 25.92 26.81

GFSCGP_sfc_wetblb_072.txt.gz
Wetbulb
40.31 34.77 31.27 33.33 33.52 35.21 34.91 33.19 32.24 34.01 39.84 38.34 37.49 36.87 39.81 42.20 41.48 41.22 42.39 41.23 44.43 50.41 55.18 54.70 56.60 57.16 56.20 55.34 56.90 59.03 59.64 60.76 60.88 60.01 59.12 58.69 58.15 58.51 59.09 60.22 61.54 61.73 61.08 59.56
37.58 33.11 37.22 38.05 36.78 34.38 33.23 30.67 29.95 35.16 40.03 39.26 36.67 35.89 39.51 41.85 41.40 43.07 43.40 43.66 43.36 47.19 50.71 54.49 56.04 56.64 56.52 56.72 57.02 57.63 58.81 60.47 60.75 60.58 59.58 59.84 59.27 59.01 59.02 59.15 60.39 61.49 60.35 58.69
33.73 36.51 41.79 39.17 36.82 34.44 33.91 31.54 31.50 32.05 37.00 38.49 35.90 35.32 38.93 41.91 42.23 43.30 43.89 44.25 43.95 46.29 49.84 53.77 55.34 56.42 57.35 56.66 57.23 56.88 57.98 59.62 60.46 60.30 59.43 59.13 58.47 58.85 58.03 58.15 58.81 59.88 61.11 59.57
37.42 40.73 39.86 38.29 37.05 36.73 31.01 37.25 36.12 34.78 32.69 26.42 35.50 26.99 35.11 38.20 40.43 42.60 43.82 43.28 43.44 46.29 50.27 53.81 54.65 55.86 56.92 56.94 57.58 57.10 57.50 58.31 59.59 59.57 58.84 58.03 57.13 56.24 57.84 57.97 58.72 59.52 60.37 60.58
34.69 37.37 37.54 36.93 37.29 39.53 35.57 40.25 39.29 38.33 33.89 30.86 31.75 30.44 33.18 37.76 37.77 41.03 43.58 44.63 44.17 47.92 49.95 53.43 54.44 55.56 57.19 57.38 56.72 55.92 57.24 57.67 58.54 59.08 58.92 58.44 57.68 57.21 57.76 57.92 57.84 58.82 59.11 59.87
37.62 40.64 40.16 38.67 40.35 40.70 41.13 39.00 39.01 36.96 33.65 27.03 31.92 30.82 30.29 33.93 39.19 42.55 44.47 45.55 45.92 45.20 49.55 52.79 54.85 55.86 56.68 57.09 56.15 56.38 56.75 55.78 56.96 57.72 58.27 57.61 56.32 55.71 56.10 56.32 56.78 57.83 57.75 58.24
30.63 32.76 38.56 41.26 35.91 39.44 38.14 36.15 27.91 26.13 25.94 25.51 33.82 30.15 33.60 39.34 42.22 43.64 44.12 45.22 46.12 46.88 47.84 52.30 54.02 55.09 55.76 55.49 55.78 55.85 55.23 54.60 55.31 56.08 56.84 56.68 56.12 55.88 56.00 56.16 56.44 56.56 57.12 56.66
24.57 24.43 33.64 40.06 36.61 33.90 35.49 35.43 27.38 23.04 23.49 26.46 34.99 27.86 34.08 42.54 43.87 45.97 45.72 46.17 44.66 45.29 48.07 51.95 54.06 54.72 55.48 55.02 55.22 55.78 55.07 54.81 54.28 53.76 54.48 55.49 53.88 54.54 56.21 56.73 56.92 57.18 57.21 57.28
25.27 27.50 34.74 39.67 40.08 38.55 35.44 33.92 38.67 33.33 34.59 29.15 30.56 35.04 40.70 44.65 43.57 44.27 44.67 45.65 45.29 45.41 45.93 50.83 53.71 54.40 55.29 55.16 54.85 55.26 55.10 55.28 55.36 54.22 54.00 53.72 53.68 54.27 55.41 56.30 56.48 56.98 57.42 57.52
31.65 26.66 33.92 37.85 40.52 40.43 38.39 41.03 32.78 33.18 26.53 23.96 30.37 33.36 34.55 39.51 40.12 42.57 43.34 44.49 46.15 50.80 50.78 52.63 53.41 54.70 55.23 55.75 55.68 55.58 55.01 55.12 55.22 55.64 53.64 53.88 53.67 53.07 53.03 54.53 55.03 55.67 56.33 56.65
33.35 32.00 30.88 37.06 34.44 33.74 35.92 35.10 35.69 35.82 33.23 28.85 27.66 32.06 42.38 41.14 41.91 41.60 43.24 45.79 47.79 50.91 51.26 52.33 53.67 54.64 55.46 55.46 55.36 54.83 54.89 55.12 54.99 55.45 55.66 53.77 53.42 53.11 52.23 52.26 52.71 54.54 54.66 55.05
37.81 35.36 29.22 31.71 37.28 39.61 38.98 36.69 36.31 31.82 31.37 34.15 33.27 33.03 45.54 44.49 44.33 44.70 44.53 45.92 46.79 47.52 48.97 52.49 53.25 54.38 53.98 54.42 55.41 54.80 55.16 55.06 55.35 56.05 55.71 55.65 55.13 53.65 52.42 52.13 52.01 52.86 53.81 53.41
36.70 32.95 27.75 28.75 32.71 37.81 35.72 38.05 38.31 36.94 34.95 32.50 29.22 32.20 46.32 45.98 45.01 45.95 44.05 44.54 44.07 43.97 44.41 45.53 47.25 48.26 51.01 53.51 54.76 54.70 55.13 55.86 56.00 56.22 55.68 55.39 55.33 54.71 53.24 53.39 53.32 52.62 52.74 53.05
38.67 32.20 28.62 24.88 27.87 34.54 32.07 34.56 36.50 35.05 32.22 31.60 32.04 36.80 41.52 42.98 43.15 44.78 43.87 43.63 42.48 41.98 42.24 42.22 42.42 43.80 45.70 46.93 47.74 48.61 48.33 49.40 50.35 55.05 56.19 55.51 55.35 55.79 55.72 55.86 55.33 54.64 53.77 53.09
33.88 28.40 31.43 31.67 32.89 33.63 33.19 33.15 34.22 33.82 34.84 32.42 34.82 36.17 40.09 42.87 44.04 45.26 44.28 43.75 41.38 39.51 39.27 39.80 40.01 40.63 42.12 42.13 43.08 42.53 43.37 43.78 46.15 48.02 48.08 48.64 51.77 56.48 56.63 56.44 56.58 56.59 55.82 55.49
36.38 29.43 30.16 28.21 32.14 31.06 29.31 30.46 31.40 33.68 36.88 36.78 36.92 36.07 43.07 46.26 46.44 45.98 44.09 42.61 40.42 38.68 38.05 37.46 37.38 37.19 37.64 38.43 37.95 38.66 39.71 40.64 42.14 42.03 42.60 43.52 45.03 46.96 46.98 47.67 49.23 54.95 56.50 56.45
32.55 30.19 27.43 24.84 28.41 28.09 24.45 30.08 30.54 33.44 38.90 38.09 33.18 38.29 44.09 43.84 44.54 44.44 43.81 41.93 39.54 37.88 36.95 35.86 34.94 34.58 34.93 35.94 36.42 35.75 37.16 38.95 38.38 38.10 38.13 38.35 39.57 40.54 41.23 43.79 44.73 44.11 45.32 47.63
30.77 29.56 28.17 24.94 26.46 16.56 28.55 35.14 36.19 36.42 38.39 40.58 41.13 42.86 43.66 42.36 44.58 44.80 44.66 41.70 38.71 36.74 35.16 33.94 33.36 33.10 33.55 35.10 35.10 35.66 36.07 36.00 35.16 34.14 34.15 34.67 35.51 36.27 38.02 38.59 38.27 39.50 41.95 43.95
33.72 29.40 24.63 20.84 21.77 25.43 28.67 35.12 34.84 34.42 33.54 40.06 41.15 42.67 39.65 38.76 38.72 36.19 39.22 39.02 36.51 35.02 33.38 32.31 32.09 31.81 32.70 32.81 33.87 34.26 33.29 32.88 32.06 31.07 30.82 31.05 32.70 33.87 34.39 34.38 35.24 37.12 38.63 40.75
32.24 31.01 26.25 24.94 20.29 15.33 27.15 35.48 38.84 38.66 28.71 39.35 40.05 41.04 38.72 41.19 34.81 34.18 36.73 36.38 34.15 33.28 32.33 30.92 30.91 31.16 31.24 31.54 33.19 32.51 30.41 29.86 29.27 29.68 28.84 29.68 31.80 32.03 31.59 32.53 33.60 35.57 37.21 37.10
26.96 27.41 25.24 23.99 20.65 25.00 32.24 36.33 39.29 26.55 28.69 37.36 38.14 42.17 40.64 39.26 38.10 35.80 34.10 32.60 32.32 31.62 30.86 30.62 30.01 28.98 29.62 31.46 31.39 29.42 29.06 28.11 28.86 28.97 28.44 28.27 29.65 30.38 30.74 31.23 32.46 33.25 33.49 32.40
25.66 24.14 23.72 26.42 23.65 19.86 35.41 36.55 30.47 35.84 38.21 36.88 36.33 37.28 33.89 33.64 33.12 31.65 30.67 29.43 28.88 27.90 27.96 28.69 27.93 27.86 28.95 29.90 29.77 26.57 26.52 28.28 28.40 27.90 26.80 26.05 27.05 28.64 28.90 28.89 29.73 29.59 30.85 29.63
21.94 28.51 27.51 28.47 27.00 35.26 35.80 34.44 36.23 41.02 39.75 37.27 35.86 35.31 34.15 32.14 30.77 29.63 27.67 27.00 26.62 26.55 26.89 27.78 27.30 26.84 27.47 28.08 28.13 26.98 26.42 27.49 26.92 26.22 26.01 25.54 25.72 26.07 26.89 26.46 26.91 27.36 27.23 26.95
33.35 37.27 32.04 32.57 34.86 34.64 35.42 35.22 34.70 34.48 33.99 36.63 35.48 34.93 33.13 30.46 28.80 26.99 26.52 25.67 25.35 25.71 25.69 26.42 25.89 24.92 24.92 26.58 26.69 26.12 26.83 26.09 25.61 23.94 24.20 25.24 24.75 24.63 25.55 25.84 26.27 25.73 25.12 24.20
33.87 34.64 31.02 33.54 35.69 36.58 36.45 36.08 35.08 32.92 32.13 31.42 31.42 31.23 30.07 28.32 26.66 25.55 24.42 23.90 23.46 23.70 24.09 24.50 24.08 23.74 23.61 24.79 24.90 26.26 25.84 25.49 24.08 23.68 23.61 22.97 23.26 24.00 23.47 24.22 24.44 24.39 25.65 25.48
33.04 30.59 27.96 29.09 33.58 33.82 31.67 33.16 33.04 30.26 29.68 29.38 27.78 26.78 27.20 26.41 24.23 23.91 22.14 22.20 21.11 20.35 20.98 20.72 21.21 21.31 21.58 22.42 22.33 22.67 24.49 25.67 24.12 22.52 21.80 20.79 21.33 21.01 21.25 22.01 21.49 24.98 25.30 25.94

GFSCGP_sfc_wetblb_078.txt.gz
Wetbulb
43.77 39.60 36.86 37.90 40.55 40.97 39.66 36.42 36.22 39.24 42.42 41.23 41.33 42.88 45.87 48.13 49.81 50.17 51.24 51.80 52.46 53.36 55.66 57.01 59.96 63.99 65.47 66.63 66.74 66.08 63.66 64.18 63.73 62.96 61.46 61.57 62.07 62.38 62.25 62.92 63.26 63.17 62.84 63.10
41.57 37.33 41.64 41.99 41.23 39.61 38.83 36.86 36.42 40.22 43.15 42.63 42.56 43.17 46.53 47.32 47.74 49.40 50.96 51.79 52.59 53.46 54.23 55.49 59.33 63.24 64.46 65.35 66.30 65.42 64.51 63.45 63.54 63.15 61.69 61.78 61.60 62.23 62.99 63.19 63.17 63.46 64.62 63.24
38.75 40.37 43.51 42.04 40.26 38.36 39.38 38.41 38.76 38.99 42.19 44.42 43.62 42.10 44.71 47.67 48.54 48.98 50.78 52.21 53.00 53.58 53.60 55.13 58.07 62.15 63.94 64.77 65.40 65.01 64.82 65.00 64.27 64.50 63.44 64.19 62.14 61.92 61.30 61.66 62.10 62.80 64.39 61.98
40.33 42.74 40.39 40.47 39.52 41.19 36.35 41.72 40.28 39.33 39.20 36.21 43.09 34.71 42.81 45.44 46.47 47.51 48.98 51.36 52.68 53.76 54.32 55.65 57.14 60.39 62.51 64.35 65.85 65.45 65.32 63.82 64.71 64.83 63.04 62.47 60.28 58.24 61.12 61.35 60.65 62.50 62.22 60.67
37.53 39.68 39.82 37.61 38.99 42.34 38.19 42.33 40.49 40.75 39.57 39.51 40.01 37.56 42.20 44.90 43.88 46.48 49.30 51.34 53.21 54.78 54.87 56.26 57.28 59.49 62.43 64.52 64.79 65.56 65.15 63.53 64.55 64.07 63.41 62.25 60.13 59.94 61.83 61.13 60.06 61.04 60.62 59.77
40.82 44.56 43.29 42.53 43.47 43.11 43.07 40.36 40.37 41.18 39.74 32.34 38.70 38.25 41.01 42.99 44.66 47.32 50.16 51.24 53.25 54.68 56.05 56.53 57.92 60.40 62.02 64.20 64.57 64.09 63.63 62.21 63.53 63.63 63.04 61.56 60.22 60.07 60.92 59.96 60.03 59.40 59.56 59.40
38.22 39.40 43.46 43.90 39.26 42.37 41.36 36.60 31.00 31.14 29.98 31.34 39.56 37.57 40.71 45.75 48.12 48.88 49.43 52.32 54.47 56.08 56.75 56.71 58.11 59.51 61.48 62.82 61.35 61.28 62.74 60.70 61.58 62.69 62.32 62.16 62.09 61.18 59.91 60.64 59.33 59.39 59.21 58.68
33.30 31.47 37.43 42.57 40.20 36.54 37.67 36.74 31.90 25.66 29.08 33.75 39.93 34.85 41.97 47.75 49.68 50.89 51.90 53.74 55.61 56.90 57.65 56.11 58.94 59.88 60.98 62.29 58.69 59.34 60.91 59.50 60.47 61.79 61.84 61.94 61.67 60.09 59.85 60.51 61.73 61.19 59.86 60.24
33.99 33.64 40.19 42.26 42.68 41.86 38.80 35.60 41.32 34.72 36.32 31.82 36.61 41.23 45.81 48.28 48.41 50.01 50.94 51.39 51.87 55.28 57.60 56.32 58.06 60.46 61.10 61.52 57.19 58.79 59.26 58.88 59.59 60.04 61.46 62.11 61.46 61.50 60.22 60.48 60.31 59.59 60.35 60.18
37.95 32.01 39.27 41.51 43.86 43.03 41.64 43.42 33.29 35.92 27.54 27.54 35.83 37.66 38.92 43.21 45.36 48.16 48.30 48.23 47.97 50.32 55.56 56.35 58.15 59.30 61.15 59.11 57.57 59.16 59.54 58.70 58.94 59.32 59.38 60.08 61.02 61.18 60.25 59.75 59.51 60.92 60.83 60.39
39.93 37.25 36.42 40.98 38.85 37.88 38.66 37.60 37.77 36.35 35.98 30.79 30.67 35.22 41.95 41.20 43.08 43.87 45.68 45.18 44.93 46.13 48.25 55.89 57.47 58.51 57.95 57.07 57.39 57.57 58.95 59.15 58.12 57.99 58.50 59.68 59.45 60.07 59.55 59.14 58.93 59.27 59.62 59.87
40.79 37.41 32.98 36.12 42.10 43.76 42.44 39.38 39.44 33.69 31.27 35.26 33.89 36.68 44.79 42.87 41.96 42.11 41.91 42.08 43.14 43.86 45.27 46.47 53.45 55.47 55.68 56.21 56.44 57.17 58.68 59.02 59.70 57.73 57.95 58.73 59.14 60.12 60.14 59.25 58.96 59.29 59.01 59.35
37.62 35.06 30.78 32.78 38.04 41.65 38.94 39.96 38.08 35.62 35.88 32.58 31.06 36.00 43.59 43.82 41.79 41.50 40.47 39.83 40.16 41.20 41.49 42.49 44.07 44.94 45.47 49.97 53.66 54.57 56.58 56.91 57.14 57.19 57.53 57.42 57.08 57.12 57.65 59.19 60.17 59.94 59.35 58.52
37.47 35.26 34.19 30.30 30.56 38.04 35.73 37.96 39.46 37.01 32.65 33.54 33.12 35.54 40.17 42.47 41.76 42.20 40.14 39.27 38.36 38.32 38.50 38.92 38.98 40.57 42.30 43.95 44.89 47.05 48.62 53.66 55.22 55.69 53.84 53.15 55.09 56.67 57.12 57.71 58.61 59.15 59.63 59.16
34.88 33.26 35.07 34.99 34.00 36.02 35.54 35.62 36.50 35.58 36.34 32.38 34.95 36.39 40.50 44.20 44.55 43.70 42.34 39.47 37.20 35.75 35.69 36.03 36.36 37.28 38.55 40.12 41.32 42.58 43.31 45.66 46.61 45.71 45.74 45.62 46.52 48.25 49.23 50.41 50.83 54.76 57.41 58.06
35.02 32.61 35.44 32.38 33.62 36.15 33.94 36.11 35.71 36.34 37.14 37.14 38.11 37.95 45.27 47.36 47.73 43.38 41.32 39.41 37.01 35.23 34.36 34.38 35.12 35.77 36.26 37.52 38.76 39.59 39.71 40.50 42.11 40.72 40.94 42.81 43.90 43.44 44.07 45.05 45.99 47.42 48.22 48.72
32.69 32.41 32.72 27.95 34.37 33.41 29.64 34.44 35.57 36.19 38.51 39.35 35.46 40.60 45.93 44.98 44.13 42.66 41.11 39.79 36.96 34.04 33.99 33.83 33.74 34.29 35.17 35.51 36.58 37.33 38.40 39.16 39.01 39.24 39.75 41.45 42.34 41.54 42.01 43.46 43.57 44.74 44.42 42.81
32.49 31.59 32.13 29.12 30.79 21.65 34.73 39.32 39.51 37.99 39.75 41.81 41.59 43.34 44.22 41.23 38.97 39.18 39.75 37.93 36.43 36.01 33.63 33.60 34.00 34.75 35.00 35.00 35.70 36.36 36.70 37.16 37.32 38.89 38.28 38.83 39.39 40.92 42.95 43.40 43.11 42.76 40.53 38.45
37.00 34.57 29.54 27.67 27.83 31.12 33.21 37.14 36.74 36.40 36.57 41.92 40.86 42.80 41.48 38.37 36.65 32.97 34.75 33.80 32.23 32.33 32.91 33.76 35.60 34.45 34.53 34.28 35.34 34.49 35.02 35.54 34.37 33.76 34.61 36.36 38.11 38.11 40.05 39.90 39.72 40.55 39.21 37.04
34.62 36.17 31.91 30.06 23.86 20.11 34.64 38.66 41.60 40.95 32.67 41.02 40.79 40.79 41.07 40.83 37.16 31.00 33.10 32.06 31.34 31.45 31.67 31.48 32.92 34.04 33.65 33.27 34.39 33.75 32.81 31.83 31.39 33.61 34.14 35.46 35.49 36.75 36.66 37.42 37.26 37.67 37.22 35.71
30.40 31.70 28.87 29.19 27.32 31.08 37.43 40.09 41.93 28.77 32.21 40.07 39.22 36.89 38.52 38.81 32.48 29.66 29.64 29.31 30.96 31.49 31.11 31.82 31.80 31.76 32.88 34.13 34.50 31.79 31.49 31.27 31.47 32.84 32.35 32.61 34.74 34.89 34.91 35.74 36.45 36.09 35.21 35.02
30.05 29.03 29.35 30.16 26.12 23.47 39.43 40.08 34.39 36.38 38.96 38.27 35.87 33.28 29.82 28.81 28.45 28.35 28.73 28.47 28.99 30.30 30.96 32.24 31.82 31.06 32.62 34.01 33.60 31.73 29.85 30.50 31.78 32.48 31.93 31.17 32.02 33.38 33.83 34.02 33.97 34.48 34.05 33.14
29.96 33.36 32.04 33.51 32.53 37.07 37.17 36.33 36.11 37.76 37.08 36.36 34.94 33.47 31.26 28.43 27.33 27.54 27.01 27.57 28.26 29.22 30.83 32.33 30.94 29.98 30.82 32.21 32.68 30.18 30.23 31.56 31.64 30.52 30.46 30.99 31.23 30.65 31.97 32.42 33.08 33.25 33.67 33.23
35.39 36.47 33.29 34.02 31.76 32.97 34.38 34.22 33.69 33.73 33.15 32.64 32.56 30.71 29.69 27.37 27.52 25.93 25.93 26.28 26.56 27.83 28.36 31.04 30.19 28.68 27.91 29.56 30.38 30.86 31.25 32.04 31.48 30.06 29.34 29.20 29.33 29.82 30.21 30.56 30.51 30.26 30.38 30.14
32.51 35.67 31.64 31.52 31.91 32.36 32.37 32.92 33.50 32.71 32.29 31.08 32.09 31.71 30.42 29.15 27.93 27.30 25.89 25.17 25.09 25.84 26.31 27.60 27.34 27.32 27.41 28.67 28.69 30.44 31.23 31.48 30.05 29.78 29.55 29.27 28.58 27.65 26.11 26.51 27.37 26.41 27.38 28.31
32.12 29.53 29.21 29.63 31.67 30.67 29.38 31.71 32.79 31.63 30.95 31.72 30.86 29.28 29.43 27.98 25.83 25.24 24.50 25.07 25.15 24.22 25.07 25.44 26.14 25.96 26.11 26.90 27.14 28.35 30.18 31.21 30.29 28.94 28.83 28.82 29.40 29.21 28.42 25.93 23.38 24.43 24.89 25.24

GFSCGP_sfc_wetblb_081.txt.gz
Wetbulb
45.56 41.43 39.17 41.29 43.11 42.22 41.19 39.50 38.35 41.48 43.50 42.23 41.60 42.96 44.65 47.17 48.10 48.84 51.17 51.90 53.10 54.42 55.68 56.75 58.65 60.82 64.38 67.04 67.96 68.44 67.58 67.74 66.96 65.57 64.18 63.71 63.82 64.08 64.14 64.41 64.28 64.24 64.81 65.63
43.54 39.17 43.45 44.00 43.10 41.32 39.75 38.36 37.18 41.12 43.79 43.73 43.35 43.68 46.56 47.66 47.54 48.96 49.61 51.52 53.17 54.52 55.07 55.67 57.66 60.54 64.57 66.22 67.52 68.04 67.02 66.99 66.40 65.73 64.80 64.22 63.83 64.78 64.94 64.93 64.56 63.99 63.84 64.48
41.27 43.63 44.91 43.17 41.92 39.40 39.91 38.36 38.67 39.39 43.75 45.13 43.22 41.92 44.71 48.06 49.08 50.14 51.18 51.74 52.97 54.52 54.64 55.09 55.90 59.81 64.34 65.34 67.16 67.43 66.91 66.40 66.00 65.78 64.97 64.10 62.70 63.82 62.64 63.58 64.28 63.72 64.58 64.54
42.59 45.25 43.07 41.45 40.17 41.55 37.32 43.10 42.26 40.82 39.67 36.01 44.63 35.64 42.99 45.62 47.25 49.34 50.68 51.71 52.37 54.01 55.09 55.49 55.71 58.80 63.18 64.95 67.19 67.48 66.96 66.17 66.00 65.71 64.08 62.67 61.62 60.00 62.59 62.99 63.74 63.79 63.93 64.23
39.40 41.58 41.29 39.73 40.05 43.25 40.26 44.02 42.11 41.35 38.13 38.35 39.47 37.86 41.11 46.34 45.47 48.14 50.37 51.12 52.17 54.12 55.30 55.12 55.78 57.44 62.61 65.15 66.40 67.28 67.02 66.31 65.94 65.60 65.29 63.59 62.35 62.70 63.32 62.66 62.29 62.04 62.38 61.51
41.93 46.09 43.50 43.13 44.65 44.39 44.19 41.60 41.45 41.28 38.58 31.90 38.10 38.98 39.55 44.30 46.41 48.80 51.29 52.91 53.29 54.45 55.65 56.26 56.44 57.17 61.36 64.76 66.60 66.54 66.10 65.59 65.78 66.00 65.12 63.78 62.84 62.23 62.30 61.69 61.25 60.53 60.48 59.78
42.07 42.44 45.09 44.91 40.88 43.76 42.14 38.65 31.18 31.31 32.08 31.47 41.00 38.63 41.25 46.29 49.34 49.73 50.52 52.46 55.23 56.95 57.32 57.14 56.65 57.58 59.93 63.29 65.27 65.66 65.73 63.99 65.42 65.17 64.31 63.65 63.09 62.92 60.85 61.64 60.90 60.00 58.37 58.47
35.26 33.57 41.25 44.19 41.90 39.88 39.91 38.34 31.52 25.74 28.33 32.14 40.58 36.13 41.59 49.47 51.00 51.91 53.20 54.06 54.70 56.08 59.31 59.17 58.21 59.01 60.96 63.11 64.56 64.99 64.80 62.63 64.57 64.75 64.04 63.54 63.41 62.52 62.86 62.91 61.86 60.87 59.83 59.65
35.57 35.34 43.12 44.05 44.75 43.52 39.60 36.07 41.12 34.90 36.91 32.60 36.01 40.64 47.51 49.36 49.00 50.64 51.21 52.73 52.27 53.41 55.45 59.07 58.82 60.85 61.93 63.49 62.85 62.87 63.79 60.96 63.06 64.09 63.90 62.94 62.46 61.66 61.79 62.21 62.35 62.13 62.11 61.31
39.55 34.03 41.48 43.24 44.76 44.75 41.98 43.78 34.64 36.27 27.26 27.46 35.44 37.61 38.24 42.98 45.42 47.44 47.39 47.63 48.38 48.70 49.31 54.58 59.40 60.98 62.32 62.90 60.90 60.76 61.97 59.98 61.44 63.60 63.40 61.70 62.09 61.84 62.02 62.27 61.39 60.65 61.12 61.05
42.91 38.67 37.21 41.61 39.99 38.96 40.19 38.46 39.17 38.41 36.62 30.05 30.05 34.91 42.84 41.36 43.38 43.12 44.44 45.65 44.07 43.68 43.99 48.82 53.06 60.55 61.57 59.40 58.92 59.67 59.51 59.82 60.02 60.52 61.74 60.52 60.64 61.48 61.81 61.29 61.31 60.57 61.30 60.63
41.01 39.06 33.77 36.66 42.88 44.95 42.66 40.70 39.35 33.17 32.45 36.34 35.56 35.71 43.21 44.25 42.91 42.82 44.11 42.76 41.58 41.43 41.37 43.20 46.68 49.00 56.62 56.95 57.56 58.09 59.30 58.47 59.09 59.79 60.26 59.99 60.31 60.13 60.65 60.21 60.92 61.20 60.24 60.00
35.99 35.63 30.76 33.44 38.57 42.46 39.73 41.14 41.78 39.95 38.05 33.49 31.67 34.81 43.44 44.85 45.81 44.77 42.90 41.85 39.68 39.06 39.08 39.96 41.16 42.83 45.32 47.67 51.64 53.25 57.95 58.51 58.72 58.88 58.69 58.79 59.23 59.87 59.41 59.18 59.67 59.81 59.34 58.68
37.88 32.12 32.44 29.48 32.56 37.51 36.01 39.33 41.13 39.54 34.05 34.14 35.62 37.73 41.72 45.02 45.23 45.34 43.16 42.03 38.06 36.73 36.77 37.25 37.99 39.23 40.97 42.79 43.52 44.95 46.99 51.64 55.05 55.17 53.88 54.10 55.84 58.60 59.22 59.41 60.25 59.89 59.72 58.47
37.36 30.35 32.59 36.17 38.42 38.07 35.51 35.97 39.19 37.41 38.05 33.59 36.54 37.30 41.24 45.31 46.78 46.03 43.72 40.69 37.41 35.39 34.61 34.96 35.81 36.91 38.12 39.21 39.83 41.05 42.59 43.77 46.73 46.92 46.45 46.28 46.95 48.25 49.00 49.52 52.87 55.50 52.98 51.98
36.82 29.93 33.42 29.90 37.59 37.61 34.24 37.14 38.28 38.22 37.69 37.85 38.74 38.63 45.75 47.69 49.06 45.93 41.91 40.13 36.45 35.28 34.13 33.84 34.61 35.18 35.35 36.55 37.72 38.52 39.18 40.41 42.45 42.53 42.60 43.33 43.93 44.76 45.11 46.14 46.99 45.38 44.00 44.34
32.52 32.15 29.48 25.03 36.26 34.80 28.87 35.27 37.37 37.87 39.51 39.12 36.22 41.41 46.18 43.77 45.48 43.04 40.01 38.55 36.27 34.82 34.22 33.70 34.35 33.47 34.03 34.87 35.90 36.82 38.13 40.84 39.73 39.86 40.72 42.55 43.38 43.14 43.70 44.42 42.20 40.79 39.58 39.43
32.82 31.28 30.34 26.10 33.72 23.52 35.02 40.17 40.15 38.08 39.92 42.34 42.01 42.47 43.18 39.36 36.69 36.80 38.52 36.51 34.28 34.61 33.94 33.31 33.11 33.04 33.96 34.56 35.14 36.47 36.45 36.32 37.79 38.58 39.42 41.12 42.22 42.74 43.03 42.18 40.25 38.93 37.57 36.40
36.69 32.12 27.55 27.36 29.70 31.88 35.28 38.14 38.14 37.26 37.02 41.71 40.56 42.05 41.70 37.81 36.56 32.09 34.30 34.13 32.92 32.67 33.40 32.16 33.85 33.79 33.64 33.75 34.35 33.81 33.69 35.04 34.55 34.40 35.91 38.88 40.31 40.64 40.64 39.62 39.39 38.68 37.76 36.37
35.84 35.41 29.38 28.85 25.05 22.91 35.02 40.48 42.82 42.16 33.26 40.07 41.03 40.85 41.27 39.59 36.43 30.58 31.76 31.51 31.21 31.78 32.36 33.19 32.34 32.81 33.50 33.69 34.31 32.35 32.05 32.07 32.15 33.58 35.16 36.34 36.91 37.95 37.24 37.83 37.91 38.21 38.24 36.79
29.98 30.73 27.80 28.63 28.59 32.78 39.36 41.41 43.11 30.49 32.17 40.31 39.76 36.92 34.98 32.53 29.80 29.20 30.46 30.06 31.44 31.97 31.86 32.52 33.19 32.63 33.20 34.10 33.13 31.10 31.54 30.98 31.84 33.26 34.14 34.65 35.52 35.82 36.56 37.68 37.92 37.54 36.97 36.44
30.51 29.33 29.30 31.04 28.02 23.40 39.58 41.05 35.39 36.10 39.67 39.31 37.24 33.99 30.02 28.95 28.49 28.72 29.39 29.84 31.27 31.99 33.56 33.98 32.42 32.28 34.42 35.84 34.59 32.55 31.50 31.77 31.99 32.81 32.22 32.39 33.70 34.55 35.79 36.05 36.03 35.61 36.14 35.40
30.00 32.88 32.16 32.39 31.61 35.78 36.65 35.28 35.90 38.22 36.51 36.32 34.58 32.81 30.90 29.07 28.31 29.32 28.61 29.49 30.35 32.54 32.55 34.00 33.00 32.61 33.60 35.11 35.05 33.10 33.04 33.51 34.13 33.86 32.44 32.10 32.04 32.24 32.57 32.88 33.40 33.82 34.48 33.36
36.06 38.79 33.99 34.92 31.14 31.50 33.32 34.80 34.35 34.37 33.19 32.91 33.14 32.79 31.67 28.67 29.00 27.87 27.92 27.78 28.11 29.65 30.46 32.58 32.13 30.60 30.06 32.57 33.41 33.86 34.51 34.71 32.92 31.30 30.77 31.23 31.30 31.31 31.59 30.22 29.45 28.56 31.11 30.55
34.42 36.86 33.01 30.85 32.08 33.34 33.14 34.51 34.59 33.33 33.03 32.74 33.61 32.76 31.16 30.32 29.03 28.70 27.36 26.87 27.39 28.85 29.83 30.42 29.72 29.09 29.19 30.80 31.57 33.15 33.63 33.69 31.82 31.44 30.65 29.73 29.01 27.28 25.31 25.27 26.89 26.12 26.86 27.02
32.96 29.13 29.37 29.39 32.83 32.24 30.39 32.89 34.35 32.90 32.43 33.55 32.04 30.54 30.15 29.08 26.95 27.42 26.81 27.39 26.97 26.83 27.63 26.50 26.85 26.93 26.87 27.34 27.31 28.90 31.99 33.20 31.94 30.10 30.27 30.63 30.86 29.66 27.90 25.63 23.17 24.52 25.26 25.39

GFSCGP_sfc_wetblb_084.txt.gz
Wetbulb
45.11 40.11 37.23 40.64 42.50 42.24 41.14 39.16 37.62 40.60 43.46 41.59 41.48 41.77 43.78 46.27 46.64 46.72 47.34 48.97 51.16 52.28 54.78 55.53 56.48 56.20 59.08 63.62 66.92 68.38 67.00 66.54 66.81 64.19 62.93 62.71 61.81 63.14 63.35 63.99 64.11 64.69 64.62 64.87
42.08 37.97 43.13 44.40 43.81 41.89 40.72 38.06 37.43 40.43 42.53 42.17 41.73 41.65 45.31 47.28 47.97 48.14 47.34 48.37 50.03 52.31 53.68 55.47 55.96 58.23 62.04 64.86 66.42 67.74 66.80 66.83 66.48 64.81 63.77 63.66 63.04 63.34 62.95 63.41 63.61 64.34 64.38 64.45
40.25 42.55 45.77 44.15 42.41 40.77 40.19 37.81 37.56 37.79 41.21 43.12 41.88 39.92 42.76 46.32 47.04 48.58 49.57 49.96 49.80 51.03 52.90 54.52 55.67 56.92 62.42 64.63 66.16 67.26 66.35 66.73 66.13 65.20 64.32 63.42 63.41 62.89 61.72 62.11 62.85 63.28 63.81 63.54
41.81 45.10 43.44 42.25 40.85 41.34 36.72 42.19 41.21 40.47 38.68 33.74 42.08 31.78 40.42 43.36 45.64 48.12 49.18 49.68 50.20 50.80 51.78 54.71 55.59 56.10 62.02 63.70 66.97 67.41 66.78 66.14 65.85 65.30 63.41 61.74 60.41 59.84 61.00 61.04 62.77 63.06 63.69 63.04
39.12 41.17 40.81 39.60 40.36 42.13 38.53 43.19 41.91 40.82 38.64 37.74 37.38 34.07 38.47 43.57 43.31 46.06 48.79 50.96 51.22 52.06 52.93 54.35 55.44 56.39 62.49 63.90 66.27 67.12 66.39 65.53 65.15 64.78 63.55 61.88 60.54 61.09 61.24 61.49 61.64 61.77 62.05 62.94
41.48 45.30 43.41 41.70 43.42 43.85 44.49 41.58 40.72 40.27 38.01 30.75 36.09 35.11 35.69 39.85 44.49 47.73 50.74 52.42 54.71 53.53 53.22 54.33 56.35 56.75 60.95 63.44 65.81 66.57 65.62 64.64 64.60 64.50 63.23 62.50 61.09 60.56 60.29 60.18 59.95 60.94 60.14 59.89
41.28 41.95 44.32 45.01 40.60 43.27 42.12 38.09 29.74 28.36 29.16 28.34 38.24 35.94 38.90 45.51 48.07 49.14 49.84 52.04 54.01 54.93 55.73 57.20 58.21 55.49 57.11 62.51 64.66 65.85 65.12 63.83 64.45 63.93 64.03 62.81 62.49 61.24 60.82 60.28 60.33 59.55 58.75 58.43
34.15 32.43 41.04 44.84 41.93 39.25 39.19 38.12 31.16 23.23 25.87 29.49 37.57 32.78 39.74 47.95 50.48 50.16 50.50 50.77 51.68 51.41 51.79 53.43 55.34 54.24 58.86 62.82 64.76 64.91 64.60 63.64 63.96 63.98 63.29 62.89 62.17 60.99 61.09 61.42 60.96 59.71 58.98 58.68
34.33 34.84 43.08 43.82 44.51 42.95 38.94 35.15 40.53 33.83 35.04 30.13 34.23 38.33 44.58 45.97 46.69 47.46 47.16 47.76 47.47 47.79 48.80 50.42 52.53 54.24 60.06 62.65 64.01 64.10 64.23 63.22 63.75 63.54 62.94 62.18 61.71 61.18 60.76 61.04 61.23 60.91 60.10 59.76
39.51 32.64 40.24 42.46 44.39 44.18 41.21 43.05 34.28 34.21 25.39 24.89 32.35 35.14 35.94 39.47 41.82 44.60 44.55 44.89 45.48 45.50 44.93 46.63 47.64 50.72 61.67 63.25 62.87 62.58 62.33 62.16 62.63 62.67 62.89 61.83 61.20 60.96 61.03 61.04 61.01 60.80 60.97 60.09
39.49 36.18 36.38 41.05 38.46 38.15 39.03 37.66 38.25 37.67 34.85 27.65 26.87 31.94 39.17 40.06 42.48 42.86 44.26 44.15 42.79 41.81 41.62 42.33 43.93 47.05 51.83 60.03 60.51 59.78 60.34 60.02 60.83 60.95 61.04 60.88 60.26 60.38 61.03 61.14 60.86 60.17 60.68 60.03
38.08 35.12 31.27 35.77 42.32 44.16 42.05 39.38 39.57 32.20 30.27 34.56 33.37 33.21 43.89 44.46 44.97 44.64 43.37 43.04 41.56 40.03 39.77 40.16 40.62 43.05 45.75 47.96 54.35 58.77 58.92 59.23 59.30 60.50 59.85 59.75 59.89 60.17 60.01 59.65 60.04 60.07 59.54 59.77
36.89 32.73 26.75 31.04 37.29 41.06 37.80 40.06 40.28 39.96 37.97 32.06 28.78 32.32 44.02 45.33 45.68 45.15 43.59 42.19 40.01 38.67 37.87 38.00 38.52 38.75 40.67 42.51 44.90 47.12 52.74 57.94 58.31 59.09 59.18 58.84 58.71 58.65 58.84 59.16 59.34 59.74 59.09 58.78
37.89 32.28 28.56 25.77 30.81 34.59 33.18 37.07 39.17 38.58 33.40 33.28 34.05 35.19 40.36 43.64 45.14 45.56 42.37 40.32 38.10 36.74 36.12 36.30 36.11 36.67 37.79 39.72 40.67 41.81 44.94 49.79 54.84 54.45 52.26 51.54 52.60 54.94 54.82 56.59 58.18 58.74 58.68 57.93
35.62 27.36 30.58 32.45 34.93 34.79 34.18 34.37 35.69 34.83 36.82 33.46 36.08 36.11 41.18 44.21 45.82 43.52 42.12 40.25 37.35 35.12 34.59 34.69 34.33 34.74 35.38 36.39 38.62 40.27 41.38 43.61 46.60 47.72 47.55 47.89 48.94 49.34 50.83 49.54 49.03 48.57 48.68 47.11
35.84 28.27 30.86 28.42 33.27 34.25 32.80 36.41 36.36 36.08 36.48 36.64 37.03 37.57 43.78 44.91 46.08 42.95 40.90 38.83 36.17 34.98 34.46 34.00 33.65 33.73 33.81 34.22 36.52 37.85 39.91 40.58 42.44 43.34 43.76 44.75 45.39 45.67 44.33 43.98 42.93 42.30 41.78 41.30
31.41 29.21 27.80 24.43 31.96 32.17 29.32 35.41 36.44 37.39 38.81 38.87 35.12 39.61 42.10 39.58 38.38 38.14 37.59 36.46 34.35 33.72 33.82 33.81 33.17 33.29 33.03 33.91 34.87 35.00 36.46 39.34 40.23 41.00 42.76 43.64 43.99 42.42 41.15 40.17 39.26 38.53 38.30 37.71
31.29 29.85 29.25 25.43 28.89 19.64 34.40 41.10 40.60 38.51 39.92 40.04 40.36 40.99 40.07 36.34 34.32 33.99 35.20 34.19 33.05 32.67 32.71 33.24 33.90 33.31 33.06 33.59 33.65 34.65 35.19 35.55 36.28 38.01 39.75 41.61 41.65 40.86 40.47 39.03 37.47 36.71 36.64 36.38
36.89 32.16 27.20 24.64 24.51 29.02 35.74 38.70 38.29 37.16 34.50 39.06 38.85 39.86 40.14 36.74 34.86 30.92 32.30 32.55 31.59 32.24 32.80 31.73 33.30 34.11 32.79 32.86 33.18 32.92 32.84 33.79 34.38 34.40 35.87 38.51 39.67 39.75 38.69 37.69 37.11 36.52 35.74 34.41
35.89 35.70 29.20 25.89 21.04 22.45 33.58 38.50 42.76 41.24 32.15 38.11 38.87 36.96 35.80 38.65 34.06 28.50 31.23 31.60 30.97 31.60 32.27 32.80 32.27 32.09 32.41 32.21 33.18 32.49 31.92 32.37 32.32 33.42 34.30 36.34 37.08 37.28 37.19 37.71 37.27 36.65 35.84 34.04
29.45 29.35 25.52 25.79 24.18 30.34 33.64 38.29 42.49 29.65 30.21 37.33 36.52 33.85 30.94 28.87 28.12 29.24 30.86 30.60 31.55 32.64 32.62 33.16 34.22 32.45 32.09 32.09 32.09 31.04 31.65 31.41 32.50 33.02 33.85 34.08 34.87 35.43 35.44 35.70 36.61 35.58 34.22 33.42
28.10 27.14 27.09 28.14 26.82 24.08 35.48 36.97 31.77 33.96 36.53 36.39 33.78 31.65 28.74 28.27 28.49 28.85 29.92 30.63 31.73 32.09 33.45 34.17 32.86 33.62 34.37 34.49 33.66 31.88 30.20 31.90 32.05 32.30 32.54 32.32 33.42 34.71 34.30 34.88 34.81 34.99 33.61 32.55
28.67 32.13 29.78 28.69 27.84 34.19 34.59 33.31 34.49 35.50 33.84 33.78 32.86 32.07 30.54 28.75 27.95 28.53 28.39 28.93 29.60 32.27 32.85 33.28 32.21 31.46 32.88 33.61 33.52 31.29 31.60 32.99 32.80 32.39 31.73 31.31 31.47 30.96 30.35 29.23 31.51 31.72 32.35 31.54
33.79 37.48 32.44 32.19 31.13 31.16 32.67 33.75 33.10 33.09 32.22 33.24 32.83 31.74 30.91 28.13 27.98 27.34 27.49 28.06 28.72 30.28 30.93 31.53 30.45 29.83 30.32 32.28 32.88 33.03 33.44 32.80 31.56 29.12 28.10 27.33 25.92 26.20 27.66 27.18 26.72 26.06 28.36 28.41
31.49 33.61 30.66 30.16 32.55 32.46 31.39 33.99 33.50 33.30 33.27 32.64 32.53 32.03 30.71 29.61 28.60 28.15 27.25 27.19 27.60 27.87 28.70 29.42 28.29 27.29 26.91 28.00 28.43 31.25 33.11 33.18 31.18 29.56 28.07 26.96 25.94 24.06 23.45 24.42 24.78 24.28 25.09 26.48
31.44 28.72 26.53 26.99 31.18 30.62 29.95 32.90 33.06 31.45 33.12 34.16 31.54 30.07 30.04 28.75 27.22 27.16 25.92 26.10 25.57 25.40 26.76 26.24 26.22 25.67 25.54 26.34 27.26 28.41 30.74 32.18 30.66 29.55 29.68 29.58 27.72 26.21 24.19 22.40 21.66 25.37 25.41 25.68

GFSCGP_sfc_wetblb_087.txt.gz
Wetbulb
41.09 33.54 30.16 33.56 36.55 37.91 37.13 35.26 34.23 36.76 40.25 38.54 37.56 37.61 39.96 42.96 43.57 43.95 43.98 45.47 45.72 46.74 49.57 52.06 52.74 53.95 52.02 51.83 65.42 65.95 65.35 65.34 64.32 63.17 61.70 61.06 60.64 63.37 61.45 61.51 62.45 62.54 62.45 62.98
37.90 33.08 38.88 41.02 40.48 39.10 37.65 34.91 33.19 36.39 39.69 39.23 37.37 36.40 39.43 43.36 43.87 44.46 45.41 46.26 46.12 47.16 48.47 51.97 52.26 51.70 51.29 56.58 65.55 65.68 65.21 64.92 63.41 63.02 62.05 60.05 59.71 62.08 60.27 60.43 61.44 63.54 62.30 62.05
35.25 38.88 43.05 41.20 39.93 38.46 37.36 34.94 34.66 35.06 38.29 39.25 37.17 35.68 38.29 43.05 44.70 45.96 46.67 47.68 48.19 46.81 47.03 50.22 51.78 51.75 52.43 61.78 64.88 64.72 64.70 64.65 63.20 62.30 61.92 60.98 60.07 59.37 58.87 59.79 60.39 62.45 63.36 62.46
37.60 42.45 41.40 40.11 39.52 39.74 34.12 39.90 39.52 37.43 35.20 30.11 37.50 28.10 36.93 41.03 41.90 44.31 48.45 48.40 46.65 47.94 48.48 49.79 51.20 51.08 56.74 64.07 65.41 64.52 64.52 64.29 62.73 62.32 60.90 60.37 59.53 58.30 58.38 59.38 61.40 60.87 61.59 62.39
36.36 38.36 37.67 37.22 37.98 40.75 36.75 40.72 38.38 37.14 34.41 32.47 34.38 30.48 34.32 40.49 39.36 42.20 47.44 50.79 48.82 47.60 46.90 48.48 49.73 51.62 57.55 63.63 64.73 64.27 64.33 64.13 62.98 61.99 60.78 59.64 57.87 57.72 57.95 58.72 59.70 60.37 61.04 61.53
38.03 41.93 39.44 38.51 41.43 41.06 41.77 39.51 38.27 37.03 33.59 26.26 33.03 32.00 32.32 37.15 40.10 46.05 48.91 49.30 48.90 49.06 50.13 51.57 52.77 54.11 54.55 62.61 64.38 63.89 63.55 63.32 62.65 61.55 60.59 59.86 58.20 57.83 57.85 57.70 58.55 58.43 59.73 60.52
37.34 38.06 41.19 42.02 37.00 39.94 38.02 33.70 25.56 23.27 23.75 23.81 36.56 32.89 35.96 43.04 45.92 46.53 46.68 47.20 47.40 47.85 47.43 48.13 48.52 49.69 52.03 54.31 62.81 63.06 62.55 61.96 62.08 60.85 60.65 59.98 59.17 57.47 57.48 58.31 58.56 58.85 57.73 57.42
28.88 27.64 36.78 42.17 38.52 36.08 35.32 33.86 26.05 21.14 22.32 26.37 35.52 29.52 36.57 41.82 46.25 47.08 47.03 46.95 46.32 45.03 45.26 45.76 46.54 46.85 49.19 54.00 61.75 62.76 61.67 61.28 61.34 61.04 60.65 61.15 59.53 58.55 58.94 59.51 59.18 58.20 58.33 57.78
31.04 31.54 40.84 42.42 42.52 40.58 36.18 31.49 37.78 31.02 32.18 26.67 30.81 34.84 42.44 43.71 44.26 45.14 45.04 44.39 42.62 42.19 42.25 43.63 45.36 45.90 48.86 57.85 61.08 61.82 61.65 61.49 61.55 61.23 61.43 60.70 59.25 59.04 58.50 58.73 58.97 58.90 58.92 58.94
34.20 28.12 38.63 40.68 42.52 41.06 38.30 39.95 27.79 31.07 24.41 23.04 30.04 33.20 34.46 37.98 40.36 42.95 42.48 41.48 40.83 40.50 40.42 41.87 42.60 44.07 47.37 50.67 57.33 59.03 61.11 61.08 61.49 61.83 61.10 60.16 59.42 59.05 59.78 60.50 59.87 58.50 58.72 58.81
34.81 32.51 31.87 36.83 35.79 34.51 35.33 34.14 34.83 34.55 32.33 25.26 24.22 29.62 38.84 39.51 41.78 42.21 41.84 40.85 39.12 38.63 38.87 39.51 40.34 41.99 44.65 47.02 49.27 51.65 58.89 59.52 60.91 60.84 60.20 59.48 59.47 59.91 60.42 60.28 60.20 59.97 59.19 58.61
35.51 32.34 25.32 29.02 36.51 39.07 38.07 36.71 35.95 28.41 28.10 31.07 30.53 31.34 42.32 43.05 43.74 42.88 40.72 40.08 38.59 37.87 38.13 38.16 38.24 38.80 40.42 42.71 44.38 47.15 51.19 58.28 58.93 59.46 59.04 58.87 59.18 59.86 59.75 59.51 59.08 59.79 59.48 59.47
33.03 27.99 22.11 24.80 31.91 36.45 33.94 35.95 35.55 36.28 35.88 30.69 27.46 30.59 43.57 43.99 44.36 41.86 38.28 37.35 36.68 36.19 36.83 36.86 36.51 36.36 37.15 39.95 40.70 42.28 45.06 53.60 58.13 58.60 58.16 58.11 58.49 58.86 58.42 58.58 58.87 59.08 58.67 58.15
36.46 29.20 25.81 20.44 24.89 31.32 29.28 32.25 34.39 34.17 30.65 31.61 31.42 33.95 39.69 42.74 41.39 39.69 37.65 36.77 35.72 35.22 35.22 35.29 35.04 35.20 35.59 37.09 37.94 40.54 41.78 45.40 51.81 52.58 52.92 52.42 53.88 54.05 53.30 54.02 55.49 56.34 56.85 52.88
32.58 24.07 27.27 28.63 30.05 30.99 30.22 30.47 32.82 31.19 33.00 30.77 34.33 34.73 39.99 40.97 40.08 39.39 38.63 37.04 35.26 34.46 33.84 33.64 33.73 33.96 34.64 35.20 36.26 37.44 39.80 42.02 45.53 48.17 48.42 48.64 49.85 49.33 47.89 46.93 46.79 46.03 45.57 45.19
31.86 23.63 27.37 24.36 28.89 29.99 28.71 31.37 33.31 34.27 35.46 36.06 35.57 35.10 41.90 42.13 41.30 38.53 37.33 35.80 33.61 33.15 33.00 32.98 33.28 33.18 33.26 33.65 34.58 35.83 36.85 39.24 42.81 43.77 44.68 45.25 44.49 43.68 43.16 42.20 41.85 41.13 40.14 39.09
26.42 23.23 25.38 20.54 28.20 28.56 24.80 30.77 32.57 35.29 37.68 36.16 32.13 37.39 39.86 35.79 34.84 34.94 34.74 33.79 32.42 32.38 32.04 32.29 32.42 32.74 32.82 33.04 33.80 33.58 35.75 37.45 38.29 41.14 42.23 41.91 41.36 39.72 39.38 39.33 38.88 37.54 36.61 36.21
26.17 25.34 25.96 21.03 25.03 16.04 29.46 37.67 37.59 36.23 36.39 37.62 38.34 36.51 35.93 33.11 31.84 31.75 32.74 31.71 31.17 31.16 31.01 31.70 32.61 32.76 33.47 33.86 33.61 34.33 34.77 35.36 35.48 36.87 39.67 40.18 39.64 38.74 38.20 37.17 36.14 35.71 35.17 33.96
33.14 28.52 24.15 21.34 19.69 26.23 31.84 34.27 33.22 33.92 33.44 36.09 34.67 35.26 35.53 33.21 31.30 28.89 31.17 31.27 30.56 31.98 32.34 31.36 33.05 33.28 32.48 32.63 33.98 33.70 33.40 33.78 33.89 33.46 35.03 37.83 38.50 37.49 36.90 35.59 34.73 34.53 33.55 32.38
32.43 30.87 24.52 25.26 20.21 16.95 30.19 34.14 35.59 35.76 29.60 34.66 33.52 31.79 31.02 35.58 31.67 25.83 30.30 31.19 30.80 31.38 31.93 32.40 32.37 32.01 31.97 31.74 32.49 32.46 31.98 32.29 31.76 32.33 33.02 34.68 35.72 36.37 35.75 34.66 33.90 33.32 31.99 30.90
25.44 27.09 24.00 24.17 20.52 27.19 32.24 32.89 36.42 26.75 27.57 33.17 31.89 29.31 28.23 25.70 27.03 29.03 30.95 30.79 31.35 32.27 32.33 33.08 34.08 31.89 31.83 32.37 32.22 30.32 30.41 29.97 31.89 32.42 32.36 32.84 33.53 33.19 34.30 34.59 33.93 32.46 31.31 30.34
26.70 25.79 25.37 26.47 22.84 21.15 32.42 33.11 28.15 33.44 33.86 32.33 30.54 28.65 26.96 27.48 28.28 28.21 28.29 28.63 31.74 31.50 33.04 33.40 32.36 32.96 34.78 33.98 32.80 30.24 29.58 31.39 31.90 31.84 31.32 30.97 30.90 31.24 32.17 32.52 32.46 32.63 31.44 29.94
27.43 31.06 27.28 27.48 25.59 32.64 32.55 31.07 33.40 34.03 32.62 31.96 30.59 30.00 28.73 26.66 26.09 26.99 26.56 26.89 28.42 31.44 31.35 32.07 31.11 30.91 31.58 32.98 32.51 29.92 31.24 31.87 30.32 28.20 27.02 26.85 28.27 28.13 28.14 27.60 29.10 30.96 30.84 29.00
30.77 33.60 30.35 29.83 29.33 29.34 31.91 33.26 33.13 33.97 31.71 30.87 30.97 29.48 27.11 24.15 24.60 24.24 25.19 25.94 25.37 27.82 29.12 29.16 27.75 26.70 27.12 29.51 30.78 31.76 31.22 30.28 28.76 26.70 26.17 25.99 25.56 25.42 25.90 25.94 25.99 26.11 26.75 26.21
29.20 30.41 28.42 29.51 30.56 30.05 30.67 32.99 34.18 32.93 31.71 30.94 31.15 30.11 28.71 26.88 26.35 26.25 24.86 24.76 25.22 25.57 26.18 26.77 25.97 25.48 25.98 27.28 27.80 29.59 31.93 31.44 28.24 26.82 25.61 24.26 23.91 23.87 23.69 24.19 23.88 24.35 25.84 24.88
30.28 27.31 24.37 24.26 29.64 29.08 29.73 32.46 32.37 30.62 31.85 31.07 28.91 27.77 28.11 26.69 24.75 25.06 23.84 24.25 23.78 23.59 24.29 23.55 23.82 23.98 24.50 25.27 26.51 28.19 29.14 30.12 29.28 28.44 28.09 25.90 24.07 22.98 22.01 21.39 21.40 25.70 25.93 26.39

GFSCGP_sfc_wetblb_090.txt.gz
Wetbulb
39.13 32.92 29.19 31.48 33.72 35.11 34.79 32.89 31.61 34.89 38.02 35.77 35.32 35.31 38.47 41.04 39.93 40.51 42.41 43.60 44.56 45.55 47.78 47.21 50.26 50.27 51.08 51.56 61.20 65.32 65.89 65.59 65.21 64.14 62.87 62.24 62.23 62.56 61.80 62.58 62.13 63.22 63.45 63.21
35.32 31.28 37.25 38.34 37.45 36.03 34.89 32.33 31.86 35.95 38.15 36.80 36.45 35.81 39.47 39.81 39.88 42.38 43.52 43.94 44.99 46.50 48.12 48.73 47.75 49.22 49.12 50.12 60.20 64.92 65.18 64.70 65.01 64.30 63.54 62.22 61.54 61.49 63.07 60.84 60.83 61.62 61.28 61.82
33.15 37.14 41.39 38.97 37.33 35.60 35.02 32.76 32.58 34.02 37.16 36.49 33.74 34.08 37.52 40.20 41.78 43.92 45.15 46.10 48.66 48.38 48.97 48.67 49.18 47.48 48.82 50.15 62.32 64.41 64.83 64.33 64.26 63.67 60.92 60.24 58.94 58.83 60.29 61.06 59.13 60.29 61.03 61.24
36.08 40.79 39.34 38.13 36.76 37.43 32.40 38.99 37.74 35.72 32.18 27.72 35.29 26.17 34.28 38.38 40.22 42.62 43.80 46.90 47.01 47.26 48.87 49.49 49.81 50.85 49.61 51.15 62.34 64.71 64.88 64.23 63.38 62.31 61.15 60.11 59.30 58.18 59.58 60.91 58.28 59.16 60.64 60.59
34.96 36.67 35.96 35.01 35.95 38.99 35.47 39.63 37.11 35.33 31.49 30.02 32.33 27.54 31.07 39.42 40.77 42.91 46.21 47.05 46.95 46.49 46.86 47.51 48.85 50.16 51.72 58.43 62.83 64.52 64.63 63.29 62.32 62.43 61.11 59.75 58.43 57.37 58.65 58.40 57.84 58.04 58.56 59.87
36.52 39.70 37.77 37.20 39.61 39.41 40.03 37.37 36.10 34.60 31.38 25.33 31.21 28.78 29.07 37.62 39.40 41.28 45.16 46.15 46.36 45.41 45.29 46.55 48.57 49.06 48.87 52.18 62.47 63.85 63.73 62.34 62.10 61.76 60.68 59.53 58.59 57.31 57.71 58.00 57.94 59.14 59.61 59.83
35.24 36.56 38.86 40.27 35.27 37.36 36.51 31.85 24.35 22.64 21.69 22.38 33.29 30.25 32.52 39.46 41.99 42.73 44.33 45.17 44.57 44.43 43.64 44.64 45.94 46.76 47.98 50.61 53.75 62.96 62.70 61.09 61.50 60.54 60.05 59.43 59.14 58.24 57.86 57.57 57.72 58.74 59.06 59.61
27.03 25.76 34.31 39.79 35.82 33.73 33.27 32.41 25.25 20.60 20.85 24.48 33.58 26.39 34.46 42.69 43.85 44.52 46.48 45.12 43.50 42.05 42.27 42.95 44.57 44.84 46.89 50.25 55.32 62.47 61.89 60.10 60.15 59.75 59.30 59.39 58.85 58.24 57.99 58.39 58.99 58.43 58.61 58.72
26.70 28.77 37.46 40.07 39.34 37.26 34.21 29.78 35.83 28.52 29.89 25.33 28.16 33.92 40.39 43.31 43.12 44.47 45.19 43.41 40.52 39.97 40.68 41.29 42.55 42.72 44.96 47.44 52.30 58.91 61.77 61.03 59.91 59.73 59.54 58.90 58.69 57.66 57.75 58.07 58.68 58.14 58.71 57.95
31.30 23.84 35.85 36.43 39.09 39.32 37.79 38.78 26.66 26.53 21.33 21.03 26.97 30.85 33.00 38.07 40.31 43.30 42.66 40.25 38.08 38.43 38.92 39.21 40.01 41.00 43.67 46.04 48.58 54.62 59.16 60.23 60.20 59.86 60.06 59.34 58.86 58.68 59.15 58.51 57.85 58.29 58.34 58.42
32.44 29.74 28.34 32.99 33.07 29.35 30.28 30.01 32.58 31.97 29.71 23.40 21.13 25.04 39.20 39.16 41.18 42.18 40.14 38.68 36.02 36.21 37.07 37.22 38.19 39.95 41.84 44.04 45.60 48.87 52.56 59.64 59.53 59.74 59.47 58.43 58.51 59.54 59.62 58.80 58.41 58.62 58.41 58.39
33.37 29.83 24.90 26.54 34.05 35.84 35.23 33.65 35.50 28.99 26.49 28.75 26.87 27.81 42.26 41.77 42.71 39.90 37.36 37.13 35.95 35.53 35.96 36.39 36.64 37.26 39.07 39.45 42.54 44.44 46.95 50.62 58.53 59.10 58.85 58.82 59.46 59.76 59.35 59.43 59.51 58.95 58.31 58.18
31.32 25.99 19.79 21.63 27.59 33.39 30.80 32.72 33.09 32.90 32.81 27.09 26.29 28.01 42.77 43.63 38.99 38.31 36.42 34.94 35.08 34.75 34.36 34.86 35.08 35.35 36.14 37.15 38.76 41.45 44.41 46.17 54.37 58.40 58.16 58.39 58.54 58.64 58.78 58.70 59.29 59.47 59.06 58.50
35.12 26.90 24.31 18.27 22.63 28.07 24.96 28.57 31.08 30.82 26.84 28.21 28.84 32.84 38.26 40.04 38.48 37.69 35.96 34.68 35.01 34.31 33.30 33.51 33.52 34.16 35.06 36.30 36.52 38.02 41.63 44.82 47.66 53.75 55.26 54.11 53.67 53.78 53.74 54.01 53.63 54.29 52.86 51.32
30.60 23.53 26.20 27.32 28.39 28.63 27.77 27.46 28.80 28.11 29.21 27.33 31.96 33.08 37.64 39.10 38.20 37.23 36.70 35.49 34.12 33.03 32.41 32.68 32.11 32.85 33.62 34.56 35.60 36.59 38.26 41.48 44.97 47.34 48.43 48.93 48.41 48.42 48.27 47.16 46.00 45.01 44.30 44.26
29.22 22.70 25.21 21.91 26.89 27.37 25.18 28.47 29.36 30.34 31.08 32.47 32.71 34.94 36.41 37.90 38.09 35.82 35.08 33.93 32.37 31.62 31.65 31.90 32.06 32.30 32.13 33.14 34.16 35.89 36.56 37.78 41.92 42.27 42.53 44.22 44.78 43.51 42.22 41.65 41.03 40.06 39.35 39.08
25.15 21.11 21.10 17.80 25.84 25.84 21.60 27.35 29.37 30.89 35.06 35.52 31.64 36.65 37.17 33.16 31.65 31.24 32.31 31.70 30.62 30.60 30.99 31.12 31.38 31.17 32.00 32.18 33.85 34.32 35.87 37.48 37.71 40.13 41.25 39.89 39.81 39.74 39.04 38.40 37.45 36.41 35.94 36.22
23.33 23.01 23.26 20.03 23.49 14.34 28.17 35.22 35.58 34.21 34.72 36.37 35.39 36.26 34.28 30.68 30.19 30.28 30.85 30.44 30.28 30.61 30.78 31.30 31.44 31.47 31.86 32.61 32.76 34.57 35.28 35.58 35.84 36.03 37.77 38.05 37.58 36.62 36.45 35.77 34.53 34.09 34.03 33.57
30.07 26.80 22.83 18.34 19.77 24.94 28.71 33.57 30.94 28.55 30.02 33.11 32.73 35.01 32.44 30.31 30.12 27.82 30.63 30.62 30.35 31.67 32.41 31.20 31.99 32.04 31.61 31.68 32.25 32.64 32.96 33.59 33.39 33.07 34.27 35.79 35.41 34.23 33.66 32.22 32.17 32.52 32.10 31.90
31.13 29.84 24.06 23.73 19.07 13.85 26.55 30.85 34.59 34.24 26.38 33.04 31.50 29.71 31.93 31.59 29.68 24.60 29.72 30.81 31.04 31.55 32.12 31.79 31.78 31.49 30.51 30.89 32.23 31.63 30.96 31.17 30.99 31.90 32.31 33.39 34.08 33.22 31.91 31.78 31.28 31.28 30.98 30.33
24.80 26.50 22.88 21.92 20.86 24.82 29.37 32.27 34.13 25.89 24.99 30.03 28.87 27.75 28.97 25.66 26.95 28.79 31.06 30.68 31.58 31.90 31.95 32.76 33.21 31.40 32.00 32.33 31.63 29.85 30.11 29.17 30.55 31.28 31.56 31.38 32.19 32.30 32.39 32.19 31.89 31.13 30.21 29.34
26.47 25.19 24.32 25.80 21.97 19.37 30.46 30.84 26.13 31.11 31.87 29.64 28.20 27.49 25.98 27.08 27.62 27.67 28.06 30.05 30.36 30.26 30.52 30.87 29.45 29.08 32.25 32.69 31.82 30.05 28.22 29.11 28.82 28.58 28.43 28.36 28.72 29.50 30.55 31.69 31.60 31.22 29.87 28.49
24.21 27.03 25.31 25.71 23.58 31.31 31.90 31.16 33.38 33.44 31.21 30.01 28.90 28.64 27.04 25.20 23.86 24.07 23.56 23.72 26.48 28.87 27.94 28.52 27.45 27.32 28.07 30.27 31.67 29.30 29.97 29.68 28.58 27.23 26.37 26.20 26.41 26.67 27.43 27.41 28.11 28.53 28.03 26.73
29.15 31.93 28.32 27.45 28.13 28.86 31.48 32.89 32.06 31.88 29.14 28.81 28.07 26.28 24.70 21.47 22.21 21.35 21.33 22.05 22.52 24.87 25.65 26.33 25.77 25.15 25.57 28.55 29.71 29.55 28.71 28.59 27.30 25.68 25.33 25.73 25.34 25.06 25.48 26.03 26.79 25.69 25.39 25.25
27.97 29.31 26.98 26.35 28.75 29.19 29.45 30.66 32.04 29.84 29.61 29.01 29.13 27.88 26.27 24.84 22.66 22.95 21.90 21.28 21.80 22.63 23.47 24.08 23.66 23.71 24.33 26.60 27.62 29.16 32.16 29.55 26.57 25.72 25.12 24.28 24.21 24.47 24.29 24.82 24.88 24.64 25.07 24.87
29.54 26.45 24.45 20.24 27.98 27.01 28.27 30.60 31.16 30.72 28.49 28.03 26.66 25.69 25.30 23.58 21.62 19.74 20.10 22.01 22.19 21.44 21.89 21.26 21.97 22.05 22.36 23.35 24.64 27.08 28.75 29.57 28.63 26.42 24.79 23.64 22.66 22.16 21.99 21.74 22.58 26.92 26.90 26.43

GFSCGP_sfc_wetblb_096.txt.gz
Wetbulb
36.50 30.69 28.10 33.12 32.35 33.08 32.15 29.76 28.71 30.27 34.86 32.73 32.88 33.95 35.48 38.39 36.04 36.04 36.69 39.39 44.55 45.66 47.84 48.43 49.15 50.13 50.34 49.81 47.55 45.87 53.98 64.23 66.25 66.57 64.88 64.13 63.54 64.48 65.05 64.91 64.52 64.32 64.00 63.49
32.16 28.58 35.41 35.57 34.24 32.61 31.04 28.36 27.82 31.48 34.72 32.70 31.92 32.94 36.24 36.94 36.13 38.76 42.66 43.84 44.59 45.49 46.93 47.91 47.84 48.45 48.93 48.83 49.57 49.36 49.69 61.24 65.38 65.90 65.76 64.37 64.82 64.67 64.98 64.87 64.62 64.88 64.24 63.83
30.52 34.94 38.30 36.25 33.46 31.69 30.84 29.01 29.67 30.19 33.21 34.08 31.36 29.43 31.71 36.45 40.91 44.32 44.40 44.36 44.76 44.55 44.83 45.43 46.15 47.41 47.82 47.44 48.01 49.69 50.69 58.33 64.61 65.45 65.61 61.46 62.83 61.82 61.32 62.56 63.05 63.54 63.92 63.37
33.15 37.77 36.26 33.87 33.32 33.58 28.16 34.66 34.17 32.52 29.79 25.52 32.53 22.95 29.83 35.31 38.93 41.71 42.64 42.11 43.50 43.91 44.70 44.22 44.53 45.35 46.23 46.89 47.70 49.05 52.02 54.47 64.32 65.52 64.70 62.92 62.43 61.08 62.23 62.10 62.67 62.82 63.22 62.86
32.16 33.90 33.31 31.97 34.12 36.07 32.13 37.25 34.66 33.05 29.52 27.49 28.16 25.04 26.82 36.09 36.39 39.28 41.05 43.77 43.79 43.07 43.07 41.86 43.46 43.89 45.49 46.40 46.47 49.00 51.41 55.72 63.40 64.92 64.04 62.33 61.91 61.93 61.84 62.22 58.41 61.19 61.81 62.18
34.07 36.58 35.98 35.71 37.82 37.18 38.25 35.47 33.93 31.15 28.99 22.18 28.17 25.97 24.01 30.92 37.32 39.24 41.99 44.59 44.73 42.78 42.44 42.31 42.91 43.32 43.26 45.09 45.70 47.41 50.52 58.22 63.32 64.36 63.55 61.47 61.44 58.52 60.49 61.19 60.63 61.13 60.84 61.29
32.57 34.20 36.89 38.80 34.32 36.52 35.05 30.40 23.48 20.83 20.95 21.25 29.57 26.24 28.80 34.96 40.15 41.23 42.35 42.57 41.89 41.11 40.21 40.24 40.00 39.96 40.97 42.39 43.85 45.89 48.56 54.83 63.20 63.31 62.87 61.53 60.42 58.84 59.92 60.60 60.53 60.15 60.09 60.33
27.19 25.71 33.72 37.85 35.61 33.35 32.83 31.09 24.58 19.18 20.80 21.91 30.20 24.13 29.32 40.11 42.36 43.95 43.21 41.09 39.94 38.18 38.96 38.64 38.85 38.79 39.38 41.20 42.53 43.90 46.63 49.90 62.40 62.25 62.16 61.54 58.49 58.29 58.18 59.04 59.44 59.69 60.00 60.25
27.41 28.43 35.37 36.10 35.78 35.43 32.74 27.41 32.41 26.58 27.13 23.62 25.68 29.35 35.49 40.81 41.13 41.96 39.06 38.25 36.80 36.25 36.53 36.95 37.81 37.85 38.22 39.83 41.65 43.21 45.01 48.84 60.61 61.05 60.65 59.41 58.55 57.90 58.00 58.24 58.84 59.64 59.77 59.02
29.95 24.76 32.44 33.91 35.70 34.94 32.39 34.97 26.62 26.84 21.29 20.22 23.34 25.50 26.65 34.66 37.05 37.93 36.68 35.42 35.35 35.09 34.96 35.17 36.06 36.82 37.80 39.27 40.63 42.92 44.66 47.72 59.95 60.11 60.26 59.39 58.93 58.21 58.26 58.16 58.02 58.42 58.56 58.59
31.30 27.94 27.52 31.19 29.22 26.17 26.65 26.62 29.95 29.73 28.40 23.01 20.02 21.34 35.48 35.13 36.16 35.21 35.16 35.55 34.63 33.40 33.84 34.05 34.38 36.04 36.82 38.14 39.60 40.55 43.19 46.38 51.56 59.20 59.32 58.48 57.82 57.88 58.04 57.96 58.02 57.49 57.37 57.75
31.92 28.60 22.77 24.60 31.06 33.52 30.85 31.80 30.34 23.20 23.11 25.48 25.70 23.97 37.14 35.66 35.46 35.72 35.07 35.00 34.50 33.60 33.47 33.46 33.55 34.47 34.99 35.82 37.13 38.21 40.82 44.55 47.42 51.52 57.80 57.62 57.60 57.98 57.44 57.30 57.10 56.40 56.20 55.92
29.93 24.58 18.26 20.37 26.20 29.67 27.31 28.33 29.42 27.88 25.94 20.24 18.67 22.97 36.52 37.83 36.62 36.02 34.70 34.37 33.43 33.00 32.48 32.44 32.42 32.46 33.26 34.34 35.23 36.98 39.18 42.14 44.79 48.22 54.90 57.76 57.78 57.96 57.26 57.00 56.60 56.24 56.10 54.89
33.49 25.92 21.85 16.32 20.93 25.40 23.85 25.52 26.51 24.36 11.03 16.09 20.49 23.49 28.92 33.98 34.93 34.78 34.30 33.89 32.55 32.45 32.09 31.77 31.49 31.88 32.66 33.62 34.16 35.45 36.90 39.43 40.96 42.27 44.06 46.31 47.22 57.24 58.16 57.88 57.74 57.18 56.92 55.15
28.78 22.37 24.82 25.04 25.73 24.93 24.25 23.10 22.66 21.58 23.17 17.32 22.31 23.27 28.58 33.77 34.83 34.18 33.91 33.07 31.57 31.09 31.05 31.11 30.88 31.26 31.82 32.12 32.87 34.13 35.37 37.05 39.43 38.75 38.24 39.05 40.86 42.31 46.79 51.40 48.75 47.55 46.86 46.37
27.40 21.94 23.23 21.22 24.51 23.29 21.74 23.29 23.89 24.73 25.21 25.19 25.30 24.68 33.53 36.36 34.75 31.77 30.93 30.63 29.68 29.42 30.07 30.42 30.69 30.82 30.98 31.56 32.11 32.89 33.51 34.79 36.55 37.13 37.10 37.26 37.25 37.58 37.97 40.32 41.53 41.24 40.96 40.25
24.27 20.15 18.82 15.95 23.72 22.76 18.23 23.26 27.62 28.37 30.21 30.04 23.31 27.76 34.34 30.92 28.90 28.32 29.02 29.28 29.15 28.98 29.21 29.55 29.95 30.38 30.69 30.98 32.13 31.72 32.42 33.64 33.90 33.86 35.30 36.42 36.26 35.33 33.93 34.36 36.80 36.80 36.88 36.88
22.98 21.50 19.31 16.74 20.34 7.99 23.96 31.92 31.34 28.51 31.07 29.91 31.91 34.42 35.18 29.13 28.76 29.22 29.88 28.82 28.89 29.14 29.19 29.60 30.06 30.37 30.51 31.27 31.20 31.54 31.65 31.69 31.78 31.93 32.49 33.83 34.65 34.22 33.72 32.24 32.50 33.48 34.00 33.93
26.59 23.13 16.10 11.48 15.09 20.45 24.54 28.09 26.30 26.45 26.41 29.90 29.89 31.04 29.44 28.75 27.93 26.91 30.00 30.10 29.79 30.48 30.56 30.33 31.03 30.88 30.62 29.65 29.70 29.58 28.76 29.63 29.73 29.85 30.44 31.60 32.33 32.33 32.22 32.05 31.42 31.46 31.21 31.14
26.68 27.67 22.00 20.74 11.39 8.56 20.86 27.96 32.06 31.77 22.40 28.33 28.31 28.94 29.65 29.65 27.50 23.30 29.06 29.69 28.90 29.54 29.10 28.54 29.61 30.44 29.74 29.63 28.84 27.85 26.78 26.67 26.57 27.96 29.47 30.63 31.21 30.78 30.00 30.32 30.65 30.92 30.96 30.31
22.96 23.65 19.48 18.77 16.01 18.91 26.09 29.00 31.50 21.88 20.56 27.82 27.60 27.38 30.38 24.44 26.23 28.03 28.29 26.73 27.32 27.77 27.72 28.29 28.65 28.35 27.54 28.95 28.24 25.52 24.84 24.64 26.57 27.93 28.15 27.86 29.05 29.57 29.54 29.32 29.47 29.55 29.43 29.34
23.26 21.68 21.28 22.40 18.24 14.49 28.36 28.55 21.84 26.60 29.04 28.65 27.55 26.54 25.25 24.87 24.26 23.27 23.31 23.14 24.02 24.89 25.46 26.35 26.64 26.68 28.59 27.57 26.84 25.04 24.09 25.61 25.72 26.02 25.71 25.88 26.64 27.41 27.56 27.52 27.96 28.20 28.17 27.38
18.02 21.59 21.32 23.16 19.97 28.94 29.51 28.14 29.42 29.58 27.97 27.39 26.39 25.56 24.57 22.08 20.20 20.75 20.42 19.87 20.25 22.20 23.13 24.63 24.53 24.93 25.87 27.90 27.50 25.11 26.01 26.07 25.15 24.39 24.32 24.77 25.02 25.15 25.48 24.79 24.82 25.21 26.25 26.67
27.12 30.22 25.43 25.46 26.80 27.21 29.12 29.23 29.41 28.26 26.50 26.42 25.53 24.01 22.82 19.78 19.13 17.91 16.52 17.23 17.73 19.31 20.82 22.32 22.15 21.85 22.55 24.72 26.41 28.76 27.42 26.80 26.04 24.53 23.87 23.90 24.91 24.23 24.73 25.28 25.49 24.77 24.28 24.76
26.36 27.30 25.83 25.23 27.09 27.71 28.48 28.86 28.94 27.84 27.30 25.34 25.06 24.19 22.74 20.77 19.84 20.15 18.55 17.08 16.71 17.01 18.37 20.19 20.30 20.32 20.76 22.59 23.06 25.21 27.35 26.96 25.11 24.26 23.77 23.27 23.02 23.37 24.35 25.32 24.95 25.35 27.13 26.86
28.67 24.19 21.69 18.44 27.34 26.51 26.66 29.73 29.87 27.17 26.17 25.79 23.69 22.31 22.63 21.58 19.73 19.43 18.35 19.30 18.51 17.21 17.61 16.86 17.56 17.75 18.22 19.57 20.40 21.63 25.07 26.62 25.93 23.85 22.90 22.16 22.42 22.25 22.59 23.19 21.41 27.63 28.73 29.21

GFSCGP_sfc_wetblb_099.txt.gz
Wetbulb
39.37 35.76 32.35 35.11 37.38 37.15 35.87 33.97 33.46 36.23 38.82 36.08 36.83 37.97 40.19 43.07 42.17 42.54 43.17 48.29 48.80 49.26 50.93 51.92 52.36 52.64 52.96 53.88 53.49 54.13 54.40 55.90 56.78 66.49 65.86 64.50 63.64 65.22 65.98 66.65 65.91 66.02 65.72 64.65
35.54 32.98 37.46 38.31 36.95 35.90 35.13 33.07 32.37 35.73 37.66 36.69 38.04 37.67 40.96 42.11 42.03 43.16 47.70 47.42 47.82 48.56 49.60 50.16 50.71 50.95 51.09 51.09 51.98 52.24 53.37 54.42 55.17 62.70 66.47 66.11 64.50 65.23 66.66 66.42 65.55 65.79 65.08 64.30
33.73 36.90 39.26 36.89 34.83 33.13 33.78 32.33 33.13 34.20 36.98 38.83 36.60 36.03 37.41 40.17 44.36 47.28 48.00 47.31 47.81 47.70 47.25 48.01 48.10 48.80 49.50 49.11 49.88 50.49 51.76 52.94 54.88 57.32 65.68 66.38 65.72 65.79 64.36 64.93 64.49 65.19 65.37 64.08
36.45 40.40 36.88 36.20 34.99 36.17 31.88 36.84 36.85 35.21 33.93 31.34 37.36 29.27 35.15 39.37 41.04 45.15 45.50 46.62 47.79 47.37 47.10 47.07 46.57 46.82 47.36 47.86 48.07 47.61 49.55 52.17 54.56 57.69 63.25 64.30 62.25 61.15 64.03 65.04 64.83 64.56 63.87 63.25
35.53 36.26 35.83 34.69 35.94 37.63 35.03 39.08 36.67 35.91 33.56 32.83 33.62 31.43 34.28 38.01 39.01 42.60 44.75 46.92 46.63 46.37 45.37 44.70 44.92 45.24 45.71 45.11 44.55 46.02 47.52 49.56 53.10 57.89 61.86 65.04 63.13 64.75 65.81 65.70 63.53 63.46 64.43 62.85
37.33 39.74 38.67 38.01 39.20 39.08 40.29 37.22 36.74 35.08 34.05 27.65 32.94 32.08 31.93 36.22 39.85 41.99 44.58 46.28 44.70 43.97 43.47 43.73 44.31 43.41 42.39 43.29 43.54 44.20 45.66 47.28 50.78 58.11 61.79 64.37 63.72 63.98 64.02 63.60 62.88 64.20 63.09 60.43
34.17 35.59 39.02 39.92 36.37 38.54 38.08 34.75 27.48 25.50 25.60 25.39 32.42 30.56 34.64 38.63 42.06 43.53 44.34 43.64 42.76 41.81 40.72 40.85 40.77 39.58 39.87 40.42 41.46 43.06 44.48 45.56 49.07 52.90 63.40 64.01 63.68 63.97 64.12 63.61 63.01 62.43 61.56 60.04
29.01 26.70 34.89 38.06 37.28 35.41 34.65 34.55 28.33 21.02 23.04 26.53 31.94 28.42 34.61 41.89 45.27 44.20 42.44 41.44 40.68 39.55 39.37 39.35 39.18 39.19 38.37 39.23 39.96 41.34 43.07 44.20 48.06 51.17 63.36 63.84 62.72 62.59 64.21 64.37 62.75 62.40 61.91 62.07
29.70 28.62 36.83 36.59 36.89 37.22 34.13 31.79 35.66 29.74 30.26 27.30 30.82 33.45 39.00 42.72 42.30 41.32 40.28 39.43 38.46 37.66 38.01 38.06 38.45 38.59 37.61 37.96 38.92 39.92 41.72 43.47 47.58 51.75 63.04 62.99 61.33 60.67 61.06 64.21 64.23 63.43 62.60 61.78
31.07 26.04 32.86 34.74 37.76 35.83 35.59 37.07 30.86 31.58 22.66 21.27 27.23 29.60 31.85 36.29 37.64 38.58 38.48 37.84 37.41 37.07 37.10 37.21 36.99 37.15 36.98 37.92 38.67 39.63 40.88 43.12 46.61 50.57 61.66 60.47 60.64 60.81 60.42 61.14 60.43 61.02 61.00 59.82
33.22 30.49 28.33 32.16 29.97 27.87 30.03 29.90 32.54 32.60 30.83 24.85 23.04 27.86 37.19 36.50 36.93 36.72 36.67 36.83 36.61 36.21 36.29 35.95 36.10 36.69 36.43 36.78 37.53 38.12 39.51 42.08 45.47 47.02 58.43 60.00 59.93 59.08 59.22 59.39 60.60 60.27 59.65 59.54
32.36 29.96 24.53 25.92 32.26 34.16 33.46 31.69 31.35 25.88 24.38 27.21 26.79 27.93 39.22 38.25 37.56 37.36 35.99 36.36 36.04 36.18 35.91 35.80 35.15 35.35 34.80 34.87 35.58 36.09 38.16 39.48 43.79 45.05 50.89 58.37 58.97 59.43 59.48 59.07 59.54 59.70 58.32 58.58
31.70 26.75 21.04 23.18 28.60 31.65 28.34 29.66 29.59 28.64 28.01 22.21 22.89 27.07 38.89 37.70 35.67 35.08 34.64 34.93 35.05 34.87 34.47 35.11 34.38 33.61 33.37 33.70 34.27 35.13 37.01 37.53 41.29 42.80 43.80 45.81 46.84 56.57 58.74 58.96 58.28 58.57 57.96 57.72
35.12 27.71 24.12 21.18 23.68 27.72 24.73 27.01 28.13 26.39 22.84 22.40 24.99 27.21 31.73 33.58 35.06 34.92 34.70 34.25 34.02 33.48 32.45 33.47 33.04 32.49 32.85 33.07 33.39 33.66 34.99 36.11 37.84 39.98 40.48 40.18 42.25 43.56 49.18 58.26 58.51 58.25 58.05 58.35
31.79 24.32 26.49 26.96 27.37 27.23 26.45 26.00 26.12 23.63 25.00 20.58 24.51 24.95 29.43 32.37 34.71 34.23 33.32 33.37 31.94 30.96 30.99 31.48 31.21 31.36 31.77 32.00 32.30 32.91 33.51 34.20 35.89 36.69 37.78 38.06 39.09 38.98 39.79 44.58 44.58 55.89 53.05 50.98
29.92 24.60 25.41 22.77 26.80 26.58 23.67 26.01 25.80 25.96 26.13 25.95 27.41 27.78 35.21 36.33 35.23 32.36 31.32 30.88 29.99 29.40 30.00 30.30 30.75 30.95 30.57 30.89 31.23 31.54 32.35 32.97 34.26 33.73 34.62 37.03 37.38 37.28 36.11 36.71 38.64 40.02 42.62 41.73
26.70 24.85 21.57 17.37 24.08 23.76 19.63 24.53 25.90 28.07 30.56 30.01 25.13 30.65 35.80 32.06 30.89 29.93 29.47 29.99 29.32 29.20 29.34 29.65 29.89 30.26 30.06 30.17 30.63 30.74 31.02 32.21 32.08 32.43 33.04 34.16 35.82 35.92 36.34 35.23 34.78 33.83 35.47 36.45
25.76 24.31 22.81 18.85 21.35 11.31 26.03 31.14 31.29 27.45 30.15 30.18 30.02 32.29 35.19 31.99 29.49 29.83 30.62 29.96 29.23 29.45 29.02 29.57 29.91 29.93 30.26 30.39 30.22 31.06 30.99 30.74 30.30 30.27 31.03 31.91 32.96 33.82 34.90 34.46 33.05 31.98 31.96 33.10
29.57 26.20 21.28 17.87 18.03 22.19 25.89 27.68 26.21 25.56 25.81 27.95 26.90 30.72 28.60 28.32 28.28 27.69 30.51 30.21 28.78 28.57 28.85 28.98 29.94 29.34 29.92 29.50 29.93 29.57 29.19 29.76 29.16 28.65 28.83 30.38 30.90 30.41 31.42 32.04 31.98 31.81 31.49 31.18
28.21 28.96 23.88 21.05 15.50 13.75 21.95 27.88 30.93 30.81 22.10 27.42 26.93 26.87 28.07 29.02 26.34 24.15 27.98 28.68 27.59 28.12 28.65 28.76 29.56 29.38 28.40 28.96 28.93 27.71 27.46 27.25 26.91 28.20 29.08 29.80 29.99 29.48 28.69 29.35 30.35 31.47 31.34 30.11
23.59 23.29 20.60 20.53 19.72 22.29 26.37 28.61 30.75 21.20 21.28 27.42 26.93 26.24 30.16 23.44 25.08 26.08 26.79 26.07 27.00 27.40 27.94 28.54 28.48 28.01 29.10 29.09 28.32 26.24 26.17 25.33 27.00 28.43 28.29 28.53 29.66 29.14 29.22 29.39 29.78 29.43 29.25 29.33
24.08 22.40 21.67 22.31 19.43 16.63 28.51 27.98 22.39 26.01 29.11 27.59 26.39 25.89 23.86 23.79 23.81 23.30 23.10 22.81 24.02 24.75 25.97 26.93 26.76 26.64 27.97 29.40 28.70 26.52 25.34 27.23 27.18 27.24 27.62 27.29 27.80 28.90 29.66 28.56 28.87 29.64 29.89 28.53
22.70 25.16 23.90 23.66 22.66 29.01 29.25 27.43 29.01 29.23 26.66 26.84 25.53 25.11 24.10 21.92 20.80 21.05 20.81 21.07 21.48 23.16 24.46 25.96 25.80 26.14 26.74 27.41 27.99 26.78 27.33 27.99 27.41 26.72 25.82 27.63 27.64 28.31 29.45 29.22 28.86 29.28 29.58 28.94
28.09 30.10 26.01 25.44 26.88 27.47 28.80 29.24 28.60 28.10 26.20 26.14 25.52 24.58 23.34 20.50 20.31 19.29 19.56 19.60 20.11 21.09 22.28 23.96 24.09 23.75 23.77 25.86 26.64 26.88 28.72 28.43 27.82 26.59 26.35 26.83 27.04 26.97 28.55 28.98 29.15 28.74 29.39 28.77
27.21 28.37 26.40 25.06 27.22 28.17 28.46 28.89 28.25 27.18 26.79 25.32 25.58 24.74 23.15 21.64 20.89 21.04 20.30 19.78 19.93 20.19 20.78 21.81 21.77 22.04 22.28 24.46 25.05 26.23 28.05 29.28 26.82 26.17 26.44 26.24 26.32 26.31 25.98 27.24 28.21 28.83 29.93 29.64
28.57 25.41 25.24 23.17 28.01 27.34 27.40 29.44 29.68 27.17 25.89 25.36 23.72 22.60 22.90 21.99 20.19 20.40 19.62 20.42 20.17 19.10 19.41 19.07 19.14 19.39 20.09 22.17 22.59 23.76 26.72 28.35 27.88 26.69 25.05 24.83 25.79 25.72 25.48 25.44 25.37 26.84 28.84 29.19

GFSCGP_sfc_wetblb_102.txt.gz
Wetbulb
41.90 36.60 37.24 40.99 42.13 41.32 40.74 40.38 40.07 42.08 44.07 40.82 41.32 41.24 43.45 46.92 47.89 47.78 48.34 49.31 51.45 53.07 54.79 55.99 56.62 57.07 57.23 57.66 57.21 57.52 58.22 59.44 59.94 60.08 59.18 64.49 65.88 67.65 68.12 69.66 69.69 69.41 69.28 68.80
38.73 35.25 42.28 43.41 42.16 39.82 39.83 38.30 38.66 41.47 42.66 40.68 41.10 41.94 45.06 46.63 47.21 47.32 47.70 50.82 51.36 52.45 53.15 54.39 54.95 55.64 55.79 55.71 56.28 56.03 56.30 57.07 57.72 58.88 59.80 61.95 65.69 66.60 67.18 68.76 70.10 69.17 68.39 68.71
34.85 39.40 41.10 40.51 38.91 36.51 38.03 37.31 37.89 37.28 41.33 42.93 41.95 40.58 43.16 44.52 46.26 49.11 50.74 51.24 51.76 51.15 51.39 52.39 52.62 53.39 53.97 53.64 53.92 53.70 54.23 55.00 56.06 57.59 58.97 59.79 64.79 66.58 66.51 66.77 67.82 68.63 68.24 67.60
34.39 38.15 36.51 38.38 37.41 39.06 35.08 40.07 38.70 38.51 38.36 35.52 41.96 35.10 40.28 42.67 44.77 47.43 49.51 50.25 51.20 50.98 51.27 51.37 51.18 51.21 51.27 51.79 51.90 50.56 51.09 52.46 53.23 55.28 57.11 58.97 59.95 63.41 65.41 66.01 66.60 66.95 66.67 66.22
36.22 36.77 35.77 33.69 38.31 40.38 37.44 40.89 39.52 39.99 38.77 38.54 38.68 35.34 39.55 42.53 41.60 45.62 48.50 49.87 49.99 49.99 49.83 49.44 49.38 49.64 50.11 49.84 48.51 46.79 47.30 48.85 49.67 50.92 52.43 57.11 59.51 65.29 66.00 65.96 65.25 65.25 65.31 65.11
38.50 41.49 39.10 37.66 39.62 40.33 41.60 39.24 39.97 40.34 38.64 31.77 36.96 36.52 37.75 39.76 42.45 45.35 48.42 48.78 48.45 48.46 48.87 48.76 49.11 49.10 49.10 49.25 47.55 44.71 44.28 44.94 47.09 48.68 50.69 53.97 60.03 62.34 65.17 65.03 63.79 63.76 63.87 64.33
36.69 36.81 40.80 42.01 37.90 40.55 38.93 35.59 28.82 27.00 27.66 28.75 37.46 35.93 38.47 42.58 45.10 46.47 47.48 47.19 47.29 47.84 47.35 47.17 46.86 46.60 46.83 46.21 45.72 43.07 42.10 42.44 44.45 46.05 48.80 53.84 60.44 61.48 65.18 64.91 64.43 62.71 62.71 63.35
29.95 27.62 37.30 41.51 39.19 36.57 36.56 35.93 29.29 22.72 26.64 31.25 36.54 32.06 38.43 46.17 47.73 47.56 46.86 46.31 46.66 46.50 46.28 46.03 45.43 45.23 45.11 44.25 44.60 42.27 40.11 40.66 42.83 45.48 49.00 53.72 62.94 63.37 66.47 64.97 64.43 63.61 63.76 64.73
32.11 31.11 39.13 39.47 40.37 40.82 37.49 34.53 40.32 33.38 34.22 31.75 34.93 37.83 43.21 43.65 43.53 44.17 44.43 44.77 44.72 44.77 44.54 44.20 44.66 44.09 44.00 42.96 42.95 40.06 39.33 40.15 41.97 45.20 47.69 53.35 65.58 65.92 64.87 64.49 64.47 64.05 66.85 66.63
35.16 29.16 36.57 37.38 39.93 39.26 40.17 42.00 33.10 34.88 25.55 25.09 32.35 34.13 36.45 38.78 40.43 41.61 42.05 42.89 43.54 43.63 43.33 43.10 43.01 42.55 42.93 42.39 42.76 39.55 39.14 39.42 40.84 43.82 46.79 51.91 63.39 63.98 64.36 64.49 64.48 62.91 65.69 64.73
35.53 33.63 32.56 35.26 34.06 33.99 35.74 35.80 36.82 36.41 34.25 27.57 27.11 33.12 40.16 39.56 39.75 39.96 41.53 42.32 42.59 42.38 41.79 41.41 41.73 41.78 41.96 42.14 41.37 37.81 37.77 37.94 39.34 41.90 45.65 49.01 61.30 62.76 63.15 63.11 62.84 61.98 63.06 63.78
36.22 33.25 28.98 30.21 35.80 36.68 35.15 34.59 34.47 30.19 29.05 32.41 31.39 31.89 42.16 41.44 40.48 40.22 40.64 41.11 41.07 41.26 40.59 40.71 40.91 40.61 40.49 40.55 39.37 36.89 36.32 36.48 37.88 39.90 43.07 46.43 48.42 54.89 59.95 60.22 60.64 61.69 61.16 62.29
34.89 30.99 25.58 27.39 32.16 34.48 31.79 32.85 33.00 32.26 31.92 28.38 26.37 30.55 41.91 40.19 40.01 39.57 38.39 39.17 40.08 39.16 39.10 39.58 39.82 39.17 39.00 38.98 37.41 34.54 34.62 34.91 35.75 37.95 41.06 42.29 42.46 45.42 47.63 57.95 59.94 60.55 61.41 61.65
36.46 31.56 28.95 26.04 27.87 31.66 27.86 30.26 31.32 29.74 27.15 27.72 29.06 31.04 36.31 37.16 36.70 39.37 39.35 38.08 38.56 37.35 36.77 37.08 37.58 38.20 38.20 37.82 37.05 33.58 33.19 33.83 34.31 35.69 38.08 38.82 41.40 41.70 42.41 46.41 53.62 59.03 59.64 59.63
34.84 27.63 28.84 29.17 29.93 29.80 28.95 29.26 30.02 28.20 29.37 24.85 29.16 28.96 33.01 36.81 39.10 39.86 38.34 37.35 35.67 33.64 33.69 34.65 35.42 35.73 36.80 35.95 35.31 35.13 32.99 33.07 34.43 33.89 33.87 36.66 38.55 39.11 39.06 39.32 41.22 44.94 51.86 57.60
33.25 26.94 28.57 25.81 29.11 29.09 27.20 29.82 30.33 30.03 30.02 29.72 30.23 30.39 38.83 39.54 39.38 35.54 35.48 34.80 33.26 32.89 32.54 33.19 33.99 33.86 34.29 33.44 33.05 33.15 33.63 32.80 32.78 32.48 33.10 34.39 35.29 37.78 38.30 37.17 36.42 37.08 37.63 40.66
29.26 28.56 25.15 22.35 26.64 26.17 23.35 28.25 30.09 30.78 32.18 32.41 28.72 33.52 36.44 35.60 34.77 33.13 33.17 32.12 31.44 31.04 31.17 30.97 31.68 32.36 32.73 32.22 32.53 32.49 32.67 33.76 31.62 31.00 31.87 31.95 32.65 33.89 35.34 36.18 35.38 33.89 34.21 34.59
28.77 27.84 26.86 23.96 24.56 16.18 28.43 33.90 33.02 29.50 32.32 32.19 32.06 32.44 32.92 32.01 31.46 31.82 31.91 30.75 30.36 30.02 29.52 29.40 30.67 31.21 31.86 31.98 32.04 32.81 32.90 32.02 32.16 30.63 30.31 30.87 31.24 31.42 32.51 34.19 33.68 33.00 32.82 32.08
33.25 30.23 25.78 23.52 23.58 26.30 26.84 28.96 28.12 27.25 26.22 29.75 28.68 30.31 29.23 31.02 31.74 28.87 30.79 30.34 29.42 29.52 30.63 30.33 31.01 31.35 30.81 30.61 31.68 31.75 30.97 31.26 30.81 30.50 30.73 30.90 30.39 30.16 30.53 29.93 31.41 32.04 32.15 31.47
31.97 32.74 29.41 25.60 19.41 17.79 27.64 31.09 33.29 30.65 23.57 28.53 28.22 28.32 30.92 31.52 29.76 26.23 28.72 29.48 28.97 29.92 30.44 30.80 31.15 31.07 30.52 30.37 30.99 30.30 29.48 29.20 29.00 29.54 29.82 31.47 32.04 30.67 30.13 31.04 30.34 30.58 30.35 28.94
26.26 26.16 24.36 24.83 23.67 25.75 26.95 31.85 32.71 22.97 23.79 28.31 27.77 27.45 29.90 26.73 27.47 27.29 28.24 27.58 29.25 29.89 30.05 30.95 30.69 29.60 30.47 32.64 31.41 29.30 29.10 27.75 29.02 30.75 30.70 30.63 31.55 31.54 31.73 31.73 31.92 31.73 30.83 29.43
26.77 25.04 24.85 26.34 22.73 19.30 31.46 31.47 26.72 27.44 29.96 28.89 28.20 27.36 26.14 26.31 25.81 25.48 25.44 25.13 26.75 27.97 28.90 29.93 29.37 28.94 30.20 30.81 31.21 29.63 28.37 30.17 30.72 30.59 30.57 30.40 31.07 31.89 32.46 32.28 32.28 31.92 31.73 30.96
26.00 28.48 28.21 26.69 25.55 29.79 30.25 28.40 29.82 31.14 29.54 28.66 27.23 26.81 26.18 24.30 22.99 23.74 23.68 24.09 25.21 26.94 27.99 29.74 29.44 29.12 29.15 29.85 29.68 28.89 30.65 31.69 31.81 30.97 29.95 30.66 31.48 31.49 32.39 31.67 31.49 33.01 32.37 31.95
30.02 33.14 29.42 28.72 29.02 29.33 29.60 29.82 30.13 29.68 28.25 27.90 27.91 26.82 25.69 22.68 22.90 22.62 23.52 23.88 24.34 24.94 25.74 27.94 28.35 27.18 27.18 29.02 29.26 29.65 31.19 32.88 31.70 30.51 30.11 30.01 30.18 30.34 30.25 31.38 31.19 29.25 30.55 30.85
32.57 33.23 29.17 27.49 29.26 29.61 29.76 30.18 29.41 28.36 28.36 27.23 27.23 26.54 25.22 25.00 24.79 24.81 24.24 24.36 24.29 24.31 24.79 25.60 25.30 25.51 25.92 27.71 27.85 29.20 30.21 31.99 31.29 30.17 30.10 30.28 30.03 29.79 29.16 27.65 27.62 28.72 28.76 28.72
33.41 30.52 28.82 28.18 31.13 30.89 29.15 30.24 30.39 27.88 26.72 27.16 25.98 25.27 25.94 25.61 24.14 24.59 23.63 24.10 23.87 22.78 22.93 22.73 22.93 23.40 24.79 25.96 25.63 27.19 29.64 29.98 29.86 28.87 28.43 28.36 29.29 29.44 29.51 29.18 27.22 26.08 26.41 27.10

GFSCGP_sfc_wetblb_108.txt.gz
Wetbulb
47.31 42.08 39.05 41.58 43.83 44.18 43.32 41.61 40.68 44.21 47.54 46.31 45.56 44.82 47.49 49.74 49.90 49.15 48.91 49.55 50.55 51.97 55.67 56.72 57.44 58.15 57.67 57.81 57.40 56.86 56.76 57.03 57.22 57.31 57.17 57.68 58.32 60.57 60.83 64.60 67.49 69.03 69.31 69.44
42.70 39.07 43.43 44.81 44.12 43.08 42.31 40.25 39.55 43.46 45.85 44.98 43.68 41.72 44.21 48.28 48.67 49.47 48.85 49.01 50.29 51.88 53.81 54.94 55.58 56.20 56.40 55.83 55.11 54.86 54.77 54.72 54.89 55.63 56.05 56.52 56.58 57.53 59.11 60.56 61.77 66.70 67.71 68.12
39.97 42.44 45.60 43.76 41.98 40.06 40.05 39.13 38.70 38.40 42.30 43.34 41.47 38.71 41.99 47.10 48.58 49.10 50.06 50.13 51.28 52.82 52.82 53.22 53.63 54.46 55.10 54.22 53.92 53.36 53.24 53.01 53.56 54.33 54.26 54.98 55.74 56.18 57.50 58.37 59.34 61.16 66.86 67.69
42.00 45.54 43.25 42.02 40.49 40.95 35.76 42.37 40.95 38.84 36.36 31.52 40.68 30.48 38.84 43.65 45.27 46.72 48.46 50.09 51.95 52.37 52.68 52.35 52.28 52.37 53.22 52.85 53.08 52.59 52.19 51.98 52.19 52.34 51.14 50.58 50.49 50.55 53.15 55.53 58.65 60.84 66.80 66.83
40.22 41.73 40.94 39.04 40.37 42.42 38.27 40.60 38.94 38.00 35.25 34.32 34.76 31.19 36.66 42.93 41.84 44.90 48.05 50.56 51.49 51.26 51.53 51.04 50.81 50.89 51.35 51.53 51.07 51.04 50.07 49.57 49.31 49.55 48.70 46.84 46.55 49.47 51.67 53.66 55.57 58.58 60.99 66.09
41.96 45.69 42.93 41.78 43.19 43.04 41.54 37.52 37.64 37.21 34.49 27.32 33.26 31.93 32.80 38.76 42.81 45.09 48.43 49.69 50.11 50.34 50.33 50.15 50.26 50.26 49.38 49.95 49.60 48.22 47.24 46.55 47.44 47.28 45.76 44.38 43.78 45.36 47.05 49.19 51.69 54.81 59.58 63.18
40.10 39.84 43.57 43.75 39.05 41.42 38.60 33.43 27.16 25.65 26.48 25.82 36.48 32.57 34.73 42.21 45.02 46.85 47.13 48.45 49.21 49.50 48.70 48.10 47.38 47.12 47.26 47.16 47.19 46.17 45.33 44.57 46.07 45.38 43.41 42.75 43.03 43.95 44.95 46.99 49.29 51.77 55.88 60.41
32.99 31.83 39.86 43.18 39.65 37.23 36.02 33.73 27.95 21.70 24.12 27.67 35.83 29.79 34.55 44.95 47.81 47.91 47.99 47.76 47.78 47.11 47.42 46.58 46.53 46.26 46.02 45.95 45.56 44.43 43.71 43.14 43.71 43.22 42.16 41.73 42.48 44.02 46.00 47.58 49.96 51.53 55.21 59.51
34.18 34.41 43.42 43.31 42.97 41.37 35.93 31.50 37.14 30.26 31.01 28.41 31.91 35.61 40.62 44.96 44.95 45.37 45.59 45.40 44.68 44.94 44.72 45.02 45.75 45.77 45.38 44.78 44.56 43.29 41.78 40.98 41.49 41.30 41.07 40.57 42.36 44.15 45.14 46.94 49.83 53.25 56.25 59.19
38.07 32.02 39.66 41.98 42.77 41.85 39.40 41.14 31.54 31.36 23.66 23.01 30.55 32.48 33.87 39.57 41.02 42.96 42.26 42.12 42.47 43.14 43.18 44.11 44.46 44.69 44.40 43.92 43.64 43.13 41.32 39.34 40.13 40.04 39.51 40.19 40.95 43.10 44.72 47.08 49.35 55.81 58.89 62.35
40.18 36.51 35.15 38.93 36.82 35.90 37.01 35.24 35.49 35.03 32.47 26.25 25.26 30.39 39.13 37.99 39.57 40.20 41.29 41.67 41.93 42.09 42.10 42.59 43.42 44.00 43.04 42.85 42.00 41.31 40.33 38.35 37.39 37.87 38.57 39.08 39.22 40.79 42.87 43.92 45.80 47.81 51.90 62.11
41.30 36.92 31.44 34.31 40.50 41.01 39.94 36.68 35.81 31.05 28.92 31.66 30.41 30.07 41.19 39.40 40.85 41.74 41.37 41.64 42.11 41.84 41.19 41.42 42.10 41.93 40.90 40.36 39.60 39.46 38.60 37.64 36.08 36.33 37.54 37.28 37.74 38.74 40.39 41.12 43.28 46.73 46.78 52.84
40.05 34.45 28.05 29.91 35.38 38.42 35.45 37.44 37.86 36.07 34.83 28.53 25.45 28.16 40.88 41.43 41.24 41.92 41.01 41.40 40.98 40.35 39.48 39.23 39.43 38.69 38.63 38.28 38.05 37.90 37.42 36.78 35.88 34.83 35.35 35.57 35.34 36.18 37.53 38.98 40.39 42.95 43.74 46.57
39.26 35.47 31.93 27.16 29.43 35.34 32.76 35.04 36.37 34.75 28.47 29.20 29.78 31.56 36.73 37.55 38.48 40.02 40.21 40.51 39.03 37.71 37.15 36.54 36.37 36.08 36.57 36.45 36.34 36.63 36.40 36.37 35.69 34.15 33.76 33.60 34.23 34.97 35.44 37.11 38.28 39.73 40.84 41.66
37.83 30.55 33.89 34.78 33.90 33.80 34.01 33.45 34.15 31.99 32.53 28.55 30.92 31.24 34.23 37.18 38.22 38.40 38.83 38.35 36.75 35.22 34.97 34.49 34.12 33.93 34.06 33.87 34.75 35.52 35.62 35.04 34.81 33.72 32.86 32.69 33.76 34.26 34.03 34.48 35.19 36.87 37.82 38.62
37.37 29.87 32.80 30.03 33.84 33.08 30.52 32.51 32.85 33.14 33.22 32.45 32.39 31.43 37.14 36.88 37.32 35.65 35.57 34.90 33.35 32.90 32.54 32.68 32.63 32.51 32.13 32.39 33.22 34.33 34.30 33.89 33.73 32.73 32.55 33.25 33.38 33.17 32.47 32.38 32.15 32.66 33.88 34.76
33.48 32.03 28.82 25.29 31.75 29.64 25.25 30.46 31.86 32.93 34.39 33.93 29.02 32.71 35.74 32.12 31.41 31.09 32.35 32.01 30.87 30.41 30.03 29.97 30.73 31.20 31.10 31.95 33.37 32.84 33.30 33.50 32.88 32.34 32.45 32.72 32.93 32.50 32.39 31.96 30.74 29.92 30.12 31.61
32.61 31.64 30.32 26.22 27.61 18.19 30.84 35.70 34.92 32.09 33.18 34.07 34.15 33.77 33.37 31.40 30.71 30.32 30.96 29.88 28.63 29.11 29.22 29.47 30.53 31.21 31.58 32.85 32.53 32.81 32.56 32.06 31.81 31.46 31.64 32.53 32.48 32.45 32.68 32.23 30.83 29.60 28.80 28.08
35.77 32.46 27.23 23.89 23.67 28.81 30.68 32.22 29.60 28.13 28.64 31.31 31.06 32.57 33.14 31.83 29.79 27.56 29.22 29.31 28.65 29.65 31.01 30.40 31.43 31.90 33.02 31.79 32.72 32.46 31.11 31.08 30.99 30.70 30.79 31.94 32.32 31.79 32.33 31.76 31.61 31.46 29.69 28.33
34.28 34.88 30.63 27.39 22.47 20.26 28.78 33.78 36.72 33.97 24.69 30.13 29.67 28.94 30.25 32.29 26.65 23.87 28.06 29.55 29.51 30.74 31.47 31.06 31.45 31.89 31.67 32.24 33.25 31.31 30.64 30.16 29.77 30.46 30.41 31.39 32.33 31.20 31.09 31.85 31.68 32.15 32.09 30.97
27.69 29.29 26.16 26.70 25.35 25.82 31.77 34.83 36.11 23.70 23.35 28.82 28.04 28.01 31.36 26.81 27.14 27.11 28.01 28.29 30.27 31.04 31.37 32.41 32.00 31.02 31.17 32.39 32.47 31.43 30.84 29.93 31.14 31.74 31.28 30.51 30.80 30.87 30.30 30.70 31.67 31.83 31.86 30.98
27.50 25.93 26.04 28.62 25.70 22.05 33.23 33.92 28.20 28.95 30.88 29.00 27.94 28.67 26.80 27.20 26.08 25.73 26.34 26.65 28.16 29.77 30.96 31.51 30.31 29.95 30.76 31.60 31.47 30.49 31.12 31.97 33.48 32.29 31.61 30.00 29.25 29.81 29.85 28.19 28.49 29.30 29.75 28.67
28.41 30.63 29.74 27.40 26.34 30.06 31.59 29.77 31.59 33.48 30.24 28.87 27.57 27.93 27.68 25.93 24.76 25.79 24.98 25.90 26.80 28.43 29.46 29.90 29.25 28.46 29.33 30.05 30.08 28.49 30.36 32.35 31.96 32.07 31.44 31.37 29.87 28.80 28.40 26.74 25.67 25.69 26.61 26.80
33.53 36.16 30.02 29.52 28.83 28.48 29.54 30.95 31.28 31.43 29.19 29.49 29.38 28.25 27.31 24.76 25.34 25.25 25.54 25.85 25.78 26.69 26.83 28.47 27.92 26.19 25.55 27.48 28.35 29.01 30.57 32.08 31.35 29.16 29.76 30.47 30.20 28.96 27.41 27.28 25.90 24.23 23.83 23.60
34.92 35.35 30.52 28.10 29.50 29.77 29.82 30.30 29.88 29.16 29.66 28.78 29.13 28.15 27.00 26.89 26.51 26.14 25.39 25.22 25.60 25.85 26.33 26.11 25.29 24.33 23.99 24.89 26.02 27.96 29.40 30.21 29.54 29.40 28.18 28.80 28.92 28.80 27.52 25.18 24.88 24.06 23.82 23.76
36.56 33.24 30.71 31.31 32.42 32.39 29.54 30.32 30.87 28.72 28.05 28.90 28.31 27.73 28.30 27.28 25.94 26.34 25.60 25.73 24.86 24.16 24.66 23.85 23.69 22.82 22.70 22.72 23.40 25.62 28.02 28.70 28.11 26.92 27.47 27.09 27.40 27.40 27.47 27.23 25.67 26.81 26.36 26.16

GFSCGP_sfc_wetblb_111.txt.gz
Wetbulb
44.30 37.03 33.24 37.55 40.14 40.47 38.97 37.39 36.10 39.59 43.79 42.06 41.00 41.28 41.49 45.09 46.19 46.58 45.53 45.43 45.05 50.57 52.23 53.33 52.96 52.50 52.41 51.72 51.55 51.57 51.35 51.12 51.61 51.49 51.33 51.95 52.38 53.78 54.81 56.22 57.59 58.51 64.93 67.53
38.80 35.10 40.88 42.61 41.77 39.90 38.52 36.10 35.72 39.47 42.85 41.20 39.17 37.97 41.50 43.85 44.97 46.72 47.63 45.40 46.42 50.97 51.16 51.64 51.33 50.66 50.22 49.61 49.60 49.72 49.63 49.40 49.73 50.41 50.49 50.55 51.27 52.59 54.12 55.51 56.62 57.12 58.12 60.61
36.09 39.34 43.73 41.71 39.44 38.51 37.80 35.87 35.79 35.44 39.31 40.43 37.95 35.65 38.65 43.24 45.80 48.16 49.28 48.14 48.75 50.02 49.54 49.38 49.52 48.60 48.44 47.63 47.60 47.90 47.88 47.87 48.03 48.18 48.60 48.13 48.37 48.95 50.26 51.55 52.53 54.07 56.02 57.88
38.43 43.04 41.46 40.13 38.73 38.99 34.14 39.69 38.21 36.77 34.61 29.76 36.86 27.83 35.50 39.47 41.12 45.08 48.06 46.91 48.38 48.69 48.72 48.10 47.48 46.34 46.34 46.21 47.14 46.40 46.46 45.64 46.77 46.51 45.24 43.79 43.24 43.21 45.77 47.24 49.98 51.25 53.07 54.86
37.59 39.53 38.32 37.08 38.45 39.77 36.41 39.52 37.26 36.16 32.98 33.49 32.60 30.19 33.09 38.98 38.63 42.56 45.54 47.31 47.45 46.97 46.27 45.42 45.32 45.42 45.88 45.51 44.24 44.52 44.98 44.81 44.98 44.71 43.90 42.28 41.26 42.65 44.49 45.52 46.51 48.22 50.23 52.96
40.18 42.83 41.51 39.28 41.77 40.49 40.72 37.04 36.08 34.99 33.82 26.21 31.14 30.97 29.75 33.75 38.92 41.83 45.89 47.03 46.11 44.90 45.01 45.25 45.88 45.87 44.03 43.66 42.48 42.59 42.97 42.94 43.68 42.84 42.51 41.24 40.44 41.34 41.98 42.93 44.04 46.05 48.13 50.23
37.67 38.54 40.69 43.36 37.35 39.55 36.62 32.15 24.68 21.21 24.85 22.39 34.46 31.61 31.84 38.63 43.20 45.26 45.38 44.59 44.41 44.68 43.29 43.39 43.34 42.93 42.98 41.66 41.48 42.43 40.99 39.67 40.99 41.28 41.51 40.70 39.90 40.84 41.14 42.74 44.13 45.67 47.36 49.16
30.93 27.78 38.01 41.72 38.54 34.53 33.55 31.47 24.62 19.42 20.75 26.37 33.73 28.26 33.08 43.89 45.47 44.65 43.89 43.18 43.15 42.84 43.28 42.66 42.60 41.66 41.10 41.64 41.14 39.41 39.13 37.47 38.51 39.90 39.71 39.91 40.12 40.82 41.39 43.46 44.48 45.26 46.91 49.84
31.39 31.90 41.30 42.03 41.76 39.43 35.05 30.17 35.09 29.07 28.88 24.14 27.43 34.21 40.74 39.37 42.30 42.64 41.30 41.39 40.21 41.03 41.60 41.80 41.56 40.70 40.60 40.08 39.90 38.64 38.47 37.00 36.64 37.98 38.34 38.80 39.63 40.16 40.42 41.58 43.77 45.74 48.41 50.52
37.45 30.15 39.25 41.50 42.07 40.56 37.05 38.33 29.21 30.35 21.92 20.88 27.76 31.10 28.59 33.57 34.85 38.79 37.85 38.42 39.14 40.20 40.51 40.86 40.27 39.58 39.53 39.18 38.90 37.74 37.36 37.93 36.46 36.63 36.89 38.03 38.32 38.87 39.49 40.85 42.62 43.40 45.52 47.86
39.12 35.01 33.43 38.50 36.17 33.62 34.58 33.05 34.90 33.90 31.88 24.57 23.71 29.45 33.91 32.23 36.50 36.74 37.34 38.30 37.87 38.19 38.38 38.59 38.20 38.04 37.88 37.50 37.14 37.28 36.51 36.81 35.62 35.49 35.98 36.44 36.56 37.58 38.17 39.25 40.40 41.29 43.20 45.49
40.21 35.64 29.17 32.67 39.44 41.30 38.93 35.00 34.82 27.89 27.02 29.95 29.05 29.44 38.81 37.76 38.27 39.45 38.45 37.42 37.34 37.15 36.62 36.37 35.99 35.97 35.57 35.29 35.69 36.24 36.19 35.60 35.98 35.40 35.33 35.54 35.92 36.40 36.35 36.99 38.35 39.73 40.53 42.79
39.13 32.31 26.89 28.17 33.49 36.92 34.04 35.89 36.86 35.51 33.41 27.20 23.71 27.61 40.35 40.44 39.13 38.73 36.01 36.04 35.88 35.66 34.51 34.04 33.83 33.42 33.47 34.49 34.94 35.21 35.05 34.74 34.84 34.82 34.49 34.58 34.49 34.83 34.40 34.92 35.94 37.03 37.84 39.41
39.93 34.89 29.53 24.21 28.53 32.57 29.94 33.30 35.81 33.24 24.75 26.02 26.96 31.33 34.81 36.74 35.44 36.17 35.08 34.53 33.88 33.53 33.37 32.69 31.83 32.15 32.98 33.42 33.93 34.11 33.75 34.17 33.84 33.79 33.80 33.36 33.98 34.32 33.67 33.70 33.54 33.95 35.25 35.96
36.66 28.56 32.58 34.03 34.76 33.88 32.40 32.90 34.04 32.43 31.43 25.36 29.42 29.23 32.76 33.65 33.00 33.84 34.09 33.84 32.37 31.59 31.19 31.43 31.04 31.11 31.50 31.87 32.98 33.10 32.98 33.17 33.18 32.65 32.96 32.67 33.73 34.43 33.57 32.50 31.77 31.93 32.07 33.00
36.30 28.44 31.44 28.82 33.72 32.43 29.29 31.69 31.26 31.99 32.12 31.52 30.35 28.42 33.13 33.75 33.95 31.52 31.92 31.18 30.06 29.48 29.52 29.88 30.45 29.95 30.29 30.59 31.76 31.66 31.90 32.08 32.58 32.03 32.35 33.16 33.25 33.48 33.01 32.37 31.11 30.29 29.91 30.38
30.76 28.87 27.34 23.46 30.98 30.27 22.84 29.30 31.44 32.41 31.67 32.29 25.92 30.56 31.63 29.43 28.99 28.65 29.34 29.26 28.75 28.31 28.31 28.72 29.30 29.27 29.95 30.20 31.87 30.57 31.77 32.43 31.85 31.53 32.04 32.65 32.48 32.82 32.63 32.62 31.44 30.24 29.14 29.23
30.84 28.82 27.58 24.57 24.57 16.83 28.43 34.28 34.02 30.51 29.75 31.54 31.55 31.10 30.07 28.15 27.93 28.25 28.62 27.65 27.65 28.41 27.21 28.31 28.82 29.95 30.53 31.77 31.85 32.24 32.61 31.60 31.07 30.55 30.70 31.85 30.90 30.86 31.99 31.95 31.83 31.73 30.47 29.20
35.36 29.88 24.14 20.75 21.63 26.87 29.08 31.41 27.43 24.55 25.85 29.19 28.77 30.41 28.83 27.43 26.23 25.49 28.59 28.70 28.56 28.17 29.75 26.91 30.02 31.14 32.31 31.99 32.84 32.84 31.27 31.02 30.43 29.39 29.60 30.43 30.30 29.23 29.44 29.37 30.76 31.38 29.84 28.96
33.51 32.87 25.16 24.07 18.89 15.27 24.29 32.94 34.96 32.94 19.45 27.87 27.09 26.62 29.47 27.84 22.96 21.34 27.80 29.07 28.60 29.71 29.26 30.06 31.13 30.81 30.69 31.50 32.28 31.77 31.13 30.66 29.87 29.95 28.75 29.33 29.73 27.98 27.34 27.53 28.52 29.68 29.86 28.77
25.46 25.70 23.93 23.06 20.51 24.29 32.10 34.45 36.15 18.03 18.93 27.53 28.26 26.39 27.85 22.32 22.57 25.55 28.36 25.84 27.19 30.12 30.63 31.02 30.65 29.60 30.20 31.19 30.97 29.87 30.88 30.06 31.32 31.64 29.87 28.50 28.31 27.31 26.32 26.50 26.71 26.86 27.21 26.26
24.86 23.52 22.46 23.76 19.81 17.76 30.56 31.79 25.42 24.51 28.70 27.72 27.93 25.76 23.18 24.31 25.22 25.35 24.97 23.98 27.37 29.23 30.17 30.52 28.60 27.66 28.20 28.60 28.72 27.51 27.65 29.77 30.72 30.79 30.22 28.13 27.60 27.79 26.92 24.59 24.49 24.90 24.59 24.29
21.73 24.83 23.95 25.22 23.19 29.21 30.53 28.85 32.31 32.03 27.71 27.87 27.41 27.53 26.43 24.81 24.18 22.96 23.33 24.61 25.73 27.56 28.77 28.06 25.89 25.22 25.82 26.41 26.62 25.75 27.17 29.60 28.62 28.21 28.39 27.98 27.27 26.32 26.40 24.21 23.02 22.09 22.44 21.81
32.09 34.92 24.97 25.39 26.81 27.28 28.94 31.08 31.27 30.63 28.82 28.55 28.66 27.37 25.91 23.17 22.32 22.60 24.03 24.24 24.39 24.82 24.48 24.78 23.83 22.42 22.13 23.94 25.23 26.20 27.60 28.83 28.89 26.64 26.62 27.50 27.08 25.43 25.20 24.67 23.72 22.47 21.13 20.80
30.89 32.40 27.57 26.95 28.18 28.71 29.16 29.71 29.41 29.12 29.11 28.08 26.50 25.40 24.75 24.30 23.62 23.94 23.52 22.82 21.73 21.36 22.71 22.99 21.81 21.08 20.46 21.96 22.64 24.32 25.65 27.15 26.31 26.49 25.69 25.50 25.91 25.83 25.01 24.79 24.01 23.78 24.06 24.00
33.37 28.11 23.95 25.17 28.68 28.59 27.34 29.61 29.74 28.00 27.38 28.37 26.88 26.78 27.01 25.77 24.37 24.48 22.42 22.75 22.17 21.03 21.13 20.18 19.89 19.55 19.15 19.54 20.04 21.57 23.70 26.07 25.19 24.83 25.14 24.78 24.80 25.01 25.14 24.61 22.57 27.48 26.97 26.09

GFSCGP_sfc_wetblb_114.txt.gz
Wetbulb
42.39 36.34 32.49 35.90 37.34 38.44 36.77 34.72 33.67 36.96 39.76 38.68 37.69 39.08 41.00 43.48 43.33 43.22 44.37 46.27 47.55 48.60 50.57 50.54 50.08 49.71 49.38 49.00 48.53 48.30 47.87 48.06 47.83 47.95 47.87 48.28 47.79 48.98 50.33 52.05 53.84 55.20 56.48 57.56
37.64 34.87 40.35 40.92 39.47 38.35 37.59 34.85 34.11 37.65 40.12 38.42 36.19 36.80 40.73 42.57 42.65 43.46 43.75 45.76 48.71 49.32 49.23 48.48 47.64 47.23 46.76 46.20 46.19 45.97 45.64 45.86 45.71 46.27 46.62 46.71 46.31 48.09 48.19 50.65 50.45 51.95 52.79 53.73
35.16 38.01 42.43 40.32 38.05 36.47 36.13 34.30 34.44 33.99 36.78 37.33 35.58 33.53 37.26 41.02 42.64 44.27 45.19 45.90 49.73 48.70 47.22 46.30 45.51 44.90 44.40 43.65 43.88 44.04 44.03 44.20 45.04 45.19 44.81 43.94 44.21 45.12 45.70 45.60 46.38 48.36 49.60 50.49
36.95 41.71 39.74 38.59 37.16 37.91 32.29 38.28 37.27 35.84 32.94 27.99 35.60 26.28 34.24 37.33 38.74 41.12 42.94 44.86 46.51 45.96 45.52 44.76 43.65 42.60 42.44 42.12 42.98 43.18 44.38 43.47 44.16 43.54 42.32 40.98 39.88 39.61 42.07 43.05 44.90 45.84 47.83 48.82
35.69 37.03 36.75 35.99 37.42 38.85 35.23 38.55 36.63 35.30 31.32 30.01 31.26 26.99 31.91 37.61 36.09 38.67 42.99 44.37 43.69 44.56 44.04 42.59 42.32 42.00 41.65 41.74 41.04 41.35 41.02 40.87 41.56 41.57 41.01 40.39 39.56 40.10 41.12 42.96 43.76 45.09 46.40 47.89
38.26 41.47 40.46 38.78 40.46 39.64 39.69 36.06 34.83 33.63 31.15 21.41 28.86 28.28 26.37 31.59 37.14 41.14 43.91 43.07 43.21 42.92 42.70 42.30 42.36 42.13 40.75 40.57 40.35 40.17 38.80 37.61 39.45 40.31 39.30 40.44 39.16 39.19 39.90 41.07 42.34 44.31 45.97 47.32
36.56 37.08 40.31 42.15 36.75 38.35 35.20 30.89 25.78 19.07 22.89 20.75 31.92 28.51 29.68 39.53 41.23 43.36 40.43 39.98 41.22 41.61 40.98 40.14 39.44 39.22 39.20 39.14 38.54 39.36 38.07 36.68 36.61 37.38 37.66 39.05 39.33 39.64 39.63 40.10 41.39 41.98 43.34 45.13
29.96 27.77 36.57 40.65 38.20 34.58 32.90 31.32 24.63 18.04 19.75 22.79 31.67 23.39 32.17 38.32 37.49 39.82 41.00 40.66 40.72 40.18 39.78 38.92 38.61 38.33 37.95 38.07 37.11 36.29 36.75 36.46 36.52 36.53 36.57 38.16 38.53 38.89 38.93 39.14 40.13 41.20 43.12 44.72
30.31 30.87 39.21 40.58 40.48 38.45 33.35 27.68 33.51 28.77 28.09 20.75 25.23 30.90 36.48 36.04 34.97 35.52 35.21 37.03 37.42 38.14 37.87 37.53 37.96 37.33 37.01 37.18 36.36 35.70 36.01 36.27 35.84 35.28 35.83 36.82 37.69 37.72 38.00 38.64 39.94 40.99 42.01 43.48
36.21 30.22 37.41 40.05 40.91 39.92 35.93 36.81 28.79 28.49 20.26 19.77 24.88 27.33 26.92 32.75 32.57 34.49 33.46 32.93 33.61 36.35 36.32 36.27 36.13 35.88 35.83 36.05 36.60 36.20 36.17 35.42 35.81 35.55 35.64 36.20 36.19 37.27 37.82 38.16 38.14 39.00 40.01 41.27
37.35 34.66 32.74 38.87 35.58 33.64 33.93 32.90 33.62 31.83 28.40 22.32 21.31 25.08 34.42 33.11 35.74 34.13 34.08 34.55 35.09 34.32 34.35 34.54 34.74 35.39 35.10 35.11 35.27 34.94 34.31 34.28 34.15 34.64 34.90 34.87 35.03 35.78 36.46 36.41 36.44 36.96 38.11 39.21
38.70 35.16 30.11 31.92 39.07 39.83 38.17 35.06 34.97 25.63 23.65 27.36 25.51 27.91 37.98 37.42 38.74 36.52 35.25 34.98 34.21 33.52 33.10 32.91 33.09 33.30 33.53 34.00 34.73 34.02 32.94 33.02 33.65 34.54 34.22 33.86 34.34 34.66 34.39 34.38 34.66 35.30 35.42 37.18
38.55 33.40 27.81 28.66 33.27 35.89 33.11 35.27 35.88 34.48 32.74 27.06 21.65 25.44 39.34 38.93 37.07 35.70 33.11 33.32 33.32 32.91 31.93 31.80 31.98 31.58 32.19 32.88 33.40 33.04 32.01 32.31 33.34 34.34 33.55 33.58 33.51 33.45 33.03 32.87 33.31 33.34 33.51 34.13
41.22 34.98 30.90 25.57 28.64 31.97 29.41 33.08 35.60 33.33 26.13 24.92 24.99 29.55 34.57 34.34 32.74 32.68 31.94 31.34 30.93 30.90 31.25 30.88 30.19 30.28 31.18 32.12 32.00 31.80 31.53 32.53 32.55 33.13 33.08 32.92 32.78 33.44 32.99 33.00 32.70 32.04 32.28 32.07
34.99 27.27 30.81 33.13 34.33 33.70 32.59 30.71 33.02 32.50 31.21 25.46 28.07 29.90 32.51 31.79 30.88 31.03 31.47 31.14 29.59 29.02 29.28 29.18 28.55 29.03 29.81 30.48 30.14 30.94 30.96 32.22 31.92 32.08 32.17 32.05 33.20 33.79 33.47 33.23 33.04 32.09 31.43 31.48
34.45 27.25 30.37 29.10 33.66 32.57 28.83 30.97 30.52 31.25 31.22 30.57 30.51 29.52 33.82 32.87 31.95 30.11 30.02 29.26 27.93 27.73 28.19 28.64 28.39 28.48 28.57 29.44 29.66 29.88 30.17 30.91 31.15 30.32 31.17 31.13 31.26 31.64 32.51 32.59 32.02 31.33 30.52 30.60
30.41 28.98 28.24 25.92 30.70 30.20 24.15 26.94 31.03 30.36 30.55 31.39 25.11 29.72 30.41 27.78 27.84 28.12 28.53 28.45 27.11 26.30 27.40 27.69 28.40 28.86 29.68 30.24 31.26 30.18 30.44 30.83 29.97 29.67 29.95 30.66 30.05 29.92 30.15 31.34 31.12 30.45 29.29 28.26
28.47 28.63 28.25 24.20 27.06 19.23 27.30 34.52 34.48 29.11 28.25 31.28 30.50 30.13 30.06 27.57 27.10 27.65 28.52 27.83 27.54 26.47 26.73 27.90 28.77 30.03 31.07 32.00 31.96 31.69 30.87 30.61 29.09 28.40 28.29 29.27 28.42 28.34 28.91 28.85 29.15 28.28 29.28 27.95
34.02 30.26 26.08 21.45 21.77 25.74 28.48 31.00 28.77 26.72 24.36 28.23 29.43 28.10 26.90 26.39 26.05 25.77 28.26 28.82 27.50 28.40 27.84 28.83 30.17 30.56 30.19 29.78 31.84 31.92 30.91 30.98 30.02 27.91 27.29 27.50 26.87 25.43 26.02 25.60 26.07 27.23 26.45 26.48
34.40 32.76 26.17 23.43 19.27 15.51 23.94 32.19 34.22 30.86 18.02 26.51 27.78 29.26 26.57 25.57 20.46 21.61 28.00 28.67 27.98 27.41 29.76 29.36 26.77 24.33 26.30 28.26 29.66 30.96 30.99 30.28 29.70 29.15 28.04 27.93 27.78 25.31 23.55 22.98 24.21 25.11 24.96 23.83
25.84 25.16 23.06 23.71 20.57 23.73 30.47 34.08 34.72 17.88 19.46 26.75 25.61 23.39 27.20 25.57 20.08 25.26 26.68 27.56 28.13 29.58 28.85 27.57 26.97 26.00 26.53 28.56 29.08 26.85 27.66 26.66 28.77 30.33 28.54 27.26 26.67 26.12 24.81 23.95 23.45 23.17 23.28 23.27
24.49 23.44 23.06 23.91 18.63 17.28 29.84 31.62 25.66 22.96 26.64 26.30 23.16 22.89 22.29 24.23 24.41 23.85 23.68 23.71 25.24 26.81 27.32 26.26 25.00 24.79 26.29 26.74 26.74 25.83 25.44 26.95 27.56 27.87 28.14 26.40 25.99 26.38 25.59 23.69 23.34 22.73 22.19 21.43
21.53 23.87 22.67 23.82 20.21 27.16 29.70 27.15 28.68 28.50 26.05 26.96 23.65 24.14 23.04 21.79 22.39 21.25 20.12 17.54 22.05 24.56 24.41 24.60 23.16 22.67 23.43 24.63 24.84 23.91 25.95 28.23 27.22 26.51 25.74 25.72 25.41 25.12 24.81 23.29 22.91 22.55 22.59 21.92
31.02 31.85 22.89 24.06 26.54 27.27 29.19 30.83 30.90 29.87 27.04 28.53 27.66 26.36 24.80 21.85 18.29 18.86 18.37 19.77 20.41 21.24 21.25 22.10 21.55 20.46 20.83 22.63 23.56 24.27 25.08 27.34 26.67 24.96 25.17 25.59 25.28 24.62 25.00 24.50 24.00 22.26 21.08 21.52
30.32 30.65 26.71 25.53 27.26 27.99 29.03 29.17 29.36 28.61 28.88 27.83 27.10 25.07 22.85 21.55 20.83 21.94 21.05 20.03 17.57 18.23 20.28 21.05 19.69 19.29 19.40 20.95 21.36 22.04 23.46 25.66 25.72 25.71 24.96 24.59 25.12 24.54 23.95 24.57 25.15 23.03 21.83 23.40
31.97 26.65 23.19 21.21 28.21 26.61 26.75 29.28 29.61 27.74 26.50 24.88 24.21 23.65 24.68 24.07 22.39 22.13 20.19 20.95 20.20 18.77 18.70 17.32 17.24 17.05 17.34 18.31 18.37 19.37 21.80 24.06 23.92 23.58 24.28 23.74 23.37 23.06 23.58 22.96 22.43 26.38 24.11 24.40

GFSCGP_sfc_wetblb_120.txt.gz
Wetbulb
39.00 34.63 31.93 35.90 35.14 34.87 33.63 30.48 29.17 31.65 37.19 35.49 35.52 36.18 36.95 39.55 39.29 38.66 39.56 39.54 40.51 43.39 43.84 43.00 42.34 42.06 42.20 42.47 42.38 42.65 42.04 42.58 43.17 43.41 43.39 44.23 42.68 44.89 45.19 45.15 46.13 47.26 47.42 48.45
35.80 32.42 37.48 38.18 36.78 35.86 34.61 31.42 31.20 34.49 37.62 36.13 33.78 33.45 37.25 38.10 38.47 40.42 40.67 41.25 42.75 42.34 41.33 41.17 40.53 39.77 39.10 38.89 39.24 39.18 39.86 40.77 41.22 41.83 41.98 41.84 41.91 43.81 44.06 43.09 44.19 44.93 45.62 46.89
33.68 36.53 41.04 38.57 35.43 34.15 33.36 31.82 31.94 32.30 34.33 34.61 33.24 30.16 32.26 37.64 41.75 42.78 40.91 40.90 41.26 39.54 38.84 39.68 39.98 39.54 39.19 38.29 38.39 38.09 38.23 38.50 40.24 40.49 41.35 41.27 41.09 41.32 41.26 41.13 41.97 43.15 45.31 46.68
36.22 40.37 38.02 36.13 35.57 35.86 29.91 36.18 35.38 33.08 30.39 24.38 32.83 23.51 31.11 34.62 36.58 40.78 39.70 39.35 39.87 39.67 39.66 39.43 38.39 37.78 37.48 38.88 39.73 39.41 39.10 38.64 39.07 39.03 39.62 38.98 38.52 38.61 40.67 41.20 41.51 42.27 44.53 44.51
33.48 34.74 34.81 33.68 35.53 36.34 33.02 36.66 34.65 33.53 29.25 27.20 28.03 24.83 26.59 33.78 33.10 37.67 38.41 38.19 37.90 38.17 38.36 38.04 38.32 37.95 37.51 37.74 37.96 38.83 39.35 38.43 37.59 37.10 38.25 38.02 37.29 38.94 40.14 40.44 40.34 40.81 41.67 44.02
35.09 37.78 36.97 36.20 37.41 37.24 37.79 34.87 32.73 31.18 28.10 23.51 27.85 26.91 23.27 30.27 32.69 35.01 35.80 36.23 36.65 36.73 37.06 37.34 37.82 38.15 37.64 37.45 36.96 37.88 36.99 36.93 37.08 36.75 37.30 36.83 36.87 37.54 38.07 38.58 38.78 39.57 41.20 42.40
33.34 34.76 37.31 39.54 34.57 36.36 33.99 31.93 24.26 20.12 21.53 21.63 28.37 25.39 26.95 33.17 35.33 35.81 34.66 35.32 35.86 35.90 35.62 35.75 35.22 35.09 35.96 36.33 36.09 36.31 35.32 34.66 36.29 36.34 36.57 36.49 36.30 36.55 36.89 37.09 37.52 37.94 38.59 39.56
27.34 25.27 34.28 38.79 36.88 32.89 30.80 32.00 27.73 19.59 17.91 20.28 28.06 22.02 29.58 35.49 36.06 36.37 36.10 35.57 36.07 34.64 35.11 34.29 34.38 34.42 34.77 35.29 35.06 34.07 34.21 34.22 35.25 35.78 35.81 36.42 36.56 36.35 36.04 36.38 36.47 36.56 36.80 37.41
28.05 28.70 36.64 38.66 37.70 37.64 32.21 31.00 33.19 29.19 27.78 23.63 23.98 29.49 33.66 36.12 34.57 35.60 35.85 35.74 35.08 34.63 34.50 33.60 34.37 34.13 34.38 34.49 34.18 33.00 33.42 33.81 34.54 35.40 35.74 35.64 35.69 35.82 34.93 35.08 35.25 35.22 35.68 36.54
33.73 27.42 35.50 37.38 38.48 36.86 34.06 35.43 27.69 28.67 21.76 19.15 22.12 23.83 23.96 31.05 32.18 33.16 33.68 33.78 34.49 34.78 33.85 33.44 33.22 33.59 34.03 34.49 33.87 33.24 33.42 33.20 34.05 35.02 35.44 35.18 35.25 35.44 35.14 34.64 33.77 34.02 34.50 35.27
34.79 32.15 30.77 36.14 33.98 31.40 31.69 30.58 31.60 30.45 28.20 20.68 19.68 21.26 27.91 32.10 33.44 31.99 33.07 34.62 33.36 32.53 31.71 31.35 31.93 32.75 33.59 33.50 32.87 32.39 32.83 32.72 33.40 34.06 34.66 34.67 34.47 34.89 34.69 34.38 33.86 33.89 34.30 34.31
36.17 32.93 28.68 31.56 36.62 37.92 37.00 33.86 32.56 27.10 22.74 25.44 19.29 20.90 35.73 35.50 35.55 35.68 35.13 33.79 33.09 32.25 30.52 30.21 30.61 31.01 31.59 31.04 31.71 31.32 32.25 32.28 32.82 33.56 33.19 33.11 33.61 33.82 32.96 32.19 32.01 32.12 32.13 33.33
38.05 32.27 26.73 25.06 30.82 34.60 33.55 34.29 34.74 33.66 31.40 27.05 20.49 22.90 36.97 37.11 37.13 36.39 34.32 32.61 30.93 29.71 28.69 27.96 29.07 29.68 30.39 30.70 30.95 31.17 31.62 31.65 32.39 32.98 32.16 31.68 31.72 31.62 31.38 31.61 30.77 30.60 31.12 31.58
39.95 32.65 29.43 24.48 26.21 30.38 29.90 32.57 34.93 34.04 28.48 28.00 26.50 28.17 32.08 35.45 35.83 31.80 29.64 28.35 27.57 27.95 29.01 27.77 28.80 29.43 30.07 30.53 30.46 30.50 31.16 31.50 31.54 31.76 30.75 30.08 30.33 30.20 30.55 30.62 30.22 29.99 29.91 29.35
35.60 30.00 31.32 31.92 32.77 33.41 31.40 31.69 32.71 33.03 32.83 28.52 29.33 28.74 32.85 34.99 32.64 29.12 28.32 28.16 28.08 27.53 27.34 26.98 27.64 28.73 29.15 29.36 29.59 30.22 29.54 29.44 29.45 28.68 28.03 27.32 28.65 28.53 28.68 28.51 27.89 28.29 27.84 27.92
34.04 27.00 29.98 27.96 32.08 33.10 30.30 31.55 31.64 32.75 33.79 32.76 31.49 29.96 35.35 33.47 31.01 28.41 27.82 27.35 26.30 26.63 27.18 27.14 28.09 28.37 28.73 29.48 29.56 29.56 28.72 28.33 28.51 27.26 26.69 26.57 26.46 26.03 25.49 25.75 25.68 25.07 25.01 25.78
31.21 29.50 27.76 24.76 29.18 28.01 26.74 29.74 30.13 29.26 29.55 31.35 29.26 31.52 31.04 28.95 29.01 28.26 27.81 28.00 26.14 26.63 26.92 27.16 27.52 28.19 29.34 30.06 30.38 29.73 29.07 29.41 28.12 27.46 27.10 26.10 25.70 24.57 23.97 23.69 23.24 22.87 22.83 23.72
30.93 29.13 29.36 25.73 27.47 20.06 26.48 30.64 32.31 29.53 30.38 31.24 30.77 30.78 30.76 29.88 29.35 28.71 29.07 26.60 25.52 25.87 26.24 27.29 27.62 27.95 28.72 28.91 30.78 30.43 29.99 28.85 27.60 26.64 26.28 25.94 24.98 23.76 22.91 22.18 21.09 20.99 21.08 21.23
33.12 28.86 26.64 23.07 22.62 25.19 26.00 28.89 25.91 25.18 25.20 28.91 29.58 29.57 27.30 26.87 26.83 26.11 29.16 26.98 23.50 23.54 27.06 27.30 27.56 26.68 25.34 26.56 28.85 29.18 29.03 29.11 26.73 25.93 25.18 25.59 24.54 22.13 21.38 19.63 18.86 20.14 19.74 20.43
32.59 31.88 28.56 24.09 16.96 14.17 21.55 29.80 32.79 29.62 20.22 27.98 29.08 27.41 25.32 26.13 22.13 18.68 26.15 26.17 24.99 23.96 24.91 24.05 23.68 24.21 25.24 26.56 28.03 26.95 25.88 26.66 25.68 25.17 24.99 25.32 25.00 22.26 20.40 20.01 19.69 20.52 14.81 19.62
27.91 27.41 24.64 22.81 20.55 21.97 27.45 31.47 32.26 18.08 21.07 29.60 29.56 28.11 25.89 21.31 19.83 22.46 24.46 22.80 24.01 24.70 24.44 24.76 24.19 22.58 24.06 25.98 24.60 21.25 22.95 23.72 25.54 26.84 25.80 24.94 24.65 23.57 22.07 20.02 19.79 19.93 18.32 19.63
25.63 23.89 22.86 24.20 20.48 14.81 30.71 31.04 24.63 24.88 25.86 26.31 25.78 27.23 23.21 25.02 25.54 24.10 22.47 24.93 23.78 22.98 23.41 23.29 22.03 22.43 23.78 24.18 25.31 22.82 20.39 21.41 25.15 25.04 25.39 24.25 23.77 24.50 23.12 19.70 20.37 20.86 21.32 19.48
23.59 22.31 19.35 23.12 20.29 25.30 29.00 28.05 27.67 27.63 24.46 22.24 23.32 24.71 25.33 24.10 23.86 24.20 23.85 21.72 19.05 19.77 21.82 22.78 21.56 21.78 21.98 22.44 22.65 22.11 24.49 26.44 26.19 25.06 23.13 23.46 24.19 24.36 21.86 19.95 18.63 19.31 19.78 19.18
27.20 28.44 20.43 22.78 23.86 25.90 28.19 28.09 27.64 26.88 25.07 23.79 25.23 25.44 25.36 22.59 19.48 17.75 18.53 18.04 13.52 15.61 18.98 20.15 20.25 20.30 20.08 21.61 22.67 22.98 24.11 24.84 25.11 23.66 23.22 23.16 22.83 22.28 21.53 20.98 20.27 18.99 18.34 18.09
27.27 28.24 25.69 23.83 26.64 28.23 28.67 28.44 27.03 25.13 24.70 23.81 23.97 24.07 22.23 20.44 19.05 19.58 17.78 16.39 15.64 13.17 16.18 19.72 19.52 19.15 18.74 19.86 20.32 20.71 22.70 23.71 22.98 22.11 22.17 21.66 21.50 21.18 20.02 18.89 19.29 18.97 19.48 19.88
29.80 27.18 25.52 23.85 28.83 27.36 26.62 27.40 27.50 24.83 23.74 23.39 21.92 21.70 22.49 21.73 19.78 19.14 17.61 18.59 17.37 14.87 16.43 16.41 17.13 16.82 16.72 17.89 17.47 18.60 21.39 23.02 21.80 20.52 20.40 20.33 19.94 19.20 18.81 17.77 16.51 21.52 21.80 22.05

GFSCGP_sfc_wetblb_123.txt.gz
Wetbulb
43.31 40.70 37.74 40.38 40.35 37.56 36.61 35.22 34.73 37.75 41.30 38.91 38.76 39.48 41.51 43.42 44.36 42.61 44.24 44.70 43.65 42.31 42.99 43.55 43.44 43.59 43.30 43.40 42.89 42.37 41.62 42.46 43.25 45.17 45.78 48.22 48.55 50.10 49.15 49.60 50.23 50.54 51.49 52.38
39.50 37.28 41.68 41.09 39.83 38.91 38.01 36.03 36.14 38.45 40.64 39.90 39.01 38.45 40.81 42.93 42.10 40.92 40.87 40.71 40.63 40.76 40.98 40.90 40.51 40.86 41.72 42.09 42.21 41.90 40.80 40.96 41.62 43.49 45.12 45.41 45.91 48.37 48.16 47.67 48.42 48.85 49.86 51.07
37.04 39.01 41.70 40.39 37.96 36.79 36.51 35.91 35.62 35.79 38.79 39.39 37.84 35.53 38.10 40.65 42.72 41.05 40.90 41.19 40.40 39.22 38.46 38.64 38.67 38.54 38.63 39.01 39.69 40.04 39.58 39.68 40.07 41.97 44.05 44.62 45.65 45.60 45.92 45.99 46.59 47.01 48.12 48.77
39.57 42.22 40.00 39.12 37.76 38.46 34.15 39.28 38.39 36.63 35.06 31.33 37.85 29.12 35.31 37.53 38.63 39.00 38.84 37.68 37.58 37.53 38.00 38.43 38.42 38.50 38.72 38.69 40.15 40.52 39.39 38.67 39.63 40.42 40.69 41.67 39.15 39.01 41.89 43.02 44.65 45.47 46.67 47.26
36.97 37.72 37.57 36.91 38.27 39.82 36.55 38.99 37.50 36.29 34.77 33.26 33.66 31.47 32.66 35.74 34.76 35.09 36.45 36.96 37.30 37.92 38.42 37.79 39.02 39.18 39.46 39.17 39.85 38.21 40.36 38.78 38.90 39.37 40.84 39.33 38.02 38.95 40.34 41.85 42.19 42.84 44.34 44.71
37.86 41.37 40.33 39.73 39.20 39.99 40.18 37.98 36.46 35.26 33.97 27.58 32.59 32.35 31.01 32.10 34.22 34.74 36.05 36.89 37.62 37.77 37.85 37.85 38.13 38.41 38.01 38.19 37.42 39.25 38.07 37.89 38.01 38.37 38.88 37.78 37.21 37.43 37.52 38.39 38.46 39.10 40.88 41.70
36.18 37.32 40.41 41.52 38.00 39.25 39.17 36.10 28.26 26.45 24.53 25.86 31.70 30.25 34.83 34.47 36.45 38.20 36.90 36.46 36.94 37.23 36.90 36.48 35.83 36.22 36.84 36.91 36.90 36.98 36.06 35.52 37.00 38.27 37.57 37.34 37.25 37.19 36.68 35.83 36.36 37.06 37.52 38.33
30.97 28.73 36.77 40.63 39.18 36.62 36.02 35.80 28.75 21.58 22.62 26.67 31.21 28.11 33.39 37.21 37.38 38.37 38.17 38.26 37.55 36.24 35.95 35.12 35.44 35.35 35.51 35.55 35.94 36.32 36.03 36.23 36.67 37.29 36.63 37.19 37.43 36.83 36.18 36.08 35.90 36.04 36.13 36.92
30.70 30.92 38.62 39.92 40.02 40.39 35.18 33.08 38.35 31.58 29.59 27.03 30.86 32.30 34.34 36.36 35.09 36.71 36.91 37.44 35.70 34.69 35.00 35.14 34.96 34.84 35.01 35.10 34.81 34.71 34.76 34.94 35.38 36.01 36.32 36.04 36.16 36.36 35.67 35.75 35.82 35.91 36.38 36.58
36.50 30.91 37.63 38.67 41.18 39.48 38.19 39.38 31.52 32.79 23.89 21.23 27.55 28.85 31.45 32.18 32.60 35.73 35.93 36.13 35.23 35.34 33.55 33.69 34.33 34.31 35.03 34.76 34.80 34.56 34.66 34.28 34.67 35.28 35.17 35.41 35.50 35.41 35.11 34.74 33.61 34.20 34.64 35.07
38.36 35.69 33.87 38.09 36.75 35.17 34.90 33.91 33.83 33.70 30.97 25.37 23.57 29.02 35.29 34.75 35.64 34.48 35.27 35.86 35.31 34.36 33.31 32.88 33.81 34.36 34.86 34.53 33.73 33.75 33.88 33.99 33.87 34.61 34.81 33.91 33.49 34.11 34.23 33.10 33.08 33.13 34.01 33.94
39.41 35.92 31.77 33.77 38.40 40.61 39.03 36.57 35.72 29.46 27.24 28.68 27.23 29.29 38.32 38.85 38.74 36.92 35.72 35.76 35.43 34.43 32.65 32.12 32.83 33.26 33.01 32.39 33.02 32.84 33.00 32.98 33.26 33.90 33.53 33.14 33.37 33.51 32.46 32.22 32.29 32.25 31.82 32.75
39.48 34.05 29.55 30.95 34.55 37.70 35.96 37.22 37.08 35.82 33.47 29.19 25.96 29.26 38.09 38.37 37.71 37.06 36.38 35.25 33.73 31.96 31.20 31.31 31.74 31.37 31.50 31.80 32.06 32.08 32.24 32.34 32.87 32.78 32.13 31.81 31.85 31.59 31.53 31.50 31.64 31.65 31.28 31.15
41.56 35.17 32.47 27.90 30.06 34.27 32.21 34.97 36.88 35.27 30.14 30.20 31.04 32.60 34.54 35.64 36.33 36.76 36.42 34.02 31.65 31.42 30.59 30.47 30.31 30.77 30.93 31.17 31.09 30.78 30.83 31.61 31.55 31.15 30.17 29.13 29.93 30.06 30.57 31.24 30.62 30.64 30.61 30.28
38.72 32.08 33.48 34.64 34.77 34.75 34.33 33.91 34.98 33.45 34.10 29.82 32.28 32.57 36.64 36.64 36.74 37.36 33.98 30.75 29.70 29.44 28.88 29.43 29.30 29.79 29.99 29.89 30.18 30.80 30.73 30.86 31.03 29.74 28.75 28.27 29.17 29.00 29.32 29.20 29.61 29.71 29.70 29.64
36.87 31.90 32.60 31.07 33.65 34.29 32.18 34.21 34.40 34.53 34.76 34.88 35.07 34.08 39.07 39.99 39.13 31.83 31.30 30.29 29.53 28.94 28.41 28.78 28.85 28.85 29.62 29.87 29.68 30.27 30.40 30.50 30.48 28.90 28.00 28.02 27.88 27.41 27.13 27.64 27.98 28.14 28.07 28.32
33.50 32.27 29.71 26.82 31.58 31.62 27.97 32.05 33.32 33.92 35.61 34.79 30.75 35.95 35.64 33.85 32.53 31.99 31.26 30.74 29.60 29.00 28.62 28.18 28.39 29.31 29.69 30.51 30.83 29.85 30.01 30.31 29.19 28.13 27.37 27.09 26.60 26.00 25.86 26.40 26.55 26.02 26.09 26.40
33.62 31.71 31.43 27.18 29.46 21.17 31.77 33.61 34.69 33.86 35.56 35.79 35.06 34.97 35.28 35.34 34.05 32.83 32.88 30.62 29.27 29.07 28.14 28.63 28.83 29.00 29.79 31.08 31.63 31.91 30.33 29.11 28.25 27.49 26.57 26.30 25.84 25.20 25.59 24.94 24.48 24.80 25.99 25.10
36.54 33.30 28.68 25.35 24.89 27.96 30.70 31.74 30.96 30.48 32.00 34.48 34.18 33.04 30.65 29.98 30.42 28.29 30.73 31.06 29.43 29.16 29.10 28.79 28.84 28.85 29.13 29.27 30.64 30.45 29.61 27.81 27.00 26.12 25.68 25.48 24.84 23.46 23.69 22.87 24.01 24.75 24.44 24.31
35.33 34.94 29.66 26.58 21.94 19.45 29.70 32.21 35.06 33.88 26.66 33.40 34.34 30.71 28.52 29.85 26.59 28.19 29.12 28.74 27.82 28.57 28.05 27.10 26.60 27.23 27.35 27.50 28.87 27.84 27.26 27.00 25.38 25.79 25.74 26.17 25.39 23.52 22.23 23.45 24.21 25.19 24.34 23.48
28.73 29.48 26.74 24.87 23.20 26.83 32.46 33.80 34.31 25.26 29.69 32.91 33.61 31.23 30.05 30.94 30.47 29.14 27.82 26.67 27.43 26.98 26.56 27.36 26.74 24.87 25.37 26.90 26.61 25.35 25.96 25.11 27.02 27.39 26.88 26.03 25.88 24.10 23.60 24.00 24.56 24.57 23.21 21.83
27.81 26.32 25.84 26.27 23.91 20.98 33.80 32.28 28.53 32.35 28.84 32.44 31.35 30.35 27.98 26.10 25.86 25.13 25.14 25.59 25.20 25.17 26.11 26.31 25.48 25.41 27.02 28.10 27.24 25.20 24.55 26.85 27.34 27.14 26.41 25.71 24.57 24.46 24.18 22.79 23.60 23.36 22.43 20.77
27.10 31.20 27.65 28.68 28.66 29.20 31.43 30.89 30.37 31.14 30.16 29.52 30.90 29.52 28.43 26.15 24.31 24.98 25.21 23.98 23.26 24.30 25.22 25.83 25.39 25.01 25.66 26.38 27.11 25.76 26.41 27.67 27.07 26.36 25.04 24.99 24.32 23.92 23.88 22.71 22.48 22.34 22.09 20.52
30.07 30.64 28.83 28.69 28.93 29.08 30.42 30.04 30.65 30.20 29.34 28.63 30.16 29.02 28.14 24.78 25.50 24.58 23.62 22.47 22.55 23.65 24.35 24.85 24.50 23.71 23.55 25.23 25.34 25.83 26.65 27.25 26.36 24.72 24.29 24.56 23.77 22.55 22.94 23.39 22.71 22.14 21.30 20.62
31.01 30.85 28.28 27.07 27.36 28.85 30.28 31.04 30.66 27.66 28.26 28.67 29.51 29.03 26.85 25.00 23.37 23.61 22.17 21.83 21.69 22.53 23.33 23.81 23.19 22.83 22.22 23.60 23.85 25.17 26.06 26.05 24.58 23.96 23.75 23.32 22.95 22.00 21.38 21.58 21.81 21.31 21.87 21.23
31.91 29.80 29.15 29.49 32.16 31.99 30.64 31.39 28.79 26.89 26.26 27.15 26.40 25.42 25.73 25.25 23.39 23.73 21.89 22.32 22.06 21.70 22.43 21.92 21.59 21.49 21.44 22.01 22.07 23.43 25.41 25.16 24.09 22.78 22.31 21.88 21.56 21.28 20.75 20.09 19.43 20.93 21.02 21.20

GFSCGP_sfc_wetblb_126.txt.gz
Wetbulb
48.19 44.17 42.20 44.56 45.69 44.46 41.71 40.21 39.93 42.78 45.17 42.92 42.75 43.76 45.97 47.41 48.30 47.65 48.27 47.71 46.51 45.70 46.82 47.18 46.89 47.76 48.75 48.91 48.21 46.78 45.12 44.11 44.27 47.53 47.09 48.69 49.53 54.73 54.59 54.37 54.42 54.56 55.15 56.08
43.70 40.72 45.36 45.38 44.68 43.05 42.05 40.29 40.63 42.78 44.08 43.09 43.05 42.99 45.08 46.68 44.99 45.28 45.24 44.67 43.81 44.31 45.21 45.40 46.39 46.98 46.70 46.86 46.97 45.87 44.32 43.89 43.53 43.89 44.51 48.14 49.22 52.43 53.26 52.78 53.27 53.17 53.12 53.62
41.12 43.07 45.06 44.35 42.63 40.99 41.44 40.09 40.15 39.26 42.74 44.53 42.17 41.51 42.83 45.02 44.39 43.92 43.52 44.09 43.64 42.77 43.01 44.24 44.24 45.53 46.86 46.58 47.07 46.80 45.93 43.90 43.75 44.19 44.62 46.09 48.71 49.49 48.86 50.02 50.48 50.56 51.12 50.33
42.61 45.33 42.96 42.93 41.45 42.52 38.27 42.61 41.05 39.81 38.76 36.59 42.01 34.04 41.58 43.77 42.87 43.20 43.24 42.38 43.33 43.26 42.94 42.51 44.51 43.35 45.13 44.88 45.02 46.33 44.65 46.20 45.30 46.02 44.65 45.67 46.79 46.61 46.74 48.02 48.02 48.11 48.95 47.12
41.12 42.34 41.80 40.77 41.45 43.47 39.17 42.77 40.97 40.36 39.42 38.65 38.90 35.64 40.84 43.49 41.42 42.42 43.20 41.46 42.03 42.48 41.88 41.71 41.33 41.18 41.36 41.52 41.26 42.42 44.70 44.15 43.93 44.09 42.69 43.12 43.35 44.61 46.64 46.40 45.66 45.75 45.73 46.13
42.40 45.35 44.04 43.09 43.42 44.36 44.38 41.57 40.99 40.73 39.00 31.84 37.57 36.69 39.42 39.86 41.97 42.80 42.90 42.72 42.24 40.75 40.76 40.29 40.36 40.75 41.11 43.07 43.62 42.99 42.50 42.30 42.98 40.81 41.88 42.22 41.26 40.73 41.31 41.75 41.43 42.46 42.41 42.93
40.46 40.91 43.79 45.25 41.36 43.39 43.12 39.44 34.12 31.45 31.63 30.89 37.23 35.64 38.98 42.67 42.87 43.62 42.78 42.73 41.48 41.26 39.29 38.36 39.23 40.89 41.90 41.46 42.13 42.59 42.87 42.06 42.01 40.77 39.57 39.74 38.90 40.05 39.61 38.94 38.19 38.67 38.33 39.05
35.22 33.11 41.09 44.11 42.00 39.90 40.38 39.86 33.75 25.06 28.53 32.57 36.01 32.15 39.40 43.20 43.86 43.74 44.04 43.51 41.91 39.16 38.31 39.05 38.96 39.54 38.91 39.74 39.22 39.86 40.49 40.35 41.02 40.22 39.76 40.20 39.02 38.78 38.49 37.95 37.32 37.36 37.78 37.93
35.08 34.61 42.93 43.32 44.13 43.46 39.05 36.15 41.99 34.99 35.65 31.19 34.97 39.26 39.30 41.07 39.43 41.50 41.83 41.27 38.98 38.44 38.81 38.07 39.07 37.99 38.01 39.30 37.46 37.21 37.95 38.39 38.89 39.03 38.29 38.28 37.42 37.68 36.71 37.62 37.65 36.54 37.02 37.27
39.59 33.50 41.21 42.16 44.10 44.18 41.64 43.97 33.77 35.94 26.20 25.69 33.23 35.16 36.94 36.22 36.42 38.81 40.45 39.27 38.26 38.55 38.08 38.42 40.20 38.33 37.86 37.74 37.08 37.24 36.86 36.47 37.01 37.47 37.37 37.04 36.49 36.47 36.86 37.21 36.09 36.03 36.21 36.24
42.22 38.85 37.61 41.10 39.59 38.65 38.84 38.13 38.80 38.29 35.97 28.91 28.08 33.81 43.01 42.36 41.97 39.73 41.23 40.65 38.46 38.69 39.41 39.25 39.95 39.69 38.09 37.75 36.91 36.15 36.06 36.00 36.05 36.44 36.74 36.61 36.18 36.37 36.16 35.72 35.02 35.55 36.15 35.58
42.76 39.90 34.43 37.25 43.23 44.88 43.48 40.13 39.96 32.91 31.33 34.75 33.06 32.98 43.97 43.61 45.02 44.13 42.87 40.68 38.93 40.11 38.76 38.55 38.66 38.04 36.67 35.51 35.64 35.74 35.47 35.52 35.75 35.92 35.90 35.50 35.27 35.64 35.63 35.17 34.84 35.13 34.94 35.77
42.59 38.13 32.21 33.99 38.35 42.06 39.34 41.13 41.20 40.15 38.07 32.28 28.63 33.50 42.52 43.11 44.26 44.34 42.16 38.73 38.46 37.80 37.61 38.12 37.59 36.49 35.00 34.39 34.61 34.71 35.01 35.05 35.70 35.68 35.33 35.40 35.37 35.11 34.60 34.81 34.77 34.54 35.11 34.91
43.15 38.32 34.58 30.77 33.23 37.92 34.93 37.34 39.44 37.96 33.08 33.33 34.33 36.11 40.92 41.84 41.77 41.21 39.94 39.13 37.25 36.21 37.11 37.61 36.09 34.43 33.73 33.57 33.75 34.38 35.26 36.19 36.20 35.14 34.66 34.40 34.42 34.24 33.99 34.37 34.39 34.47 34.37 33.99
40.50 33.20 35.18 36.59 37.83 37.81 36.93 36.51 37.55 36.15 36.90 32.28 35.70 36.00 40.14 42.66 43.19 42.93 41.75 39.67 36.22 35.83 35.76 35.82 34.94 33.15 32.84 32.51 33.50 34.22 34.86 35.70 35.70 34.31 33.05 32.87 33.22 33.28 33.35 33.01 33.21 33.64 34.15 33.88
40.87 32.64 34.85 32.44 36.16 36.27 34.04 37.00 37.63 37.59 37.81 37.47 37.45 37.10 43.34 45.10 45.68 42.96 40.85 37.50 35.33 34.85 34.52 34.40 33.83 32.38 31.94 32.04 33.18 33.52 33.94 34.19 34.22 32.44 31.77 32.04 32.01 31.95 31.29 32.10 32.52 32.51 32.24 31.96
36.54 34.52 31.89 27.92 34.11 33.76 29.23 35.04 36.47 37.80 39.61 38.79 34.58 39.90 43.85 42.81 42.56 42.00 40.61 38.00 36.04 34.66 33.91 33.06 32.00 31.98 31.98 32.07 33.28 33.31 33.72 34.19 32.84 31.53 30.83 30.53 30.19 29.68 29.46 30.09 30.14 30.18 30.10 30.47
35.14 34.14 33.18 28.71 31.19 22.78 35.71 39.97 39.88 38.24 39.66 41.07 40.84 41.52 42.53 43.22 45.06 44.73 42.54 39.16 36.28 34.57 33.49 32.40 32.05 31.95 32.20 32.80 32.80 33.54 33.86 32.89 31.72 30.36 29.02 29.23 28.84 28.13 28.39 28.39 27.60 28.20 29.08 27.95
38.63 35.12 29.00 26.43 26.74 31.56 34.58 37.12 35.61 34.91 35.09 41.00 40.08 41.79 42.41 41.24 38.91 35.51 38.96 38.72 36.11 34.07 32.84 32.66 32.56 31.79 31.79 31.93 32.82 32.09 31.27 30.93 30.39 28.42 27.88 27.55 27.32 26.20 26.60 26.40 26.96 27.60 27.86 27.61
36.71 36.97 31.96 28.87 23.84 21.31 33.80 39.17 40.51 38.99 30.45 40.92 41.29 41.18 37.18 35.58 31.79 35.68 35.73 35.76 33.87 32.93 31.66 30.66 31.14 31.27 30.31 31.37 32.30 31.09 29.72 29.25 27.40 27.79 28.14 28.40 27.19 25.86 25.27 26.85 26.67 27.17 27.68 27.00
29.49 30.19 26.28 27.49 25.51 29.80 37.54 38.13 39.14 28.43 32.53 38.83 40.99 41.03 37.18 34.99 36.69 34.89 34.52 32.02 31.63 30.80 30.49 30.46 30.11 28.34 28.59 30.44 30.41 28.39 28.59 27.41 28.76 29.11 28.16 27.27 27.88 26.29 26.74 27.14 27.53 26.88 26.33 26.30
29.75 28.39 27.80 28.88 25.59 23.58 37.85 36.54 31.13 37.22 36.46 38.84 39.44 39.30 36.97 33.01 31.28 30.50 30.17 29.04 29.35 28.89 28.74 29.25 28.69 28.73 31.04 31.73 30.28 27.30 26.48 28.44 29.16 28.95 27.59 26.32 26.65 27.17 27.22 26.53 27.18 26.85 26.40 25.29
29.03 34.13 31.88 31.91 33.07 36.10 39.07 37.29 36.97 37.11 37.14 38.23 37.90 37.55 34.53 29.74 28.37 28.99 28.05 27.35 27.88 28.22 28.33 29.67 29.85 30.25 31.43 31.90 31.86 29.15 29.44 29.65 28.93 27.79 25.89 26.12 26.24 26.58 27.07 26.56 26.45 26.83 26.68 25.30
36.35 37.99 33.90 31.66 36.56 35.93 37.35 37.17 37.64 37.20 37.46 37.92 37.92 35.82 33.79 28.46 28.21 27.72 27.35 26.75 27.01 27.94 29.31 31.10 30.79 29.97 29.23 30.39 30.33 30.63 30.28 30.74 29.59 28.23 27.66 27.58 25.84 25.81 26.91 27.28 26.34 25.14 24.45 24.31
35.70 36.21 34.41 33.80 34.56 34.25 36.21 38.07 38.59 35.68 36.49 36.28 36.11 34.96 31.09 29.15 27.99 27.71 26.76 26.61 26.91 27.98 29.25 30.59 30.20 29.29 28.65 29.64 29.47 29.95 29.92 29.97 28.02 27.60 26.98 26.64 26.21 25.58 24.77 23.98 23.92 24.22 23.24 22.20
36.79 34.94 33.58 33.49 38.32 38.24 37.34 39.15 37.82 34.63 34.50 35.12 34.21 31.82 32.18 31.41 28.61 28.92 27.02 27.75 27.33 26.71 28.32 27.91 27.86 27.65 27.81 28.47 28.36 28.93 29.46 29.14 28.02 26.52 26.34 25.82 25.95 25.52 25.19 24.88 22.82 20.44 20.81 20.73

GFSCGP_sfc_wetblb_129.txt.gz
Wetbulb
48.83 45.50 43.59 45.92 47.52 47.10 45.36 43.79 42.67 45.24 47.08 45.12 45.33 45.80 47.33 49.45 49.90 50.60 51.33 51.27 50.02 49.11 50.22 50.76 50.81 51.50 51.75 51.60 51.00 50.41 50.04 50.30 49.65 49.42 50.21 52.77 51.58 52.10 52.95 54.14 55.01 55.92 55.92 56.23
46.00 42.87 47.22 48.11 47.21 46.02 45.12 42.79 42.79 45.63 46.72 45.11 45.09 44.60 47.55 49.20 49.77 50.00 49.72 49.23 48.99 49.63 49.74 49.59 50.20 50.95 50.78 50.52 50.57 50.58 50.26 49.97 50.30 50.40 50.54 50.77 51.97 53.20 51.46 51.33 53.37 53.99 54.08 52.98
44.31 45.50 47.88 46.27 45.56 43.72 43.88 42.41 42.97 42.70 45.09 46.47 44.55 42.91 45.80 48.64 49.35 48.90 48.81 49.10 48.63 47.99 47.84 48.23 48.69 49.48 49.58 48.78 49.21 49.53 49.68 49.94 49.71 50.23 51.02 51.67 52.12 51.95 51.06 51.28 49.23 50.69 51.94 51.17
45.24 47.75 44.79 44.39 43.65 44.82 41.04 45.62 43.91 42.18 40.82 37.83 45.13 37.03 43.47 47.28 46.28 47.23 48.19 48.16 48.05 48.03 47.40 47.88 47.02 46.47 46.37 47.31 47.86 47.78 48.09 48.00 48.07 48.48 48.60 48.13 48.05 47.92 49.61 49.76 50.37 50.11 50.56 50.09
42.74 44.15 43.59 42.86 43.53 45.46 42.57 44.66 43.00 42.56 41.10 41.05 41.24 38.82 42.58 46.64 44.94 46.64 48.37 48.29 47.39 46.94 45.87 45.17 44.21 44.76 46.27 47.47 47.54 47.70 47.68 47.50 46.54 46.06 45.66 45.43 45.11 45.79 47.04 47.40 47.99 48.56 48.74 48.42
45.03 47.91 46.84 45.89 46.26 46.13 45.76 42.96 42.52 43.14 41.47 34.34 39.73 39.41 40.01 43.86 45.26 47.07 48.43 48.26 47.44 45.03 44.54 43.91 44.47 45.31 45.68 46.32 46.23 47.18 46.83 46.38 46.13 45.70 44.71 43.14 42.23 41.66 41.80 41.06 42.03 43.41 44.88 45.76
42.15 43.26 45.95 46.72 43.21 45.29 44.21 41.15 34.74 33.63 34.31 33.56 41.25 38.38 40.98 45.82 46.59 47.03 47.60 47.54 47.44 45.77 43.66 43.75 44.22 43.77 43.70 44.58 44.71 44.45 44.94 44.02 43.98 43.25 43.03 42.41 42.02 42.49 41.69 39.89 39.29 38.33 39.95 39.55
36.59 34.92 42.60 45.70 43.69 41.77 41.83 41.48 35.27 28.32 31.24 35.01 40.77 35.09 41.18 47.40 48.21 48.26 48.01 48.56 46.90 43.69 43.52 43.29 43.57 43.80 43.28 43.73 42.59 42.78 43.23 42.50 42.42 41.75 40.98 40.71 40.46 39.94 40.35 39.25 38.74 38.18 38.09 38.51
37.41 38.18 45.70 45.55 45.56 44.52 41.60 38.19 43.24 36.84 37.63 33.56 37.04 40.99 44.88 46.29 45.48 45.99 46.03 46.57 44.50 42.63 43.60 42.49 42.88 43.00 42.67 42.40 40.20 40.19 40.72 41.19 40.16 39.71 40.05 39.39 38.88 38.81 38.56 38.66 38.69 37.82 38.01 37.82
41.75 36.21 42.81 43.88 45.97 45.58 43.31 44.90 35.76 37.38 27.67 27.01 34.33 36.87 39.47 40.85 42.20 44.16 44.72 44.65 42.61 42.21 41.90 43.00 43.83 42.25 42.16 40.69 39.96 39.48 39.33 38.75 39.10 39.20 38.82 38.72 38.32 38.64 38.17 38.30 36.88 37.40 37.51 37.39
43.54 39.59 38.74 42.68 40.44 39.30 40.28 39.06 40.25 39.87 37.07 29.97 29.53 35.71 45.04 44.28 45.13 43.89 45.34 45.95 42.29 41.34 42.58 42.96 43.34 42.54 41.82 41.11 39.82 38.33 38.12 38.03 37.85 38.26 38.35 38.38 38.18 38.27 37.93 37.01 36.62 36.92 36.72 36.30
43.80 40.33 34.66 38.48 43.85 44.93 43.17 41.00 40.30 34.92 32.21 36.53 35.63 36.13 46.69 46.78 47.09 47.25 46.27 46.57 44.00 42.95 43.13 44.29 43.27 42.15 40.71 39.62 38.76 37.79 37.40 37.30 37.93 38.24 38.06 38.11 38.49 38.34 37.66 36.65 36.17 36.88 36.15 35.62
43.46 38.48 32.31 33.85 38.72 43.30 40.55 41.66 42.03 41.42 40.22 34.54 31.11 35.15 46.47 46.14 45.55 47.47 47.27 47.27 43.98 42.77 43.35 43.55 42.39 40.84 39.38 38.13 37.50 36.98 37.37 37.60 39.12 39.38 39.20 38.98 38.33 38.05 37.39 37.23 37.21 36.97 36.75 36.41
43.98 39.15 35.03 30.63 34.84 38.74 36.02 39.12 40.92 39.89 34.39 35.20 35.87 37.87 42.04 43.44 44.27 46.15 46.78 46.81 43.75 42.20 42.96 42.33 41.63 39.94 38.47 37.52 37.44 37.22 37.12 38.11 38.58 38.40 38.06 36.94 36.54 36.48 35.93 36.25 36.55 36.81 36.08 35.52
40.24 34.24 36.49 38.06 39.61 37.38 36.67 36.81 38.52 37.53 38.09 33.87 37.28 36.90 42.04 43.76 44.10 45.41 47.25 45.52 42.41 40.95 41.01 41.36 40.02 38.35 37.09 36.52 36.97 37.05 37.57 37.86 38.20 37.24 36.31 35.35 35.93 35.90 35.76 35.28 35.32 35.41 35.13 34.78
40.67 33.16 35.43 33.26 37.34 37.72 35.19 37.26 38.20 37.70 38.86 38.33 38.75 38.51 45.23 45.90 46.40 45.90 46.56 44.23 41.72 41.06 40.53 40.29 39.74 37.41 36.17 35.88 36.68 36.31 37.10 37.10 36.79 35.11 34.24 34.66 34.56 34.05 33.52 33.33 33.46 33.43 33.00 32.50
36.85 35.13 33.04 29.20 35.15 34.42 29.76 35.45 36.86 37.75 39.36 38.82 35.08 40.30 44.52 43.70 43.85 45.52 46.67 44.87 42.34 40.86 40.14 38.98 37.36 36.19 36.14 35.74 36.16 35.72 36.45 36.70 35.20 34.13 33.39 32.85 32.35 31.36 31.19 31.52 31.29 30.96 30.45 30.56
35.49 34.71 33.49 29.59 31.68 22.42 35.80 41.43 40.77 38.72 40.11 41.77 41.39 42.73 44.06 44.40 46.14 47.08 48.49 45.88 41.93 40.44 38.42 36.65 36.19 35.09 34.70 35.08 35.54 36.36 36.70 35.49 33.97 32.24 31.17 31.38 30.93 29.99 30.60 29.80 28.93 29.45 29.79 28.81
39.56 35.79 30.16 26.49 26.89 31.71 35.03 38.57 39.13 37.77 36.74 41.91 41.24 42.68 43.80 44.84 45.54 43.19 46.67 45.32 42.67 39.14 37.83 35.67 35.83 34.70 34.26 33.67 34.02 35.24 34.75 33.77 32.27 30.05 28.77 28.89 28.48 28.02 28.51 27.43 27.78 28.78 28.99 28.74
37.83 38.26 31.98 29.23 23.91 21.83 34.73 39.98 42.70 42.14 31.88 42.54 42.69 42.41 42.94 43.31 38.40 41.95 43.40 41.92 38.88 36.93 35.60 34.81 34.55 33.64 32.82 33.54 33.68 32.98 31.94 31.33 29.10 29.94 29.64 29.54 28.77 27.49 27.10 28.00 27.74 28.79 29.56 28.42
31.44 31.85 28.50 28.79 25.77 29.97 38.01 40.63 42.39 29.27 33.66 42.57 43.57 43.40 43.27 40.76 40.17 42.12 38.97 35.35 34.12 34.61 34.29 33.20 32.08 31.16 31.38 33.14 33.45 31.29 30.66 28.28 29.85 29.95 29.40 29.15 29.43 28.10 28.82 28.55 29.33 29.15 28.76 29.06
30.14 28.91 28.49 29.87 26.50 24.06 41.03 40.38 34.28 40.56 41.77 42.06 42.64 43.37 42.60 37.46 36.57 33.72 32.12 31.40 31.94 31.74 31.89 31.47 30.53 30.50 32.47 33.12 31.44 28.89 27.77 30.27 30.44 29.72 27.84 27.73 28.55 28.71 28.99 28.59 29.37 29.13 29.33 27.79
29.80 34.64 31.94 33.05 32.93 39.35 42.10 41.48 43.75 41.68 40.87 41.46 41.86 42.90 38.71 34.16 31.93 31.02 30.42 30.85 30.74 30.85 30.50 31.30 31.01 32.12 33.53 33.94 33.17 30.32 29.53 30.11 29.23 27.88 26.75 27.42 28.01 28.29 28.78 27.89 27.92 28.04 28.84 27.13
37.28 40.05 35.10 34.88 38.00 40.02 41.46 42.88 42.41 42.12 41.21 41.93 42.63 41.72 37.32 31.94 31.20 30.27 30.00 29.95 30.17 31.17 30.64 32.05 32.40 32.37 32.66 34.27 33.59 33.10 32.93 33.17 31.95 30.07 29.09 28.44 27.78 27.68 28.44 28.55 27.19 25.05 24.71 24.94
37.89 38.62 35.94 36.01 39.01 39.66 40.78 42.60 42.81 41.08 41.00 41.25 41.26 39.61 33.43 31.96 30.73 29.84 28.92 29.35 30.27 31.26 32.07 32.61 32.13 31.90 31.67 32.59 32.61 33.09 32.93 32.54 30.37 29.59 28.83 28.25 28.13 27.56 25.21 23.54 24.19 24.11 22.09 21.73
39.20 37.34 34.71 34.05 38.95 39.27 40.24 42.93 43.11 40.17 38.94 40.02 39.28 35.92 34.31 33.30 30.74 30.40 29.63 29.40 29.68 30.70 32.03 31.72 31.61 31.47 31.38 31.57 31.15 31.78 32.21 31.67 30.19 28.88 28.58 28.16 27.97 27.47 27.75 26.56 22.77 21.30 21.08 20.64

GFSCGP_sfc_wetblb_132.txt.gz
Wetbulb
48.06 43.48 41.22 44.06 46.32 46.55 44.92 44.16 43.19 45.54 47.68 45.84 44.63 44.66 46.86 49.53 49.13 49.57 50.54 51.52 50.78 50.15 50.58 50.87 51.16 51.27 51.33 51.20 50.62 50.41 50.15 50.12 50.11 50.01 49.26 49.56 50.08 52.35 51.06 51.07 51.24 52.36 52.29 51.44
44.22 41.05 45.82 47.58 47.49 45.91 44.86 43.35 42.93 45.42 46.60 45.90 44.82 43.99 46.98 48.33 48.59 49.89 50.74 50.59 50.07 49.79 50.05 49.66 50.11 50.30 49.70 49.14 49.43 49.49 49.02 49.25 48.99 48.63 49.91 50.85 50.83 51.98 51.71 51.27 50.56 50.72 50.54 50.59
41.45 44.91 47.70 46.14 45.39 44.06 44.43 43.16 42.96 42.38 45.33 46.29 44.34 42.26 44.44 47.34 49.29 50.71 50.58 51.14 50.08 49.34 48.67 48.52 48.55 47.41 47.48 47.17 47.35 47.28 47.63 48.01 47.38 47.55 48.59 48.55 50.45 50.81 49.47 49.60 49.30 49.76 49.61 49.36
43.50 46.67 46.01 44.91 43.53 44.62 41.15 45.84 44.42 43.08 41.80 36.94 44.20 35.47 43.40 46.04 46.84 47.91 47.92 48.28 48.39 48.35 47.86 47.94 46.52 45.90 46.53 46.95 47.83 47.51 47.84 47.06 46.52 46.71 45.20 45.06 44.58 43.54 45.37 46.37 45.98 47.95 48.62 47.44
42.31 43.61 43.68 42.80 43.17 45.47 42.66 46.36 44.07 43.50 41.13 39.93 39.78 37.20 40.52 45.24 44.37 45.81 47.18 48.04 48.75 48.44 47.41 45.54 44.93 45.72 46.35 46.71 46.86 47.59 47.76 46.23 45.75 45.43 44.41 43.37 42.45 42.69 43.44 42.94 43.07 43.57 44.05 44.64
44.01 47.30 45.99 44.63 46.03 46.00 46.43 43.75 43.16 42.47 40.09 32.92 38.16 37.67 38.27 42.08 45.45 46.45 48.22 48.69 48.18 46.31 45.53 45.14 45.55 46.43 45.40 45.86 45.77 45.65 45.44 44.51 44.35 43.72 43.12 41.90 40.98 40.98 40.97 39.94 39.51 39.79 40.98 40.96
41.42 42.56 46.08 47.21 43.44 45.85 44.28 40.12 32.86 31.16 31.48 30.72 40.95 38.82 40.55 45.58 48.37 48.88 47.89 47.84 47.58 45.93 44.65 44.66 44.88 44.54 44.13 43.91 43.23 43.83 43.88 42.40 42.40 41.77 40.82 40.15 39.77 39.99 39.17 38.42 37.94 37.53 37.96 37.73
35.27 34.34 42.39 45.83 43.40 41.79 41.58 40.36 34.26 27.05 29.43 33.78 41.22 35.83 39.99 47.13 48.10 50.00 49.56 48.75 47.22 45.36 44.84 44.76 44.47 44.21 43.33 42.71 41.25 41.62 42.06 41.07 40.38 40.19 39.69 39.45 38.91 38.57 38.72 38.09 37.76 37.20 36.98 37.43
36.27 36.04 44.90 45.70 45.46 45.05 41.05 36.99 42.98 36.62 37.58 32.58 35.78 40.32 44.93 46.80 46.24 46.83 47.33 47.40 44.98 43.83 43.69 43.60 43.78 43.48 42.88 41.42 39.75 39.88 39.90 39.93 39.34 39.17 38.96 38.53 38.66 38.04 37.67 37.93 37.66 37.52 37.70 37.26
40.18 35.10 42.87 44.46 45.58 45.28 42.69 44.85 36.08 37.19 27.26 25.67 33.05 35.42 36.28 41.39 42.33 44.77 45.17 45.11 44.41 43.74 43.74 43.42 44.02 42.97 42.29 41.04 39.79 39.88 39.33 38.48 38.73 38.78 38.48 38.45 37.93 38.03 38.06 37.54 36.61 36.84 36.65 36.59
42.21 40.16 39.48 43.30 40.24 39.07 39.40 38.25 40.03 39.73 36.09 28.50 27.39 34.30 46.19 43.96 44.81 44.00 45.56 46.41 44.67 43.30 42.83 43.47 43.87 43.10 42.01 40.98 39.52 38.86 38.65 37.94 37.83 38.09 38.18 38.21 38.09 38.08 37.67 36.70 36.56 36.56 36.75 36.83
43.24 40.46 35.18 38.80 44.03 44.45 42.59 39.88 39.98 33.15 32.02 35.19 33.70 34.09 47.18 46.78 46.60 46.42 46.09 47.04 46.01 44.03 43.65 44.20 44.09 42.51 41.04 39.90 39.25 37.73 38.09 37.93 38.27 38.39 38.51 38.24 38.43 38.31 37.45 36.89 36.66 37.13 36.52 36.60
43.43 38.73 32.32 34.14 39.78 42.72 39.49 40.68 41.45 40.29 38.79 32.68 29.78 33.08 46.28 46.73 46.73 47.48 47.12 47.36 45.33 43.66 43.95 44.00 43.44 41.55 40.28 38.89 38.42 37.74 37.69 38.22 39.17 39.19 38.95 37.96 37.15 36.37 35.77 35.74 36.22 35.79 35.41 35.35
45.15 39.45 35.48 30.88 34.70 38.74 36.60 38.76 40.74 39.12 32.82 33.43 34.39 36.78 42.19 44.38 44.10 45.09 45.47 46.57 45.22 43.61 43.74 43.86 42.66 41.03 39.38 38.43 37.99 37.24 37.54 38.50 38.76 38.37 37.34 36.24 35.69 35.47 35.24 35.31 34.90 34.67 34.48 33.39
40.92 34.46 37.09 37.14 37.77 37.77 36.83 37.30 38.02 36.29 37.08 33.00 36.18 36.86 41.27 44.10 44.63 44.77 45.98 46.29 45.02 43.17 43.30 43.47 42.19 39.78 37.72 37.51 37.70 37.84 37.69 37.97 38.34 36.55 35.74 34.93 35.07 34.79 34.47 33.95 33.52 33.32 32.32 32.13
40.63 32.26 34.81 32.26 36.21 36.59 34.55 36.20 37.38 36.88 36.95 36.82 37.92 37.94 44.93 46.10 46.56 44.66 44.74 45.89 43.86 43.22 43.11 42.92 42.22 38.90 36.92 36.88 36.75 37.07 37.46 37.02 36.86 34.85 33.90 34.14 33.33 32.54 31.91 32.02 31.52 31.02 30.08 29.23
36.11 33.87 31.46 27.16 33.57 33.64 28.96 34.06 35.87 37.68 39.37 38.40 33.86 39.37 43.56 42.73 43.72 44.30 44.92 46.11 44.09 43.15 42.60 41.96 40.31 38.40 37.18 37.07 37.25 36.55 36.61 36.45 34.71 33.46 32.91 31.93 31.41 30.29 29.81 30.21 29.73 28.75 27.81 27.82
34.89 33.84 33.46 28.22 30.81 21.56 34.45 40.80 39.86 38.00 39.25 40.28 40.12 41.21 42.64 43.44 45.18 46.51 47.91 45.51 44.33 43.32 41.84 40.96 38.48 36.84 36.49 36.65 36.58 37.22 36.57 34.71 32.82 31.22 30.62 30.47 30.14 29.62 28.86 28.38 28.29 28.24 28.15 26.58
38.58 34.59 29.28 26.79 27.13 30.82 34.00 37.79 37.03 36.72 35.90 41.50 40.28 42.02 42.74 43.78 44.82 43.77 47.03 47.63 45.01 42.59 40.32 36.54 37.08 35.64 35.19 35.12 36.16 36.22 34.65 33.06 30.71 28.81 28.18 28.19 28.31 27.13 27.05 24.99 26.27 27.41 27.85 26.61
37.33 37.11 30.67 29.52 23.56 21.15 33.39 38.94 41.99 41.17 29.56 40.80 42.26 41.88 42.19 42.49 37.82 41.48 42.93 41.28 38.36 37.00 36.55 35.19 34.64 34.20 33.65 33.60 35.48 34.19 32.54 31.01 29.42 28.99 28.36 28.29 27.91 25.67 22.49 26.22 25.10 27.59 28.24 27.06
31.01 31.16 27.39 27.38 25.25 28.94 37.37 39.47 41.22 27.83 31.11 42.20 43.14 43.20 42.73 40.71 40.17 38.88 37.32 35.55 35.37 35.45 34.17 34.09 33.11 31.87 32.11 33.71 33.62 30.59 29.31 27.46 29.07 29.82 29.50 28.66 28.35 28.25 28.20 27.31 27.42 26.93 26.45 26.33
29.24 28.15 27.47 28.78 25.26 22.64 40.08 39.82 33.37 39.13 44.00 42.85 43.29 43.65 38.92 36.74 34.53 32.74 32.85 32.49 32.61 32.11 32.47 32.06 30.93 30.98 32.23 32.17 30.78 27.98 26.37 28.81 29.38 28.20 27.81 27.02 28.09 28.24 28.60 27.67 27.98 27.86 27.82 24.72
28.25 32.83 31.13 31.16 31.81 39.96 41.57 40.51 42.30 44.64 42.44 43.02 43.16 42.12 38.79 33.14 31.64 31.80 31.14 31.17 31.24 31.35 31.24 31.89 31.06 30.83 32.01 32.34 31.10 27.80 28.51 29.32 28.31 27.16 24.56 26.16 27.69 28.52 27.95 26.92 25.99 25.86 25.90 24.61
36.14 39.33 33.28 34.03 37.36 38.70 41.02 43.72 44.20 43.46 42.08 43.23 43.40 40.80 36.51 32.01 31.64 30.78 30.87 30.47 30.44 30.77 30.66 31.20 31.61 31.42 31.22 32.39 31.96 30.47 30.24 29.94 28.61 27.09 27.20 27.59 26.86 26.51 26.74 25.14 23.07 21.40 21.02 21.29
35.52 37.59 34.97 35.07 37.69 39.94 41.69 43.06 44.11 43.30 42.64 42.20 42.87 38.53 34.05 32.33 31.04 30.67 29.84 30.12 30.28 30.60 30.89 32.29 32.08 31.91 31.66 32.93 32.27 32.30 32.17 32.20 30.06 28.67 27.16 25.91 25.69 23.20 21.72 22.12 21.81 19.92 19.67 20.08
37.02 34.84 33.08 32.48 39.52 38.92 40.11 42.61 41.69 42.98 40.16 41.32 40.03 35.36 34.54 32.90 30.99 30.75 30.03 30.56 30.76 30.81 31.94 31.92 32.14 31.54 31.31 32.02 31.47 32.16 32.80 31.51 29.50 27.57 26.90 26.91 26.26 25.19 22.08 20.36 19.14 22.38 21.42 21.56

GFSCGP_sfc_wetblb_135.txt.gz
Wetbulb
45.05 38.14 34.97 39.84 41.84 42.18 41.57 39.79 37.76 40.67 44.01 41.72 41.16 39.92 42.82 45.70 44.68 43.85 46.09 46.13 44.80 45.03 46.51 46.93 46.95 46.08 45.56 45.42 45.12 44.98 44.81 44.43 45.13 44.73 45.25 45.29 44.74 47.11 46.58 47.25 48.18 48.33 48.79 48.13
39.75 36.69 42.55 44.79 43.89 42.37 41.74 40.15 38.95 42.10 44.39 41.65 39.76 39.13 42.21 44.38 44.07 45.67 45.60 45.56 44.89 44.96 45.46 46.61 45.40 43.94 43.52 43.18 43.72 44.05 43.61 43.38 43.63 43.72 44.29 44.19 44.80 46.41 46.76 47.10 47.10 47.50 47.28 46.02
37.26 40.39 45.47 43.87 42.39 41.28 41.38 40.03 40.16 40.10 42.38 39.47 39.21 36.29 39.58 44.15 44.92 46.98 47.46 46.83 46.58 45.10 44.30 44.97 43.88 42.60 42.31 42.09 42.39 43.45 42.86 42.40 42.96 42.54 42.66 43.11 43.67 43.80 43.06 42.57 42.97 44.36 45.11 43.82
39.91 43.93 42.13 42.60 40.89 42.47 37.50 43.83 43.38 41.78 38.16 32.91 38.59 29.54 37.64 40.90 43.05 45.01 45.41 44.51 44.16 44.52 44.33 43.67 42.10 41.81 41.49 41.44 42.50 42.58 42.56 41.74 42.53 41.85 40.81 39.54 39.27 37.97 39.65 39.52 41.02 41.12 42.41 41.19
39.44 40.81 40.12 39.38 41.90 44.14 40.53 45.56 42.32 40.88 36.45 34.87 35.96 31.52 34.67 41.25 40.38 42.20 42.95 43.92 43.84 43.68 41.97 41.20 41.26 41.67 41.74 41.59 40.99 41.22 41.63 41.07 40.68 39.80 38.88 37.94 37.06 38.03 39.39 38.71 38.30 38.62 40.24 40.39
41.66 46.21 42.77 42.42 44.62 44.67 45.56 42.32 40.56 38.88 35.60 25.77 34.66 33.20 32.61 36.54 41.07 42.82 44.42 44.76 43.85 41.97 41.71 42.32 42.92 42.76 41.06 40.29 39.48 39.51 39.42 39.11 39.19 38.37 37.79 36.69 36.05 36.00 36.11 36.89 37.53 38.02 38.59 39.10
39.89 40.59 44.82 44.35 40.27 42.91 41.85 36.79 26.06 24.66 23.95 25.05 37.08 34.46 36.29 40.58 44.90 45.49 44.30 44.07 42.63 41.68 40.90 41.28 41.14 39.97 39.42 38.39 38.39 39.20 37.88 36.91 37.45 37.54 37.23 37.56 37.81 38.06 36.23 36.81 36.99 36.48 36.48 37.15
32.22 30.02 39.78 43.64 41.32 39.25 39.42 38.31 28.97 23.61 23.26 27.47 37.54 30.06 36.43 44.41 46.61 47.39 46.99 43.99 42.86 40.84 41.61 41.19 40.93 39.97 38.44 37.78 36.63 36.47 37.40 36.65 37.28 38.79 37.36 38.40 37.86 37.71 37.50 36.81 36.89 36.49 36.13 36.37
33.09 33.01 42.05 43.36 43.84 43.10 38.62 34.84 40.08 33.71 33.44 24.94 30.48 35.94 41.85 44.10 43.74 44.73 43.58 42.48 40.66 40.76 41.21 40.74 40.73 38.94 37.14 36.10 35.73 35.32 35.62 36.22 38.35 38.50 38.07 37.72 37.80 37.35 36.40 36.75 37.08 36.35 36.38 36.70
38.78 32.15 40.47 42.52 44.14 43.55 40.60 42.25 33.25 32.43 25.21 23.44 29.32 31.13 30.20 37.51 39.28 42.75 41.44 40.15 39.93 40.62 40.48 40.45 39.98 38.28 37.11 36.41 35.79 35.39 35.85 36.97 38.03 38.02 37.93 37.52 37.22 37.42 37.06 36.75 36.09 36.01 36.23 36.75
39.80 36.39 35.26 41.31 38.76 37.29 37.66 36.49 37.69 36.64 32.58 24.72 22.79 25.28 40.71 39.63 41.74 41.70 42.10 41.66 40.00 39.98 39.82 40.29 39.77 38.20 37.27 36.20 35.18 34.95 36.11 37.44 37.27 37.51 37.69 37.43 37.09 37.27 36.37 35.89 35.75 35.86 34.07 34.73
40.24 36.85 31.19 34.78 42.00 43.02 40.56 38.33 37.88 30.23 28.43 28.53 26.35 26.71 44.38 43.49 44.13 44.07 43.12 42.88 40.89 41.07 40.66 40.67 39.12 37.83 36.98 35.67 34.99 34.44 36.33 37.09 36.40 37.44 37.68 37.77 35.14 34.48 33.25 33.20 32.85 32.87 32.41 33.88
38.49 34.05 28.27 32.09 37.61 40.07 37.89 38.92 39.10 38.72 34.36 29.80 23.80 27.80 44.82 45.86 44.92 44.73 43.47 43.38 41.52 41.00 40.79 39.99 38.44 37.37 36.32 35.49 35.33 34.71 34.89 35.45 37.05 37.92 35.50 33.53 32.97 32.74 31.87 31.85 32.15 32.06 31.46 31.69
41.11 37.48 33.09 27.92 31.26 36.79 34.68 37.64 38.78 37.23 30.05 30.11 30.36 32.51 38.51 41.67 42.71 43.26 42.96 42.64 41.59 41.63 41.91 41.45 38.03 36.60 35.80 35.72 35.08 34.78 35.11 36.36 36.65 37.24 34.14 32.20 31.92 32.04 31.58 31.63 31.14 30.19 30.14 29.74
37.73 31.88 32.71 35.46 35.70 36.69 35.92 36.73 37.60 36.23 36.31 31.36 34.06 35.03 38.73 40.95 43.10 43.98 44.41 43.95 42.78 41.10 41.50 41.40 37.26 35.13 35.01 35.19 34.88 35.05 35.14 37.25 37.11 35.68 32.56 31.22 31.24 31.27 31.15 30.08 29.48 28.67 27.88 27.95
37.52 30.72 31.46 29.83 34.30 34.41 31.84 35.35 36.40 36.66 37.14 36.39 35.97 34.64 41.90 43.82 44.97 44.30 44.81 44.81 43.72 40.97 41.60 41.98 37.87 35.51 35.32 35.36 34.41 35.81 36.15 34.93 34.17 32.07 31.08 31.27 30.44 30.05 29.02 28.50 27.79 26.96 26.05 25.76
34.38 30.42 29.15 25.24 31.63 31.01 26.49 31.80 33.49 35.90 37.77 37.09 32.44 36.92 41.10 40.62 41.88 42.65 44.20 44.68 42.12 41.77 41.71 41.19 36.27 35.39 35.07 34.76 35.31 35.37 34.25 33.87 32.23 31.08 30.54 30.04 29.16 27.86 27.57 27.94 26.80 25.63 24.61 24.61
32.66 31.65 30.80 26.42 28.46 19.25 31.71 37.91 37.54 36.21 37.32 38.74 39.36 39.47 40.14 40.49 42.75 43.94 43.71 43.28 42.38 41.75 41.65 39.35 36.25 35.10 34.29 34.62 35.68 34.90 33.42 31.97 30.63 28.94 29.20 29.59 28.25 26.56 26.43 26.05 24.11 22.87 23.81 19.49
35.47 31.95 25.94 21.62 22.86 28.25 31.44 35.60 34.09 32.86 33.84 38.70 37.54 38.74 40.21 40.76 42.43 40.28 43.17 43.15 42.66 41.71 39.18 36.41 35.79 34.21 33.95 33.77 35.71 33.21 30.87 29.85 28.59 26.97 26.82 27.21 26.50 24.68 24.07 17.41 17.09 18.84 23.34 20.82
33.72 33.86 26.32 22.98 20.20 19.42 29.06 37.14 40.45 38.87 26.52 37.38 38.61 38.26 38.52 38.30 30.24 32.71 37.57 39.04 36.07 35.99 35.12 33.16 33.19 33.82 33.66 33.92 33.89 31.72 29.62 28.23 26.53 26.43 26.65 26.85 25.90 21.11 14.04 14.67 16.39 19.13 20.98 24.01
26.69 26.35 25.22 24.54 23.71 27.44 34.19 37.99 39.77 26.06 25.97 38.37 39.66 38.74 38.04 34.03 34.74 35.01 34.60 33.65 33.92 33.95 33.42 33.23 33.29 32.42 32.28 32.79 30.57 28.04 26.85 25.97 27.67 28.46 27.60 26.76 26.14 24.62 23.11 21.03 19.25 18.57 18.81 24.35
27.64 27.12 26.02 26.94 24.29 21.32 38.23 38.05 31.33 34.39 37.92 37.69 38.79 37.22 34.27 33.10 32.95 32.36 32.60 32.13 32.48 32.20 32.40 32.16 31.62 31.75 33.20 31.74 29.34 25.63 25.13 27.22 27.36 27.08 26.09 24.19 24.87 26.84 26.52 22.34 22.95 24.40 21.24 20.71
22.19 28.39 25.66 29.53 27.16 34.55 37.79 36.52 38.44 39.57 38.55 38.32 37.87 36.25 34.07 31.81 31.47 31.68 30.98 31.11 31.11 31.07 31.05 31.56 31.30 31.16 31.78 30.78 28.91 26.58 27.52 27.03 26.29 24.87 19.07 23.13 26.09 26.06 25.17 23.60 21.49 20.98 20.84 20.12
31.89 35.58 25.82 28.78 32.16 34.88 37.00 39.23 40.44 40.25 39.21 39.62 39.34 34.67 33.56 31.86 31.67 30.77 30.74 30.39 30.15 30.28 30.10 31.01 30.80 30.10 29.72 30.01 29.14 28.47 28.09 27.75 26.40 24.81 24.83 24.80 24.25 23.37 21.51 21.21 20.49 18.98 18.09 18.47
30.84 33.45 30.84 31.20 34.03 36.72 37.66 39.25 39.89 39.99 39.29 38.80 36.97 34.59 33.28 32.23 31.13 30.67 29.75 29.77 29.75 29.94 30.15 31.13 29.96 29.41 29.29 29.97 28.84 28.94 28.88 27.75 25.89 25.67 24.80 23.03 22.21 21.21 20.58 19.34 17.48 18.81 16.01 18.40
32.75 29.44 27.61 28.36 36.82 36.12 36.35 40.57 41.16 39.44 37.86 36.73 34.04 32.46 33.47 32.59 30.72 30.58 29.64 29.91 29.79 29.19 30.19 29.85 29.32 29.19 29.03 29.28 28.36 28.85 29.34 28.68 26.93 24.36 23.45 22.56 20.73 20.20 19.22 19.16 18.00 22.32 21.94 22.28

GFSCGP_sfc_wetblb_141.txt.gz
Wetbulb
40.81 35.71 33.72 38.24 39.25 37.58 36.42 34.40 34.11 35.61 41.65 39.17 37.74 37.84 40.97 40.69 44.25 42.21 41.58 41.79 41.96 42.61 44.34 44.31 42.96 42.19 41.39 41.21 41.40 41.09 40.48 40.31 40.72 40.98 41.15 41.91 40.88 41.36 41.36 41.59 41.62 41.38 40.27 40.59
36.97 33.48 39.39 41.02 40.38 38.72 37.03 34.92 34.42 37.86 42.13 39.29 37.59 36.67 39.47 40.95 43.23 42.92 42.67 41.80 41.96 42.09 42.87 43.29 42.20 41.32 41.05 40.46 40.39 40.02 39.64 39.18 39.25 39.38 39.62 40.76 40.76 39.65 39.62 39.38 40.23 40.21 39.37 39.26
34.52 37.59 41.93 40.05 38.43 36.88 36.00 34.98 35.58 36.70 40.16 39.08 34.17 34.48 35.75 40.25 40.82 43.98 44.39 43.78 43.53 42.46 41.63 42.17 41.75 40.51 40.04 39.73 39.14 39.08 38.47 38.07 38.32 38.51 38.74 38.69 39.11 38.03 36.87 36.92 37.25 38.57 39.05 38.93
36.30 40.73 39.71 37.80 37.07 38.11 33.19 39.46 38.96 37.91 35.13 29.65 36.39 29.40 35.13 37.93 39.13 42.16 42.75 42.23 42.38 42.51 42.66 42.00 40.92 39.40 39.34 38.34 38.54 38.41 38.16 36.97 37.46 37.14 36.34 35.74 34.64 33.62 34.91 35.08 36.08 36.90 38.23 37.52
35.03 37.19 36.76 36.04 37.42 40.85 36.17 41.15 38.38 37.41 34.69 32.26 33.56 28.74 33.52 37.26 37.03 38.83 41.83 41.74 42.14 42.75 42.15 41.02 40.41 39.86 39.34 38.57 37.27 37.08 37.06 36.26 35.90 35.60 35.28 34.65 33.59 34.10 34.58 34.81 34.88 35.64 36.67 37.04
36.89 41.12 39.66 38.57 40.85 40.40 41.39 38.33 36.73 33.99 32.19 25.30 33.05 31.19 35.13 34.63 38.99 38.82 42.12 41.99 42.33 41.97 41.33 40.95 40.71 40.30 37.73 37.23 35.77 35.20 35.69 35.01 35.27 34.83 34.65 33.82 32.85 32.81 33.01 33.30 33.22 34.01 34.91 35.42
37.54 38.15 41.15 42.58 37.98 39.87 38.46 33.92 25.28 24.35 23.18 26.18 35.16 32.43 36.48 36.91 40.61 41.92 41.42 41.61 42.14 41.06 39.67 39.23 38.66 37.75 36.22 35.77 35.23 35.06 35.08 34.10 34.45 34.26 34.03 33.94 33.19 32.75 32.60 32.80 32.16 32.67 32.85 33.09
29.88 28.61 37.47 41.59 39.31 37.33 37.28 36.10 28.53 22.53 21.85 27.11 34.65 28.79 34.78 40.46 42.01 42.30 44.21 43.48 41.96 40.18 39.93 38.95 38.36 37.25 36.06 35.81 34.97 35.02 35.21 34.42 34.56 34.23 33.76 34.31 34.16 33.36 33.60 33.46 32.44 32.46 32.73 33.02
30.55 30.65 37.49 41.13 43.32 42.04 36.80 33.59 38.25 32.24 31.86 25.51 27.06 31.57 37.72 40.98 41.38 42.16 42.09 41.23 39.47 39.13 39.31 38.86 38.41 37.07 35.28 35.00 34.35 33.94 34.34 34.44 34.72 34.64 34.63 34.16 34.17 33.78 33.81 33.70 32.89 32.44 32.78 33.28
36.36 29.80 36.85 38.70 41.80 41.70 39.25 40.66 32.23 31.99 24.84 23.37 28.70 27.21 30.08 35.17 37.89 39.69 39.74 39.03 38.94 39.15 38.67 38.58 37.64 36.42 35.48 35.06 34.37 34.10 34.57 34.58 35.14 34.95 34.95 35.02 34.16 33.94 33.87 33.31 32.05 31.11 30.12 28.63
37.29 34.01 32.62 37.36 35.29 35.41 35.63 35.20 36.40 35.75 33.21 26.44 24.95 28.58 34.76 36.51 39.05 39.00 39.91 39.40 38.42 38.14 38.60 37.48 36.78 36.56 35.32 34.42 33.89 33.48 34.17 34.54 34.69 35.56 35.15 34.23 33.12 32.85 31.66 31.02 30.40 29.25 28.98 28.11
38.07 34.48 28.37 32.03 39.03 40.61 37.81 36.15 36.96 30.26 29.03 30.13 31.16 30.63 39.43 39.79 41.07 41.24 40.02 39.31 38.24 38.91 38.17 36.24 35.78 35.28 34.25 33.72 33.61 33.30 33.63 34.26 35.06 35.18 34.20 33.50 32.53 31.41 29.86 29.41 29.33 27.61 25.87 26.40
38.26 33.61 27.35 29.45 34.58 38.07 34.82 36.82 36.91 35.71 34.08 30.90 27.96 29.84 41.45 41.27 40.92 40.96 38.52 38.07 38.42 37.79 35.42 35.16 34.71 34.41 34.48 33.97 33.78 33.72 33.84 34.01 34.35 34.12 32.00 31.27 30.51 29.69 28.55 27.99 28.01 26.16 24.97 24.63
39.83 34.76 31.68 26.13 28.61 32.70 31.36 33.78 34.49 34.60 28.91 30.15 31.55 34.12 37.93 39.04 39.15 40.03 39.31 38.89 38.12 37.58 36.31 35.46 35.02 34.61 34.82 34.86 34.38 34.56 33.98 34.38 34.32 32.71 31.20 29.89 29.15 28.62 27.59 27.29 27.08 25.53 24.69 24.04
36.42 30.17 31.88 32.60 32.74 33.13 32.12 31.44 32.16 31.39 34.18 30.46 32.99 34.07 38.15 40.03 40.25 40.74 40.18 39.61 38.61 38.05 37.41 36.08 35.03 34.86 34.97 34.87 35.26 35.09 34.18 35.24 33.86 32.31 30.40 29.05 28.70 28.27 27.29 26.65 26.38 26.22 24.69 23.98
34.88 29.83 31.08 28.59 32.78 32.74 29.51 31.34 32.01 32.55 34.99 35.28 35.17 34.98 40.46 43.00 44.19 42.49 41.04 39.97 39.12 39.22 39.20 38.16 37.59 36.21 35.31 35.29 35.15 35.26 35.27 34.35 33.33 31.00 29.33 29.25 28.25 27.46 26.23 25.51 24.92 24.19 23.42 23.13
33.99 30.75 29.16 25.08 31.24 29.74 24.73 29.89 31.64 32.42 33.51 33.11 28.76 33.91 37.24 36.55 40.14 41.10 42.67 41.02 39.98 40.32 40.58 39.94 38.84 37.37 36.42 35.66 35.47 34.64 34.93 33.26 30.84 29.48 29.17 28.60 27.90 26.68 25.32 24.33 22.94 21.70 20.70 20.63
32.10 31.43 30.30 25.47 28.69 15.95 28.77 36.53 35.70 33.96 34.20 35.86 35.60 36.59 37.93 38.45 40.85 42.87 45.07 42.56 41.74 42.02 42.06 42.66 40.50 37.30 36.25 36.11 35.77 35.53 32.85 31.33 30.10 29.04 28.16 28.26 27.07 25.46 24.58 22.97 20.44 18.08 16.32 9.87
35.50 32.31 26.86 21.37 22.88 25.80 28.98 33.39 32.22 31.90 31.84 36.99 36.42 37.66 39.05 40.49 40.10 39.97 41.39 40.71 42.95 42.81 44.24 42.71 40.88 36.65 35.40 35.38 35.78 33.24 31.29 29.98 28.67 27.71 27.25 27.28 26.25 24.26 23.33 19.05 15.51 13.14 15.75 12.11
33.84 33.95 27.89 21.89 15.49 14.46 27.13 35.08 38.00 36.57 24.41 35.35 36.37 35.77 34.34 37.76 32.42 35.41 36.12 35.25 36.79 39.09 41.33 36.47 35.90 35.20 35.08 34.81 33.51 31.39 29.98 28.61 27.42 27.71 27.14 26.58 25.88 22.18 18.10 16.60 15.16 9.16 7.97 7.12
26.99 25.42 25.10 23.54 22.05 24.39 31.67 35.32 37.80 22.62 25.41 35.58 36.94 37.17 37.28 33.62 34.20 34.42 33.64 31.02 31.54 33.31 34.54 35.25 34.80 33.48 32.72 32.21 32.07 29.78 28.46 26.46 27.66 28.12 27.01 26.12 24.93 23.05 20.48 20.25 18.52 11.98 8.56 8.08
24.88 22.64 23.03 25.11 22.26 18.09 34.25 34.90 29.22 32.14 34.31 36.52 36.47 36.99 34.56 33.75 33.42 32.41 32.07 31.35 29.20 31.65 32.93 33.63 32.56 30.96 31.41 31.52 30.20 27.71 26.51 27.36 27.67 26.76 25.75 24.68 24.34 25.52 24.52 22.70 20.54 16.86 10.02 7.12
21.45 26.09 23.86 24.08 22.87 29.77 33.03 32.92 35.06 36.18 35.03 34.63 35.57 35.68 34.57 32.59 31.98 31.77 31.20 31.50 31.59 30.81 31.35 32.61 31.72 30.40 30.71 30.83 29.71 26.75 26.63 27.16 26.34 24.82 23.56 23.99 25.69 25.68 24.90 23.27 21.10 17.95 13.88 12.01
29.04 32.24 25.18 27.35 28.71 31.33 33.51 34.48 35.87 36.83 36.22 36.31 37.31 35.23 34.69 32.59 32.13 31.16 30.79 30.79 31.28 31.89 31.34 31.28 30.76 29.23 28.44 29.44 29.19 28.00 28.18 26.98 25.43 24.44 24.28 25.08 23.81 23.21 23.96 23.93 22.11 18.15 15.87 14.63
28.83 30.79 27.86 25.57 29.49 31.58 33.18 34.62 36.53 37.26 37.17 35.90 34.99 33.67 33.69 32.71 31.88 31.15 30.33 30.38 30.82 31.32 31.87 31.69 30.19 28.73 27.97 28.49 28.01 28.57 28.00 26.99 25.35 25.19 25.00 23.31 23.66 22.00 21.44 21.16 20.00 18.90 15.54 17.37
29.56 27.47 24.34 22.90 29.87 29.97 31.56 35.13 37.54 36.82 35.87 35.48 33.94 34.06 34.67 33.91 31.85 31.73 30.51 30.71 30.51 30.21 31.34 30.51 29.97 29.17 28.76 28.07 27.78 27.90 27.93 27.20 25.82 25.06 23.27 22.20 21.20 20.32 19.27 19.14 18.70 22.47 21.10 21.39

GFSCGP_sfc_wetblb_144.txt.gz
Wetbulb
39.13 34.44 32.37 36.91 37.92 36.43 34.91 32.98 32.30 33.50 39.52 37.09 35.70 35.71 38.40 40.51 43.00 41.09 40.35 41.15 41.43 41.46 42.51 44.33 43.73 41.77 40.64 40.25 40.17 40.24 40.08 40.11 41.61 41.30 41.09 39.80 38.38 38.73 39.11 39.63 39.50 39.04 39.03 39.53
35.63 32.52 37.90 39.35 38.75 37.40 36.40 34.27 33.33 35.64 39.42 37.34 34.85 35.68 38.41 38.95 41.77 43.40 42.39 41.61 41.74 41.26 42.20 42.77 41.98 40.36 40.31 39.83 39.55 39.17 38.79 38.78 39.19 39.61 39.70 39.66 37.98 37.63 37.36 37.84 38.44 38.48 38.34 38.38
34.08 36.99 40.42 38.56 36.96 35.62 34.93 33.90 34.01 34.41 37.20 37.06 33.91 35.42 36.23 38.04 40.21 43.62 44.25 44.47 43.44 42.32 41.71 42.03 41.22 39.99 39.09 38.46 38.11 38.06 37.33 37.45 38.12 39.16 39.45 38.53 37.88 37.05 36.02 35.73 35.88 37.13 37.40 37.82
35.15 39.09 38.18 36.37 35.46 36.81 31.80 37.69 37.61 35.61 32.74 27.67 34.31 27.85 33.71 35.89 37.99 41.03 42.37 42.86 42.38 42.45 42.62 42.33 41.15 39.51 38.75 38.24 38.08 37.49 37.27 36.93 37.34 37.27 37.27 36.32 34.52 32.97 34.11 34.33 34.85 35.73 36.86 36.68
34.49 35.81 35.15 35.09 36.92 38.84 34.81 38.89 36.33 35.27 31.45 29.74 31.06 27.85 31.11 38.01 33.93 37.69 41.39 41.95 42.58 43.07 42.10 41.27 41.22 40.64 39.55 38.07 36.58 35.74 36.08 35.81 35.90 35.61 35.25 34.45 33.00 33.12 33.66 33.71 33.77 34.31 34.99 35.84
36.62 39.30 37.67 37.13 38.94 39.65 40.02 36.37 35.26 32.46 31.14 23.01 30.60 29.99 32.95 32.49 38.52 38.44 41.26 42.58 42.90 42.40 41.82 41.60 41.20 40.13 38.23 36.07 35.11 34.83 34.93 34.74 35.15 34.51 33.69 33.07 32.26 32.21 32.01 31.70 32.21 32.69 33.37 33.74
36.60 37.22 38.26 40.29 35.71 37.78 35.64 31.60 23.23 22.44 22.40 24.36 33.60 30.17 35.17 36.69 39.17 39.69 40.46 42.12 42.62 41.79 40.70 39.94 39.14 38.30 36.54 35.09 34.52 34.17 33.92 33.11 33.57 33.44 32.93 32.71 32.38 32.21 31.55 31.31 31.99 32.14 31.82 31.14
30.12 29.70 36.85 39.72 37.97 35.64 36.89 35.16 27.96 22.75 22.48 25.72 32.85 27.16 33.90 39.12 40.61 40.73 42.30 43.14 41.77 40.60 40.30 39.69 39.07 37.50 36.40 35.16 34.09 34.17 33.86 33.13 33.43 33.37 33.08 33.01 33.13 33.29 32.83 32.27 32.07 31.99 31.51 30.10
30.07 29.86 37.05 40.17 41.63 40.39 35.29 32.60 37.95 30.85 31.56 27.19 27.56 30.21 36.54 39.36 39.22 40.07 40.32 40.40 39.92 39.58 39.18 39.07 38.40 36.93 36.00 34.87 34.14 33.80 33.46 33.28 33.49 33.71 33.48 33.43 33.53 33.43 32.75 31.86 31.45 29.59 28.89 30.33
34.46 29.50 35.71 37.72 39.70 39.68 38.12 39.07 30.96 31.51 24.62 22.94 27.41 29.27 29.56 33.97 36.63 38.59 38.29 38.44 39.45 39.11 38.58 38.44 37.72 36.15 36.15 35.59 34.64 34.12 34.56 33.96 34.14 34.30 34.21 33.76 33.30 33.23 32.35 31.34 29.45 27.99 27.06 27.22
35.77 32.48 31.16 35.12 33.16 32.83 34.48 34.02 35.78 35.12 32.34 26.64 25.44 26.94 36.18 37.05 38.60 38.69 39.12 39.39 38.42 38.24 38.14 37.81 37.07 36.57 36.44 35.95 35.01 34.78 34.58 34.43 34.17 34.21 34.00 32.93 32.20 31.37 30.62 29.29 28.14 27.20 26.99 26.73
38.11 35.81 29.37 30.90 37.31 38.69 37.66 34.37 34.88 28.92 28.05 30.61 30.08 29.23 38.95 39.09 38.37 39.55 39.21 38.26 37.49 38.35 38.47 37.26 35.95 35.60 34.56 34.28 33.90 33.65 33.59 34.15 34.42 34.58 33.89 31.86 30.68 29.75 28.80 27.61 26.42 25.92 25.51 26.25
37.16 32.16 26.82 26.56 31.73 35.33 32.48 34.19 34.19 33.82 33.06 28.30 26.91 28.65 39.77 40.28 39.78 40.32 38.09 37.03 37.29 37.00 35.76 34.94 34.80 34.33 33.98 33.70 33.64 33.56 34.11 34.09 34.97 34.69 32.94 31.29 29.75 28.65 27.36 26.58 25.59 24.95 24.77 25.17
39.29 34.27 29.81 24.63 27.81 32.64 29.49 31.79 32.84 31.50 27.77 28.54 29.18 30.95 36.05 38.23 39.25 39.06 37.20 37.17 36.85 35.71 35.65 34.87 34.46 34.39 34.08 34.13 34.17 33.95 33.92 34.84 34.69 33.23 31.68 29.65 28.33 27.32 26.84 26.67 25.18 25.09 24.70 24.42
36.51 27.37 31.62 31.48 31.08 31.86 31.07 30.99 30.93 30.06 30.89 27.52 30.89 31.79 35.91 38.39 40.08 40.52 39.53 38.45 37.07 35.26 35.30 35.69 35.04 34.78 35.21 34.56 34.50 34.43 34.52 35.00 33.78 32.36 30.28 28.70 28.05 27.32 27.12 26.58 25.18 25.01 24.97 24.43
35.65 26.95 30.24 22.22 29.82 30.55 29.92 31.77 31.77 31.43 32.18 33.89 32.06 30.72 38.46 39.12 39.53 40.13 39.61 38.61 37.45 36.55 36.51 37.21 37.10 36.32 35.08 34.88 34.45 34.76 34.71 33.93 33.39 31.22 29.68 29.24 28.18 27.01 26.40 25.91 25.02 23.92 23.03 23.01
32.96 30.26 26.11 22.44 26.35 26.15 24.58 28.03 30.59 32.11 34.37 33.38 27.83 32.87 37.34 36.86 38.25 38.72 39.84 40.46 39.41 38.97 38.31 37.94 37.66 36.30 35.95 35.76 35.63 34.46 34.85 33.66 31.93 30.75 29.21 28.31 27.32 25.98 25.19 24.54 23.08 21.80 20.66 20.75
32.42 31.03 29.23 25.65 28.13 17.92 27.21 35.38 35.31 33.21 34.48 34.94 34.74 35.11 37.42 38.00 39.62 40.32 41.52 40.83 42.18 41.64 40.79 39.70 38.99 37.57 37.96 37.32 35.85 35.53 34.28 32.39 31.04 29.64 28.30 27.79 26.58 24.76 23.59 22.27 19.97 18.00 15.92 9.57
36.00 32.13 27.52 23.95 23.88 25.54 28.33 31.45 31.47 30.78 29.52 36.47 34.92 36.45 37.92 39.27 39.41 38.75 41.91 39.83 39.82 42.62 42.91 41.58 41.33 39.39 38.01 35.70 35.67 33.85 32.07 31.54 30.15 28.77 27.82 27.14 25.93 23.52 22.06 18.01 16.10 15.32 15.22 10.73
35.62 34.71 29.38 24.82 17.63 13.00 25.34 33.57 37.10 35.04 22.68 34.44 35.82 35.81 35.91 37.36 30.21 34.74 36.91 35.79 35.24 35.96 39.22 42.05 39.98 37.79 35.91 35.06 34.52 33.13 31.42 30.30 28.80 28.49 27.65 26.69 25.60 22.30 17.70 16.16 13.90 7.12 7.37 7.41
28.88 29.33 25.84 24.94 22.31 23.90 30.50 34.10 36.42 22.46 24.79 34.34 36.47 35.79 35.43 32.20 33.81 34.46 33.92 32.67 31.08 33.36 34.91 38.18 36.92 34.62 34.27 34.98 34.05 32.02 30.52 29.32 29.32 28.94 27.49 26.00 24.24 21.45 19.31 17.14 14.46 8.39 7.13 6.68
27.09 25.36 23.66 25.93 23.02 18.45 33.36 33.20 28.68 30.82 32.69 34.34 34.43 35.26 34.72 33.46 33.06 32.62 32.31 31.63 28.79 30.48 32.33 34.11 34.30 34.95 35.24 34.58 33.77 30.87 29.97 28.87 28.51 27.50 26.87 24.90 23.28 23.26 21.64 17.68 15.53 12.77 8.58 5.72
25.26 26.53 23.37 24.85 24.14 30.40 31.50 32.78 33.88 34.75 33.88 33.81 33.69 34.66 34.71 32.12 32.28 32.31 31.60 31.74 30.01 28.76 31.65 32.01 31.96 31.43 31.89 33.08 32.36 29.60 27.44 27.93 26.95 26.28 24.66 24.04 24.49 24.20 22.22 17.84 14.46 13.59 12.37 12.44
30.69 31.56 26.15 27.62 30.23 29.81 32.77 33.73 34.07 34.02 34.91 34.99 35.31 34.89 32.23 30.88 32.28 31.61 31.42 31.25 31.22 31.65 31.03 30.40 29.90 29.26 29.08 29.96 30.35 28.22 28.18 27.54 26.49 24.77 24.17 24.79 24.55 23.36 22.50 20.17 18.37 15.57 14.44 14.52
30.63 31.76 28.58 26.40 29.75 30.70 32.25 32.55 33.92 35.34 36.01 34.49 33.33 31.63 33.77 33.09 32.19 31.47 30.65 30.68 31.11 31.47 31.10 29.94 28.83 28.46 28.53 29.28 28.08 28.45 27.88 26.88 25.32 24.42 24.95 24.67 24.44 23.72 22.66 21.56 18.78 17.54 16.96 17.67
29.49 28.66 27.29 25.57 30.90 29.72 29.69 33.10 35.95 35.87 35.13 35.35 33.91 33.68 34.55 33.65 31.99 31.86 30.65 30.95 31.16 31.03 31.11 29.90 29.18 28.24 27.88 28.19 28.13 27.90 27.67 26.45 25.13 24.57 24.15 24.38 22.97 22.11 20.41 20.28 19.94 22.22 21.00 21.75

GFSCGP_sfc_wetblb_147.txt.gz
Wetbulb
43.36 39.86 37.17 40.28 41.49 41.01 39.10 37.28 37.57 40.30 43.41 41.48 41.58 42.63 44.60 46.43 47.09 48.00 47.92 48.26 48.54 48.64 49.12 47.80 47.11 46.68 46.87 47.15 47.36 47.48 48.29 48.99 48.99 48.01 47.06 45.86 44.08 43.77 43.71 43.50 43.46 44.01 44.23 44.64
39.54 36.88 41.51 41.89 40.70 39.72 39.04 37.40 37.23 40.16 42.24 41.29 41.37 40.55 43.94 44.90 45.34 47.81 48.21 47.81 47.94 48.17 45.86 46.44 45.83 45.45 46.39 46.19 46.53 46.15 47.22 48.30 48.54 48.45 46.71 46.10 44.12 42.98 42.85 42.94 42.88 43.28 43.32 43.44
39.42 41.69 41.84 40.09 39.11 37.41 37.71 36.52 36.96 36.87 40.17 41.57 39.65 38.63 41.22 43.18 45.48 46.80 48.86 49.74 49.26 47.59 45.92 45.14 44.71 44.53 45.71 45.20 45.34 45.16 45.48 46.69 47.16 46.99 45.44 43.84 42.99 42.50 41.55 41.16 40.98 41.43 42.23 42.50
38.55 42.11 40.57 38.02 37.57 38.80 35.15 40.00 39.31 38.03 36.32 32.41 38.88 32.35 40.48 41.08 41.29 43.20 45.98 47.77 48.33 47.85 46.70 46.13 44.79 43.62 44.62 44.66 44.52 44.08 43.93 44.65 45.32 45.96 45.29 44.65 44.25 40.69 40.13 39.92 40.35 40.68 41.52 41.76
38.08 37.69 37.20 37.57 39.44 40.12 38.20 40.90 39.25 38.62 36.24 34.95 36.26 32.95 39.84 41.78 39.79 40.81 44.01 46.69 47.93 48.40 46.55 45.50 44.80 44.21 44.79 43.48 42.60 42.67 42.93 42.96 43.10 43.99 44.43 42.86 41.04 40.10 39.87 40.01 39.32 39.23 39.79 40.16
38.83 42.11 40.48 39.82 40.64 41.29 41.67 39.55 38.65 36.75 35.95 29.31 35.24 35.15 37.83 42.05 41.35 43.28 44.40 45.95 46.86 47.01 46.48 46.13 45.56 44.57 43.25 42.19 41.18 41.60 41.70 41.24 41.65 41.90 41.41 41.21 40.11 38.98 38.84 38.31 38.07 37.53 38.01 38.70
39.10 39.93 41.90 42.43 39.65 40.63 39.44 35.77 30.48 27.52 27.65 28.61 37.25 33.85 38.31 43.17 44.19 45.14 45.40 45.53 46.70 46.75 45.74 44.91 43.37 42.75 41.24 39.44 39.15 39.71 39.93 38.61 39.73 40.12 39.92 39.99 39.70 39.62 38.79 38.49 38.03 36.89 36.48 37.41
32.03 32.27 38.84 41.72 39.78 38.42 37.68 36.78 31.43 24.61 25.75 30.33 35.10 31.72 37.99 42.80 44.69 45.39 45.86 46.93 46.92 46.02 45.59 44.72 43.72 43.03 41.01 39.72 38.95 38.99 38.72 37.97 38.67 38.99 38.96 39.54 39.48 39.27 38.92 38.81 38.51 36.93 36.00 36.48
32.78 32.16 39.70 41.49 42.78 41.38 36.73 33.58 39.42 31.79 32.59 28.78 32.07 37.20 42.74 43.82 44.04 44.59 44.32 44.29 45.13 45.04 44.69 44.27 43.97 42.41 40.97 39.53 38.81 38.74 38.54 38.22 38.23 38.52 38.54 38.80 39.05 38.45 37.89 38.17 37.86 35.72 35.80 35.94
36.18 30.18 37.45 39.21 41.56 41.84 40.03 41.73 33.40 33.09 25.83 24.98 30.23 32.18 34.49 39.66 41.63 44.66 44.58 44.79 44.19 44.13 43.50 43.55 42.60 41.73 40.91 40.16 39.58 39.32 39.11 38.31 38.42 38.74 38.83 38.58 38.31 38.04 37.69 36.44 34.25 33.61 34.17 35.22
39.36 34.53 33.98 38.45 35.78 35.06 36.42 35.51 36.93 36.65 33.62 27.48 25.94 31.81 41.02 41.42 42.67 42.37 44.70 45.55 45.08 43.37 42.68 42.56 41.72 40.98 40.42 39.68 38.86 38.67 38.41 38.00 37.95 38.44 38.57 37.69 36.74 36.76 35.79 34.40 33.86 33.13 33.35 33.98
38.50 35.81 29.72 32.66 39.18 40.68 38.91 35.62 35.51 29.42 28.78 33.58 31.29 31.23 44.07 43.58 43.98 43.98 44.54 44.10 43.57 43.40 42.33 42.25 41.12 40.08 39.06 38.38 38.05 37.71 38.38 38.07 37.78 37.60 36.53 35.67 35.51 34.85 33.54 32.64 32.30 32.55 32.01 32.98
37.34 32.42 24.99 28.11 33.47 36.29 33.96 35.71 34.79 33.61 33.13 28.94 25.89 29.55 42.39 43.01 42.22 43.71 43.56 44.00 41.08 40.85 40.59 40.81 39.36 38.86 38.18 37.47 37.13 37.21 37.32 37.16 37.02 36.33 35.64 34.49 33.77 33.24 32.03 31.11 30.59 31.11 31.72 32.51
39.72 34.06 29.03 23.84 27.96 32.22 29.69 32.73 34.01 32.48 27.92 28.51 28.56 30.61 36.45 39.14 39.25 42.30 44.02 42.09 40.91 40.00 39.15 38.81 38.35 37.96 37.67 37.06 36.86 36.82 37.10 37.48 37.03 35.98 34.86 34.12 33.43 32.63 31.40 30.65 30.23 30.19 31.00 31.63
37.18 28.51 29.81 31.91 33.12 33.28 31.50 31.31 32.28 30.81 31.48 27.79 30.84 31.64 36.18 39.10 39.21 40.86 42.20 40.94 38.80 37.99 37.80 37.95 37.79 37.64 37.29 36.82 37.04 36.99 37.05 37.18 36.55 35.67 34.21 33.08 32.73 32.46 30.47 29.60 28.97 29.32 29.82 30.33
36.67 29.00 29.22 27.49 31.33 31.33 28.64 31.80 32.24 32.31 32.75 32.00 32.65 32.23 39.74 41.50 41.37 40.88 40.82 41.16 39.46 38.38 37.84 37.97 37.97 37.62 37.06 37.02 36.30 36.46 36.05 36.71 36.40 34.49 32.71 32.33 31.24 30.87 29.70 28.76 27.95 27.91 28.11 29.34
31.43 29.64 28.21 24.25 29.42 29.14 26.27 30.20 31.31 32.64 34.30 33.66 29.81 35.18 39.67 38.32 39.29 40.37 41.22 40.81 40.63 40.32 39.28 39.16 38.19 37.59 37.28 37.52 36.72 36.21 36.63 36.12 35.04 32.92 31.10 30.39 30.10 29.09 28.93 27.97 26.98 26.38 26.86 28.03
29.44 29.00 29.24 25.04 28.10 19.75 31.52 35.81 35.89 33.75 35.08 37.01 36.92 37.59 38.82 39.18 40.57 42.36 43.08 42.40 42.20 42.32 40.61 40.14 39.83 39.13 38.12 37.64 36.95 36.84 35.43 34.48 33.01 31.32 30.60 30.30 28.82 27.90 27.35 26.27 24.87 24.57 25.79 25.42
34.26 29.86 25.52 23.40 24.16 27.89 31.06 34.05 33.57 32.15 32.01 37.40 36.85 38.49 39.67 40.88 40.90 40.97 43.69 44.05 44.09 43.94 44.04 42.74 41.79 40.47 38.13 37.38 36.76 35.60 32.47 33.26 31.58 30.60 29.50 29.08 28.36 26.47 25.53 22.92 21.87 23.17 23.43 23.80
33.74 33.92 27.71 26.56 21.36 18.76 30.06 34.97 39.10 37.82 28.02 36.82 38.44 38.63 38.71 39.36 35.35 39.57 37.80 36.79 36.37 37.60 39.46 43.34 42.46 40.04 38.58 37.05 36.81 34.55 32.25 31.84 30.70 30.11 29.74 29.02 27.65 24.41 21.41 21.46 21.00 22.45 23.48 23.04
27.62 28.64 25.06 24.91 23.53 27.68 34.19 37.17 38.67 26.14 29.17 37.65 38.97 38.58 39.56 38.24 40.23 37.98 35.44 34.28 33.81 34.85 36.36 38.93 42.88 38.47 36.23 36.61 35.41 32.05 31.61 31.09 31.06 30.52 29.96 28.42 26.39 23.42 22.17 21.11 21.32 20.81 21.66 21.82
24.14 24.74 25.60 27.59 24.10 21.71 35.80 34.80 30.67 36.37 37.06 38.67 38.42 39.03 38.90 39.71 38.61 34.47 33.24 32.88 32.88 33.39 35.32 37.44 37.41 36.50 36.73 35.82 34.41 32.04 31.57 31.16 30.50 29.99 28.67 26.88 25.04 24.09 23.29 21.27 21.01 20.74 19.96 19.37
23.92 29.78 27.70 29.22 29.86 35.52 35.28 36.65 38.76 39.16 38.15 38.09 37.73 38.99 38.57 38.43 33.40 32.69 32.51 32.69 32.15 32.88 33.58 35.00 35.12 34.73 35.00 35.10 34.53 31.73 29.63 29.87 29.17 28.66 26.50 25.64 24.82 24.34 23.01 21.33 20.02 20.74 21.06 21.51
31.21 34.87 30.15 30.03 33.90 34.20 35.33 37.13 38.53 38.71 38.21 38.97 39.27 38.78 37.47 33.42 32.69 31.97 32.33 32.51 32.51 32.91 32.60 33.14 32.89 32.56 33.40 34.29 33.28 29.71 29.50 29.75 28.96 27.32 26.11 26.20 25.06 23.23 22.97 22.48 21.99 21.05 20.67 21.01
28.33 30.80 31.50 31.61 33.69 33.65 35.83 37.40 38.58 38.03 39.47 39.33 38.17 37.49 35.50 34.78 33.61 33.66 32.55 32.80 32.80 32.51 31.85 32.31 31.82 30.83 30.29 30.61 28.69 29.49 29.30 29.29 27.94 27.19 26.57 25.75 25.19 23.83 22.52 22.46 22.19 21.66 22.94 23.01
29.41 28.65 30.26 29.95 35.51 35.02 35.43 38.12 38.57 38.70 39.09 39.61 38.64 36.23 35.98 35.21 33.41 33.84 33.10 33.13 32.76 31.81 31.39 30.68 30.66 30.42 29.53 28.99 28.89 29.05 29.83 29.27 28.42 27.05 26.72 26.07 25.15 24.66 23.57 22.45 21.25 21.88 22.14 21.97

GFSCGP_sfc_wetblb_150.txt.gz
Wetbulb
48.73 45.67 43.66 47.26 48.37 48.30 46.78 44.75 43.94 46.26 47.78 45.55 46.14 46.88 48.67 50.39 51.69 52.45 53.76 55.23 56.41 57.21 59.30 58.17 56.16 55.30 54.25 54.60 54.97 55.65 55.54 55.45 54.91 53.94 53.28 52.94 51.82 51.13 50.20 49.64 49.26 49.56 49.84 50.13
44.17 42.40 47.78 48.79 47.06 46.27 45.22 42.97 43.83 46.92 47.60 45.77 45.75 45.92 48.84 49.71 49.65 51.06 52.48 53.71 55.21 56.80 57.52 56.38 54.75 53.73 53.43 53.48 54.24 54.50 54.99 54.75 54.74 54.75 54.63 53.66 51.93 50.76 49.81 49.23 48.80 48.92 48.74 48.79
44.47 47.74 47.77 45.45 44.99 42.85 44.11 43.22 44.35 43.85 46.26 46.65 45.65 44.48 47.42 49.89 50.12 50.25 51.11 52.56 54.15 55.35 56.41 55.44 53.46 52.98 53.16 53.25 53.56 53.34 54.27 54.26 54.40 54.08 52.39 51.44 50.32 49.33 48.35 47.91 47.81 47.57 47.79 48.07
45.78 48.41 46.68 45.55 43.41 44.87 41.47 47.31 43.95 42.95 42.36 40.36 45.12 38.43 46.41 48.97 48.14 48.07 49.19 50.80 52.27 53.80 55.81 56.30 53.95 52.58 52.55 53.00 53.54 53.11 52.88 53.41 53.32 53.16 52.12 50.90 50.85 48.46 47.87 47.48 47.46 46.91 47.30 47.25
43.49 42.61 42.17 41.91 44.10 46.22 42.38 45.58 44.11 44.14 42.73 42.82 42.93 39.59 45.25 46.95 46.03 47.92 48.92 50.28 52.17 53.68 55.20 55.97 54.28 53.41 53.34 53.02 52.10 51.75 51.31 51.84 52.25 52.52 52.85 51.99 50.41 48.22 47.27 46.76 46.05 45.88 46.19 46.53
45.03 48.78 44.69 43.74 43.83 44.09 45.76 43.18 43.38 42.92 41.93 35.37 41.39 41.43 42.89 46.11 45.96 47.17 49.62 50.16 51.49 52.77 54.38 55.43 55.23 54.04 52.67 52.66 51.42 50.71 50.24 50.35 51.13 51.60 51.71 50.98 48.94 46.94 46.10 45.85 45.05 45.30 45.83 45.76
43.81 44.07 46.21 46.20 42.85 45.34 43.16 40.82 35.78 34.13 33.44 33.72 42.24 40.32 43.12 47.64 47.56 48.30 48.85 50.65 52.80 53.25 53.84 54.28 53.40 52.06 51.36 50.24 49.55 49.12 49.31 48.31 49.43 49.83 49.50 48.92 47.77 47.18 46.43 45.62 44.46 43.67 43.79 44.11
36.66 35.24 42.42 46.41 43.40 41.99 42.31 41.31 34.88 28.17 30.95 36.53 39.52 36.09 42.59 48.10 49.05 50.04 50.92 51.34 51.96 52.54 53.37 53.29 52.83 51.95 50.91 49.42 48.49 47.92 47.78 47.08 47.47 47.57 47.10 47.36 47.14 46.48 45.72 45.40 44.41 42.84 43.24 43.01
37.42 36.29 43.62 44.56 44.46 44.11 40.52 37.63 42.98 34.83 36.29 31.81 36.92 42.32 46.50 47.69 48.06 49.19 49.74 50.89 51.68 51.88 52.37 52.31 52.63 51.84 51.05 48.86 47.57 46.88 46.54 45.63 45.85 46.01 45.87 45.59 45.77 45.34 44.25 43.86 43.44 42.26 42.05 41.78
40.07 33.97 40.59 42.06 43.71 43.97 42.48 43.46 34.90 36.14 28.46 27.44 35.42 37.30 38.78 43.54 44.27 46.50 47.45 48.27 49.90 51.77 50.84 51.02 51.38 50.24 50.15 48.61 47.23 46.96 46.50 45.01 44.79 45.18 45.08 44.62 44.48 44.41 43.88 42.97 40.92 40.67 40.21 41.25
41.55 38.53 37.74 40.60 39.32 38.17 39.58 37.56 37.98 37.77 35.26 29.19 28.87 34.71 45.29 44.52 46.01 45.69 47.14 48.79 49.93 50.56 51.39 50.47 50.33 50.18 48.73 47.23 46.23 45.58 45.26 44.65 44.03 44.06 44.57 44.19 43.57 43.09 42.13 40.15 39.52 38.74 39.71 40.28
40.56 38.37 33.00 35.92 41.91 42.23 41.09 38.69 38.42 32.22 31.31 33.93 32.56 33.22 46.23 46.34 45.68 45.30 46.11 47.37 49.03 50.59 50.81 51.05 50.05 48.62 46.89 46.45 45.07 43.81 44.08 44.03 43.47 43.79 42.85 43.13 42.26 41.51 39.40 37.88 37.10 37.82 38.57 39.29
39.70 34.96 28.66 31.54 36.91 40.03 37.66 37.07 37.47 37.18 35.85 30.90 27.84 32.35 44.75 44.44 44.30 44.99 45.88 47.45 48.44 49.77 50.01 49.40 48.79 46.94 45.03 44.94 44.76 43.75 43.10 43.63 43.77 42.64 41.06 40.63 39.39 38.55 36.26 36.15 35.49 37.58 37.79 37.88
40.39 35.80 31.98 27.86 32.05 36.11 32.89 35.32 37.06 36.06 30.76 31.31 32.17 34.27 38.42 40.64 41.82 44.16 46.03 46.93 47.70 48.35 48.17 47.74 47.36 45.64 44.83 44.06 43.09 42.05 42.07 43.21 42.22 40.48 38.51 37.15 36.90 35.82 35.54 34.91 34.84 36.31 37.52 37.25
39.14 31.08 33.51 34.13 35.11 35.19 34.20 34.31 35.41 33.91 35.13 30.65 33.37 34.17 38.44 41.17 42.62 44.23 45.75 45.96 45.47 45.94 46.35 45.81 45.53 45.22 43.69 42.72 42.06 41.38 40.62 40.70 39.63 37.78 37.23 37.30 36.55 35.94 34.96 34.45 35.24 35.20 36.44 36.40
36.91 32.19 31.24 29.51 33.26 33.57 31.24 34.31 35.14 35.19 35.64 35.39 35.64 35.49 42.40 43.99 44.65 43.82 44.26 44.71 44.65 43.16 45.04 45.31 44.64 44.19 42.29 41.70 41.72 41.00 40.50 39.55 39.02 37.20 36.08 35.50 34.70 34.09 33.29 33.59 33.05 33.47 34.43 34.48
33.47 31.32 28.86 26.09 32.20 31.71 27.09 32.87 34.56 36.02 38.01 36.95 32.74 38.52 42.64 41.80 41.92 43.08 44.07 45.17 45.23 45.50 43.17 43.16 43.83 43.55 42.81 41.72 41.78 41.21 39.08 38.68 37.64 36.44 35.08 33.67 33.75 32.39 32.40 31.39 30.54 31.33 32.70 33.57
30.26 29.96 29.06 25.60 28.65 19.17 32.79 39.15 38.75 36.72 38.01 39.82 39.46 40.57 42.10 42.49 44.22 45.46 46.75 45.99 45.96 45.79 46.07 44.20 41.97 41.38 41.92 41.64 39.48 38.17 37.64 36.13 33.95 32.98 32.63 32.64 32.27 30.65 30.15 29.35 28.80 30.62 32.14 32.26
34.32 30.81 26.13 22.61 23.37 28.53 32.17 35.77 36.22 34.83 34.84 40.53 39.84 41.03 42.05 43.80 44.51 43.98 45.08 45.17 44.99 45.24 45.81 44.97 43.47 41.73 40.16 37.91 36.95 34.49 32.17 31.99 31.99 31.57 31.86 31.60 31.48 30.17 29.43 27.95 27.61 29.64 29.88 29.39
34.44 33.27 28.04 26.62 21.15 18.92 31.42 37.64 41.09 40.73 30.56 41.20 41.83 41.21 40.59 41.65 37.36 41.09 44.23 42.64 41.43 40.91 41.85 43.54 43.90 42.23 39.53 37.52 36.25 32.58 31.99 31.81 31.54 31.47 31.45 31.63 31.06 29.46 26.69 26.94 26.91 28.90 29.81 28.72
28.83 29.43 26.73 26.67 23.26 28.71 36.72 39.34 42.43 28.57 32.05 41.48 42.70 41.53 40.84 39.66 41.93 44.71 40.54 36.93 36.62 39.59 39.70 41.57 43.10 41.43 36.99 37.95 36.37 32.36 31.98 31.72 31.92 31.75 31.45 31.04 29.49 26.71 26.15 26.85 27.96 27.60 28.24 28.18
25.97 25.00 25.63 27.74 24.41 22.68 39.51 38.52 33.56 39.08 42.83 42.89 43.01 42.41 41.42 42.85 43.46 40.04 36.38 35.07 35.62 35.90 38.53 39.97 40.49 40.03 38.91 38.45 35.63 32.25 31.80 31.96 31.42 31.33 30.63 28.68 27.21 26.23 25.94 25.80 26.70 27.35 27.20 25.91
25.49 30.44 28.22 30.30 30.24 37.93 41.00 40.25 41.45 41.74 41.88 42.78 42.83 43.09 42.87 42.59 37.85 35.01 34.53 35.62 34.89 35.88 37.33 38.35 37.24 36.53 36.76 36.54 35.31 32.42 31.74 31.49 30.75 30.72 28.71 27.44 26.75 26.78 26.37 25.61 25.70 26.28 26.70 26.62
32.50 36.03 31.25 31.87 35.72 37.96 39.70 42.14 42.49 43.37 43.39 44.12 43.83 43.82 42.89 36.08 33.62 33.44 34.71 34.71 35.62 36.32 37.88 36.94 35.79 34.59 34.32 34.97 34.07 31.67 31.03 30.91 29.63 28.61 27.65 27.00 26.14 26.08 27.26 27.18 27.36 26.90 26.89 26.66
30.92 33.10 31.48 31.95 34.65 36.07 38.95 41.15 42.56 43.09 43.94 43.04 43.90 43.32 42.02 39.89 36.69 38.06 36.83 35.78 36.23 36.53 37.50 37.74 35.41 33.91 33.16 31.71 30.38 30.95 30.68 30.78 29.99 29.15 28.13 26.98 26.54 26.90 26.77 27.53 28.06 27.47 28.35 28.36
32.06 29.78 27.95 27.54 33.94 35.11 37.39 41.97 43.37 42.87 42.05 44.00 43.55 41.20 40.94 40.61 38.58 37.96 36.90 37.15 36.58 35.60 36.84 35.29 35.63 33.06 30.89 30.19 30.08 30.85 31.84 31.73 30.46 29.18 28.23 27.39 26.21 26.60 27.38 26.73 25.83 25.04 25.09 24.05

GFSCGP_sfc_wetblb_153.txt.gz
Wetbulb
50.94 47.57 46.12 48.94 50.99 50.55 49.75 48.32 47.30 49.47 51.62 49.48 48.47 48.66 50.71 52.78 52.93 52.84 53.74 54.31 55.28 57.42 60.49 62.83 62.46 61.45 60.64 60.38 59.72 59.61 58.92 58.59 57.88 56.83 55.77 55.40 54.58 54.50 53.91 53.59 52.98 53.03 53.08 53.07
49.77 45.14 50.52 51.93 51.17 49.40 48.21 47.04 47.10 49.58 51.34 50.56 49.04 48.37 51.32 52.92 52.83 52.93 53.05 54.02 54.87 56.59 58.45 60.52 61.10 60.11 59.27 58.58 58.54 58.81 58.59 58.09 57.66 57.03 57.04 56.81 55.55 54.74 53.40 52.35 51.87 51.98 51.77 52.05
46.55 49.26 51.53 49.59 48.15 47.13 47.84 46.40 46.86 46.97 50.03 50.93 49.11 47.22 49.77 53.02 53.90 54.21 53.87 53.82 54.95 55.60 56.41 58.59 59.92 59.03 58.16 57.33 57.62 57.95 58.36 57.87 57.59 57.61 56.91 55.58 54.25 52.13 50.59 50.34 50.16 50.46 51.12 51.53
48.51 51.15 49.28 48.83 47.85 49.10 44.50 49.64 48.58 47.34 45.24 42.03 49.94 42.12 48.43 50.68 51.48 52.37 53.20 53.88 53.79 54.67 55.97 57.48 59.37 58.22 57.52 57.30 58.14 58.05 58.21 57.67 57.20 57.31 55.00 53.03 51.12 49.56 50.63 50.54 50.18 49.84 50.49 50.40
46.45 47.92 46.33 45.32 47.27 49.82 46.68 49.20 46.84 46.78 45.03 44.91 45.58 43.43 46.30 49.82 48.88 50.47 52.15 52.47 53.50 54.65 55.28 55.55 57.48 58.90 58.00 57.61 57.29 57.62 57.31 57.16 56.83 55.87 55.07 53.31 53.04 52.64 50.64 49.86 48.80 49.32 49.53 49.73
47.81 51.17 47.93 46.59 47.25 46.76 48.83 45.45 46.20 46.33 44.59 38.09 43.56 43.43 44.08 47.13 47.51 49.35 51.22 52.30 53.53 54.74 54.61 55.60 56.96 59.54 57.94 57.78 57.30 56.73 55.91 55.48 56.13 55.44 55.24 54.45 54.04 50.94 49.18 48.98 48.32 48.45 48.78 48.82
46.27 46.64 49.82 49.37 44.18 47.34 45.86 42.82 36.27 36.07 36.18 36.04 44.65 43.20 45.13 48.82 49.31 49.47 50.50 51.99 53.63 54.96 55.64 55.51 55.50 58.29 57.49 56.66 56.17 55.50 54.65 53.69 54.70 54.48 54.38 54.61 53.63 51.17 49.77 49.10 48.72 48.03 47.50 47.46
40.93 39.36 46.39 49.83 46.54 43.78 44.72 43.26 36.67 29.57 32.15 36.72 43.65 39.30 44.28 50.14 51.14 51.68 52.27 52.80 53.76 54.44 55.08 55.30 56.00 57.02 57.30 56.29 55.62 54.35 53.34 52.91 53.51 53.68 53.68 53.72 52.44 50.48 50.32 49.94 48.83 48.32 47.74 47.02
39.44 39.10 45.94 46.55 47.52 46.97 43.26 39.71 44.91 37.61 38.76 34.30 39.37 44.62 48.76 50.61 49.39 49.78 50.14 51.03 51.80 52.95 54.00 54.30 55.25 55.80 56.16 55.49 54.80 52.99 52.27 52.38 51.93 52.51 52.57 51.42 50.62 50.20 49.64 49.34 48.45 46.97 46.69 45.73
41.93 36.80 43.87 44.69 45.49 46.16 43.85 45.57 37.03 39.01 29.72 29.01 36.52 39.27 40.66 44.79 45.30 48.09 48.38 48.38 49.46 51.64 52.63 53.37 53.56 54.53 55.32 55.19 54.26 52.83 51.63 50.88 49.91 49.84 49.66 48.63 48.90 48.74 48.47 47.40 45.71 45.43 44.96 44.65
43.96 40.45 39.89 42.43 41.16 40.21 40.98 39.73 39.99 39.50 37.69 31.41 30.95 36.64 46.98 44.63 45.93 46.46 47.00 47.11 48.55 49.81 50.86 52.44 53.95 54.07 54.36 54.01 52.22 50.54 49.18 48.63 48.16 48.39 47.57 47.03 46.59 46.78 46.41 44.92 43.90 43.13 43.18 43.59
42.58 39.63 35.83 38.65 43.35 44.60 42.69 40.28 40.51 34.15 32.74 36.36 35.20 35.15 47.36 47.17 47.22 47.03 46.07 46.26 49.13 50.35 51.18 52.31 53.68 54.34 53.14 52.51 51.97 49.66 48.61 48.31 47.43 46.95 46.55 45.99 45.70 44.98 43.53 42.16 41.53 41.59 40.41 41.62
41.66 36.67 30.91 33.20 38.80 41.73 38.59 40.57 40.47 40.10 38.71 32.96 30.53 33.46 45.23 45.30 45.11 45.43 45.01 46.16 48.44 49.63 50.03 51.10 52.19 52.28 52.64 51.78 50.72 49.09 47.62 47.50 46.41 45.82 45.26 44.89 43.75 42.25 40.09 39.20 38.93 38.94 39.24 38.96
40.85 36.74 32.87 29.03 33.86 36.22 32.93 36.88 39.30 37.82 32.88 33.14 33.95 36.24 40.42 42.13 42.54 43.86 45.13 47.03 48.18 48.83 49.05 49.92 50.62 51.02 51.26 50.33 49.31 47.91 46.92 47.24 46.08 44.74 44.00 43.23 41.33 39.65 38.70 37.41 37.64 37.76 37.97 37.42
40.07 33.09 34.63 35.62 36.57 36.79 35.62 35.34 36.69 35.64 36.28 32.21 35.10 35.74 39.57 41.74 42.56 44.29 46.01 46.54 46.39 46.82 47.76 48.72 49.06 49.62 48.48 48.15 47.43 47.07 45.90 45.07 45.31 43.97 41.98 40.79 39.77 38.37 37.11 35.93 36.50 37.21 37.31 36.69
40.11 32.58 33.90 30.85 34.56 35.07 32.82 35.79 36.48 36.28 36.61 36.22 36.54 36.14 42.42 43.66 44.70 44.71 45.26 45.35 45.35 46.30 47.59 48.82 48.52 47.97 46.91 45.42 44.95 44.37 44.10 43.14 43.23 40.98 39.44 38.41 37.45 35.86 35.09 35.02 34.45 34.91 35.20 35.22
36.11 33.33 30.45 26.86 33.10 32.63 28.56 34.14 35.61 36.60 38.20 37.33 33.73 38.62 42.92 42.36 43.28 44.19 44.88 45.48 45.76 46.76 47.52 48.03 47.95 48.17 45.81 44.23 43.51 42.83 42.21 42.10 40.20 38.14 37.76 37.10 35.11 34.42 33.59 32.70 32.28 32.59 33.47 34.92
32.82 31.46 30.76 26.31 29.15 19.06 32.65 38.72 38.59 36.61 37.76 39.71 40.24 40.91 42.09 42.76 44.87 45.87 46.75 46.70 45.99 46.27 46.71 48.14 49.22 48.86 45.40 43.53 43.44 42.28 41.37 38.88 37.22 36.27 34.31 34.10 33.44 32.46 32.03 31.52 31.21 32.71 33.81 33.43
36.29 32.54 26.94 23.26 24.13 28.93 32.22 35.47 35.41 34.65 35.02 40.59 39.74 40.97 41.69 43.79 44.77 44.85 47.80 46.81 46.02 46.19 46.13 46.66 48.12 49.55 46.63 42.80 41.16 38.96 35.96 35.09 33.25 31.72 31.78 31.87 32.02 30.60 30.39 29.91 30.70 31.69 31.16 30.64
35.05 34.15 30.38 26.45 20.92 18.73 31.53 37.58 40.61 40.48 31.40 40.79 40.75 41.53 42.09 43.59 38.38 41.76 46.74 45.79 44.96 44.34 45.61 45.21 45.39 45.62 45.45 41.61 38.68 33.29 31.87 32.05 31.87 31.87 31.83 31.86 31.83 30.57 29.30 29.78 30.54 31.15 31.14 30.77
29.42 30.31 25.96 25.49 23.17 28.13 36.75 39.64 41.48 28.96 32.49 42.00 42.92 43.40 42.92 41.35 43.72 45.80 46.05 40.97 39.68 42.55 43.77 44.52 44.13 45.22 39.42 39.21 34.82 32.60 32.05 32.05 32.23 31.87 31.87 31.66 31.32 29.57 29.43 29.65 30.25 30.16 30.28 30.36
27.57 26.62 26.82 28.06 24.52 21.99 39.63 39.45 34.11 39.75 42.63 43.47 43.27 44.18 43.65 44.91 45.05 44.61 41.02 37.13 37.07 37.21 42.87 43.37 40.96 40.64 40.22 38.73 34.35 32.49 32.04 31.87 31.87 31.87 31.36 29.97 29.04 28.92 29.28 28.90 29.04 29.50 29.82 28.38
26.70 31.29 29.57 30.21 30.00 38.82 41.57 40.96 42.94 43.83 42.80 42.68 42.72 43.30 44.99 44.08 42.41 40.54 38.15 36.77 35.68 37.22 42.50 42.63 40.79 38.03 38.77 38.48 35.52 32.83 31.76 32.00 31.74 30.51 28.38 28.32 28.42 28.53 28.44 27.76 28.42 28.49 28.94 27.97
33.47 36.42 32.32 31.81 35.73 37.43 39.62 42.64 42.88 43.45 43.02 44.45 44.94 45.39 45.40 39.88 36.04 35.68 35.50 35.50 37.13 38.00 42.00 41.96 39.39 36.37 35.25 35.96 34.71 32.31 32.00 32.12 31.04 29.06 28.08 27.80 27.16 27.06 27.22 27.80 28.22 27.58 27.97 27.95
33.16 34.49 31.51 32.25 35.79 37.33 39.12 41.08 41.54 41.42 44.04 45.09 45.41 45.57 45.13 43.01 40.37 42.48 40.18 37.84 37.81 38.63 39.85 40.50 38.12 35.62 33.82 33.06 31.90 31.76 31.67 31.39 29.38 28.97 28.46 27.59 27.04 26.58 26.46 27.81 28.97 28.93 30.70 30.19
33.76 31.41 29.96 29.72 35.43 36.46 36.85 38.65 41.23 40.63 43.01 44.74 44.36 44.96 44.83 44.07 42.83 42.62 41.37 41.61 41.16 38.93 39.34 38.87 36.89 34.68 31.82 31.51 31.01 31.16 31.48 32.12 30.94 29.30 28.36 27.86 27.53 27.04 27.36 27.74 26.76 27.66 27.10 26.91